[[{"header":{"parameterUnit":"m.s-1","parameterCategory":1,"la1":31.0,"la2":29.5877,"lo1":-88.7671,"lo2":-86.6584,"dy":0.0162,"dx":0.0185,"nx":115,"ny":88,"refTime":"2024-08-02T06:00:00:Z","depth":0,"parameterNumber":2,"parameterNumberName":"U-component_of_WINDS"},"data":[0.0,0.0,0.0,0.0,0.0,0.0,0.0,0.0,0.0,0.0,0.0,0.0,0.0,0.0,0.0,0.0,0.0,0.0,0.0,0.0,0.0,0.0,0.0,0.0,0.0,0.0,0.0,0.0,0.0,0.0,0.0,0.0,0.0,0.0,0.0,0.0,0.0,0.0,0.0,0.0,0.0,0.0,0.0,0.0,0.0,0.0,0.0,0.0,0.0,0.0,0.0,0.0,0.0,0.0,0.0,0.0,0.0,0.0,0.0,0.0,0.0,0.0,0.0,0.0,0.0,0.0,0.0,0.0,0.0,0.0,0.0,0.0,0.0,0.0,0.0,0.0,0.0,0.0,0.0,0.0,0.0,0.0,0.0,0.0,0.0,0.0,0.0,0.0,0.0,0.0,0.0,0.0,0.0,0.0,0.0,0.0,0.0,0.0,0.0,0.0,0.0,0.0,0.0,0.0,0.0,0.0,0.0,0.0,0.0,0.0,0.0,0.0,0.0,0.0,0.0,0.0,0.0,0.0,0.0,0.0,0.0,0.0,0.0,0.0,0.0,0.0,0.0,0.0,0.0,0.0,0.0,0.0,0.0,0.0,0.0,0.0,0.0,0.0,0.0,0.0,0.0,0.0,0.0,0.0,0.0,0.0,0.0,0.0,0.0,0.0,0.0,0.0,0.0,0.0,0.0,0.0,0.0,0.0,0.0,0.0,0.0,0.0,0.0,0.0,0.0,0.0,0.0,0.0,0.0,0.0,0.0,0.0,0.0,0.0,0.0,0.0,0.0,0.0,0.0,0.0,0.0,0.0,0.0,0.0,0.0,0.0,0.0,0.0,0.0,0.0,0.0,0.0,0.0,0.0,0.0,0.0,0.0,0.0,0.0,0.0,0.0,0.0,0.0,0.0,0.0,0.0,0.0,0.0,0.0,0.0,0.0,0.0,0.0,0.0,0.0,0.0,0.0,0.0,0.0,0.0,0.0,0.0,0.0,0.0,0.0,0.0,0.0,0.0,0.0,0.0,0.0,0.0,0.0,0.0,0.0,0.0,0.0,0.0,0.0,0.0,0.0,0.0,0.0,0.0,0.0,0.0,0.0,0.0,0.0,0.0,0.0,0.0,0.0,0.0,0.0,0.0,0.0,0.0,0.0,0.0,0.0,0.0,0.0,0.0,0.0,0.0,0.0,0.0,0.0,0.0,0.0,0.0,0.0,0.0,0.0,0.0,0.0,0.0,0.0,0.0,0.0,0.0,0.0,0.0,0.0,0.0,0.0,0.0,0.0,0.0,0.0,0.0,0.0,0.0,0.0,0.0,0.0,0.0,0.0,0.0,0.0,0.0,0.0,0.0,0.0,0.0,0.0,0.0,0.0,0.0,0.0,0.0,0.0,0.0,0.0,0.0,0.0,0.0,0.0,0.0,0.0,0.0,0.0,0.0,0.0,0.0,0.0,0.0,0.0,0.0,0.0,0.0,0.0,0.0,0.0,0.0,0.0,0.0,0.0,0.0,0.0,0.0,0.0,0.0,0.0,0.0,0.0,0.0,0.0,0.0,0.0,0.0,0.0,0.0,0.0,0.0,0.0,0.0,0.0,0.0,0.0,0.0,0.0,0.0,0.0,0.0,0.0,0.0,0.0,0.0,0.0,0.0,0.0,0.0,0.0,0.0,0.0,0.0,0.0,0.0,0.0,0.0,0.0,0.0,0.0,0.0,0.0,0.0,0.0,0.0,0.0,0.0,0.0,0.0,0.0,0.0,0.0,0.0,0.0,0.0,0.0,0.0,0.0,0.0,0.0,0.0,0.0,0.0,0.0,0.0,0.0,0.0,0.0,0.0,0.0,0.0,0.0,0.0,0.0,0.0,0.0,0.0,0.0,0.0,0.0,0.0,0.0,0.0,0.0,0.0,0.0,0.0,0.0,0.0,0.0,0.0,0.0,0.0,0.0,0.0,0.0,0.0,0.0,0.0,0.0,0.0,0.0,0.0,0.0,0.0,0.0,0.0,0.0,0.0,0.0,0.0,0.0,0.0,0.0,0.0,0.0,0.0,0.0,0.0,0.0,0.0,0.0,0.0,0.0,0.0,0.0,0.0,0.0,0.0,0.0,0.0,0.0,0.0,0.0,0.0,0.0,0.0,0.0,0.0,0.0,0.0,0.0,0.0,0.0,0.0,0.0,0.0,0.0,0.0,0.0,0.0,0.0,0.0,0.0,0.0,0.0,0.0,0.0,0.0,0.0,0.0,0.0,0.0,0.0,0.0,0.0,0.0,0.0,0.0,0.0,0.0,0.0,0.0,0.0,0.0,0.0,0.0,0.0,0.0,0.0,0.0,0.0,0.0,0.0,0.0,0.0,0.0,0.0,0.0,0.0,0.0,0.0,0.0,0.0,0.0,0.0,0.0,0.0,0.0,0.0,0.0,0.0,0.0,0.0,0.0,0.0,0.0,0.0,0.0,0.0,0.0,0.0,0.0,0.0,0.0,0.0,0.0,0.0,0.0,0.0,0.0,0.0,0.0,0.0,0.0,0.0,0.0,0.0,0.0,0.0,0.0,0.0,0.0,0.0,0.0,0.0,0.0,0.0,0.0,0.0,0.0,0.0,0.0,0.0,0.0,0.0,0.0,0.0,0.0,0.0,0.0,0.0,0.0,0.0,0.0,0.0,0.0,0.0,0.0,0.0,0.0,0.0,0.0,0.0,0.0,0.0,0.0,0.0,0.0,0.0,0.0,0.0,0.0,0.0,0.0,0.0,0.0,0.0,0.0,0.0,0.0,0.0,0.0,0.0,0.0,0.0,0.0,0.0,0.0,0.0,0.0,0.0,0.0,0.0,0.0,0.0,0.0,0.0,0.0,0.0,0.0,0.0,0.0,0.0,0.0,0.0,0.0,0.0,0.0,0.0,0.0,0.0,0.0,0.0,0.0,0.0,0.0,0.0,0.0,0.0,0.0,0.0,0.0,0.0,0.0,0.0,0.0,0.0,0.0,0.0,0.0,0.0,0.0,0.0,0.0,0.0,0.0,0.0,0.0,0.0,0.0,0.0,0.0,0.0,0.0,0.0,0.0,0.0,0.0,0.0,0.0,0.0,0.0,0.0,0.0,0.0,0.0,0.0,0.0,0.0,0.0,0.0,0.0,0.0,0.0,0.0,0.0,0.0,0.0,0.0,0.0,0.0,0.0,0.0,0.0,0.0,0.0,0.0,0.0,0.0,0.0,0.0,0.0,0.0,0.0,0.0,0.0,0.0,0.0,0.0,0.0,0.0,0.0,0.0,0.0,0.0,0.0,0.0,0.0,0.0,0.0,0.0,0.0,0.0,0.0,0.0,0.0,0.0,0.0,0.0,0.0,0.0,0.0,0.0,0.0,0.0,0.0,0.0,0.0,0.0,0.0,0.0,0.0,0.0,0.0,0.0,0.0,0.0,0.0,0.0,0.0,0.0,0.0,0.0,0.0,0.0,0.0,0.0,0.0,0.0,0.0,0.0,0.0,0.0,0.0,0.0,0.0,0.0,0.0,0.0,0.0,0.0,0.0,0.0,0.0,0.0,0.0,0.0,0.0,0.0,0.0,0.0,0.0,0.0,0.0,0.0,0.0,0.0,0.0,0.0,0.0,0.0,0.0,0.0,0.0,0.0,0.0,0.0,0.0,0.0,0.0,0.0,0.0,0.0,0.0,0.0,0.0,0.0,0.0,0.0,0.0,0.0,0.0,0.0,0.0,0.0,0.0,0.0,0.0,0.0,0.0,0.0,0.0,0.0,0.0,0.0,0.0,0.0,0.0,0.0,0.0,0.0,0.0,0.0,0.0,0.0,0.0,0.0,0.0,0.0,0.0,0.0,0.0,0.0,0.0,0.0,0.0,0.0,0.0,0.0,0.0,0.0,0.0,0.0,0.0,0.0,0.0,0.0,0.0,0.0,0.0,0.0,0.0,0.0,0.0,0.0,0.0,0.0,0.0,0.0,0.0,0.0,0.0,0.0,0.0,0.0,0.0,0.0,0.0,0.0,0.0,0.0,0.0,0.0,0.0,0.0,0.0,0.0,0.0,0.0,0.0,0.0,0.0,0.0,0.0,0.0,0.0,0.0,0.0,0.0,0.0,0.0,0.0,0.0,0.0,0.0,0.0,0.0,0.0,0.0,0.0,0.0,0.0,0.0,0.0,0.0,0.0,0.0,0.0,0.0,0.0,0.0,0.0,0.0,0.0,0.0,0.0,0.0,0.0,0.0,0.0,0.0,0.0,0.0,0.0,0.0,0.0,0.0,0.0,0.0,0.0,2.6556,0.0,0.0,0.0,0.0,0.0,0.0,0.0,0.0,0.0,0.0,0.0,0.0,0.0,0.0,0.0,0.0,0.0,0.0,0.0,0.0,0.0,0.0,0.0,0.0,0.0,0.0,0.0,0.0,0.0,0.0,0.0,0.0,0.0,0.0,0.0,0.0,0.0,0.0,0.0,0.0,0.0,0.0,0.0,0.0,0.0,0.0,0.0,0.0,0.0,0.0,0.0,0.0,0.0,0.0,0.0,0.0,0.0,0.0,0.0,0.0,0.0,0.0,0.0,0.0,0.0,0.0,0.0,0.0,0.0,0.0,0.0,0.0,0.0,0.0,0.0,0.0,0.0,0.0,0.0,0.0,0.0,0.0,0.0,0.0,0.0,0.0,0.0,0.0,0.0,0.0,0.0,0.0,0.0,0.0,0.0,0.0,0.0,0.0,0.0,0.0,0.0,0.0,0.0,0.0,0.0,0.0,0.0,0.0,0.0,0.0,2.6691,2.6691,2.6691,2.6691,2.6691,0.0,0.0,0.0,0.0,0.0,0.0,0.0,0.0,0.0,0.0,0.0,0.0,0.0,0.0,0.0,0.0,0.0,0.0,0.0,0.0,0.0,0.0,0.0,0.0,0.0,0.0,0.0,0.0,0.0,0.0,0.0,0.0,0.0,0.0,0.0,0.0,0.0,0.0,0.0,0.0,0.0,0.0,0.0,0.0,0.0,0.0,0.0,0.0,0.0,0.0,0.0,0.0,0.0,0.0,0.0,0.0,0.0,0.0,0.0,0.0,0.0,0.0,0.0,0.0,0.0,0.0,0.0,0.0,0.0,0.0,0.0,0.0,0.0,0.0,0.0,0.0,0.0,0.0,0.0,0.0,0.0,0.0,0.0,0.0,0.0,0.0,0.0,0.0,0.0,0.0,0.0,0.0,0.0,0.0,0.0,0.0,0.0,0.0,0.0,0.0,0.0,0.0,0.0,0.0,0.0,0.0,0.0,0.0,0.0,0.0,0.0,0.0,2.7199,2.7199,2.7199,0.0,0.0,0.0,0.0,0.0,0.0,0.0,0.0,0.0,0.0,0.0,0.0,0.0,0.0,0.0,0.0,0.0,0.0,0.0,0.0,0.0,0.0,0.0,0.0,0.0,0.0,0.0,0.0,0.0,0.0,0.0,0.0,0.0,0.0,0.0,0.0,0.0,0.0,0.0,0.0,0.0,0.0,0.0,0.0,0.0,0.0,0.0,0.0,0.0,0.0,0.0,0.0,0.0,0.0,0.0,0.0,0.0,0.0,0.0,0.0,0.0,0.0,0.0,0.0,0.0,0.0,0.0,0.0,0.0,0.0,0.0,0.0,0.0,0.0,0.0,0.0,0.0,0.0,0.0,0.0,0.0,0.0,0.0,0.0,0.0,0.0,0.0,0.0,0.0,0.0,0.0,0.0,0.0,0.0,0.0,0.0,0.0,0.0,0.0,0.0,0.0,0.0,0.0,0.0,0.0,0.0,0.0,0.0,0.0,0.0,2.7368,2.8757,2.8755,0.0,2.8825,0.0,0.0,0.0,0.0,0.0,0.0,0.0,0.0,0.0,0.0,0.0,0.0,0.0,0.0,0.0,0.0,0.0,0.0,0.0,0.0,0.0,0.0,0.0,0.0,0.0,0.0,0.0,0.0,0.0,0.0,0.0,0.0,0.0,0.0,0.0,0.0,0.0,0.0,0.0,0.0,0.0,0.0,0.0,0.0,0.0,0.0,0.0,0.0,0.0,0.0,0.0,0.0,0.0,0.0,0.0,0.0,0.0,0.0,0.0,0.0,0.0,0.0,0.0,0.0,0.0,0.0,0.0,0.0,0.0,0.0,0.0,0.0,0.0,0.0,0.0,0.0,0.0,0.0,0.0,0.0,0.0,0.0,0.0,0.0,0.0,0.0,0.0,0.0,0.0,0.0,0.0,0.0,0.0,0.0,0.0,0.0,0.0,0.0,0.0,0.0,0.0,0.0,0.0,0.0,0.0,0.0,0.0,0.0,0.0,0.0,0.0,2.8994,2.8994,2.8994,0.0,0.0,0.0,0.0,0.0,0.0,0.0,0.0,0.0,0.0,0.0,0.0,0.0,0.0,0.0,0.0,0.0,0.0,0.0,0.0,0.0,0.0,0.0,0.0,0.0,0.0,0.0,0.0,0.0,0.0,0.0,0.0,0.0,0.0,0.0,0.0,0.0,0.0,0.0,0.0,0.0,0.0,0.0,0.0,0.0,0.0,0.0,0.0,0.0,0.0,0.0,0.0,0.0,0.0,0.0,0.0,0.0,0.0,0.0,0.0,0.0,0.0,0.0,0.0,0.0,0.0,0.0,0.0,0.0,0.0,0.0,0.0,0.0,0.0,0.0,0.0,0.0,0.0,0.0,0.0,0.0,0.0,0.0,0.0,0.0,0.0,0.0,0.0,0.0,0.0,0.0,0.0,0.0,0.0,0.0,0.0,0.0,0.0,0.0,0.0,0.0,0.0,0.0,0.0,0.0,0.0,0.0,0.0,0.0,0.0,2.8619,0.0,2.9567,2.9638,2.9434,2.9028,0.0,0.0,0.0,0.0,0.0,0.0,0.0,0.0,0.0,0.0,0.0,0.0,0.0,0.0,0.0,0.0,0.0,0.0,0.0,0.0,0.0,0.0,0.0,0.0,0.0,0.0,0.0,0.0,0.0,0.0,0.0,0.0,0.0,0.0,0.0,0.0,0.0,0.0,0.0,0.0,0.0,0.0,0.0,0.0,0.0,0.0,0.0,0.0,0.0,0.0,0.0,0.0,0.0,0.0,0.0,0.0,0.0,0.0,0.0,0.0,0.0,0.0,0.0,0.0,0.0,0.0,0.0,0.0,0.0,0.0,0.0,0.0,0.0,0.0,0.0,0.0,0.0,0.0,0.0,0.0,0.0,0.0,0.0,0.0,0.0,0.0,0.0,0.0,0.0,0.0,0.0,0.0,0.0,0.0,0.0,0.0,0.0,0.0,0.0,0.0,0.0,0.0,0.0,0.0,0.0,0.0,0.0,0.0,0.0,2.9634,2.9668,3.1055,3.1089,3.0412,0.0,0.0,0.0,0.0,0.0,0.0,0.0,0.0,0.0,0.0,0.0,0.0,0.0,0.0,0.0,0.0,0.0,0.0,0.0,0.0,0.0,0.0,0.0,0.0,0.0,0.0,0.0,0.0,0.0,0.0,0.0,0.0,0.0,0.0,0.0,0.0,0.0,0.0,0.0,0.0,0.0,0.0,0.0,0.0,0.0,0.0,0.0,0.0,0.0,0.0,0.0,0.0,0.0,0.0,0.0,0.0,0.0,0.0,0.0,0.0,0.0,0.0,0.0,0.0,0.0,0.0,0.0,0.0,0.0,0.0,0.0,0.0,0.0,0.0,0.0,0.0,0.0,0.0,0.0,0.0,0.0,0.0,0.0,0.0,0.0,0.0,0.0,0.0,0.0,0.0,0.0,0.0,0.0,0.0,0.0,0.0,0.0,0.0,0.0,0.0,0.0,0.0,0.0,0.0,0.0,0.0,0.0,0.0,0.0,2.8247,2.8755,3.0176,3.2442,3.0784,2.9736,0.0,0.0,0.0,0.0,0.0,0.0,0.0,0.0,0.0,0.0,0.0,0.0,0.0,0.0,0.0,0.0,0.0,0.0,0.0,0.0,0.0,0.0,0.0,0.0,0.0,0.0,0.0,0.0,0.0,0.0,0.0,0.0,0.0,0.0,0.0,0.0,0.0,0.0,0.0,0.0,0.0,0.0,0.0,0.0,0.0,0.0,0.0,0.0,0.0,0.0,0.0,0.0,0.0,0.0,0.0,0.0,0.0,0.0,0.0,0.0,0.0,0.0,0.0,0.0,0.0,0.0,0.0,0.0,0.0,0.0,0.0,0.0,0.0,0.0,0.0,0.0,0.0,0.0,0.0,0.0,0.0,0.0,0.0,0.0,0.0,0.0,0.0,0.0,0.0,0.0,0.0,0.0,0.0,0.0,0.0,0.0,0.0,0.0,0.0,0.0,0.0,0.0,0.0,0.0,0.0,0.0,0.0,0.0,0.0,2.8146,0.0,3.1157,0.0,3.0751,2.9465,0.0,0.0,0.0,0.0,0.0,0.0,0.0,0.0,0.0,0.0,0.0,0.0,0.0,0.0,0.0,0.0,0.0,0.0,0.0,0.0,0.0,0.0,0.0,0.0,0.0,0.0,0.0,0.0,0.0,0.0,0.0,0.0,0.0,0.0,0.0,0.0,0.0,0.0,0.0,0.0,0.0,0.0,0.0,0.0,0.0,0.0,0.0,0.0,0.0,0.0,0.0,0.0,0.0,0.0,0.0,0.0,0.0,0.0,0.0,0.0,0.0,0.0,0.0,0.0,0.0,0.0,0.0,0.0,0.0,0.0,0.0,0.0,0.0,0.0,0.0,0.0,0.0,0.0,0.0,0.0,0.0,0.0,0.0,0.0,0.0,0.0,0.0,0.0,0.0,0.0,0.0,0.0,0.0,0.0,0.0,0.0,0.0,0.0,0.0,0.0,0.0,0.0,0.0,0.0,0.0,0.0,0.0,0.0,2.8213,3.1021,3.251,3.2645,3.1326,3.1157,2.977,0.0,0.0,0.0,0.0,0.0,0.0,0.0,0.0,0.0,0.0,0.0,0.0,0.0,0.0,0.0,0.0,0.0,0.0,0.0,0.0,0.0,0.0,0.0,0.0,0.0,0.0,0.0,0.0,0.0,0.0,0.0,0.0,0.0,0.0,0.0,0.0,0.0,0.0,0.0,0.0,0.0,0.0,0.0,0.0,0.0,0.0,0.0,0.0,0.0,0.0,0.0,0.0,0.0,0.0,0.0,0.0,0.0,0.0,0.0,0.0,0.0,0.0,0.0,0.0,0.0,0.0,0.0,0.0,0.0,0.0,0.0,0.0,0.0,0.0,0.0,0.0,0.0,0.0,0.0,0.0,0.0,0.0,0.0,0.0,0.0,0.0,0.0,0.0,0.0,0.0,0.0,0.0,0.0,0.0,0.0,0.0,0.0,0.0,0.0,0.0,0.0,0.0,0.0,0.0,0.0,0.0,0.0,0.0,0.0,2.9702,3.163,3.3152,3.41,3.1258,2.9939,0.0,0.0,0.0,0.0,0.0,0.0,0.0,0.0,0.0,0.0,0.0,0.0,0.0,0.0,0.0,0.0,0.0,0.0,0.0,0.0,0.0,0.0,0.0,0.0,0.0,0.0,0.0,0.0,0.0,0.0,0.0,0.0,0.0,0.0,0.0,0.0,0.0,0.0,0.0,0.0,0.0,0.0,0.0,0.0,0.0,0.0,0.0,0.0,0.0,0.0,0.0,0.0,0.0,0.0,0.0,0.0,0.0,0.0,0.0,0.0,0.0,0.0,0.0,0.0,0.0,0.0,0.0,0.0,0.0,0.0,0.0,0.0,0.0,0.0,0.0,0.0,0.0,0.0,0.0,0.0,0.0,0.0,0.0,0.0,0.0,0.0,0.0,0.0,0.0,0.0,0.0,0.0,0.0,0.0,0.0,0.0,0.0,0.0,0.0,0.0,0.0,0.0,0.0,0.0,0.0,0.0,0.0,0.0,0.0,3.1596,3.3626,3.5047,3.5543,3.2374,3.0789,3.0954,0.0,0.0,0.0,0.0,0.0,0.0,0.0,0.0,0.0,0.0,0.0,0.0,0.0,0.0,0.0,0.0,0.0,0.0,0.0,0.0,0.0,0.0,0.0,0.0,0.0,0.0,0.0,0.0,0.0,0.0,0.0,0.0,0.0,0.0,0.0,0.0,0.0,0.0,0.0,0.0,0.0,0.0,0.0,0.0,0.0,0.0,0.0,0.0,0.0,0.0,0.0,0.0,0.0,0.0,0.0,0.0,0.0,0.0,0.0,0.0,0.0,0.0,0.0,0.0,0.0,0.0,0.0,0.0,0.0,0.0,0.0,0.0,0.0,0.0,0.0,0.0,0.0,0.0,0.0,0.0,0.0,0.0,0.0,0.0,0.0,0.0,0.0,0.0,0.0,0.0,0.0,0.0,0.0,0.0,0.0,0.0,0.0,0.0,0.0,0.0,0.0,0.0,0.0,0.0,0.0,0.0,0.0,0.0,3.5723,3.8024,3.8193,3.6062,3.4336,3.2138,0.0,0.0,0.0,0.0,0.0,0.0,0.0,0.0,0.0,0.0,0.0,0.0,0.0,0.0,0.0,0.0,0.0,0.0,0.0,0.0,0.0,0.0,0.0,0.0,0.0,0.0,0.0,0.0,0.0,0.0,0.0,0.0,0.0,0.0,0.0,0.0,0.0,0.0,0.0,0.0,0.0,0.0,0.0,0.0,0.0,0.0,0.0,0.0,0.0,0.0,0.0,0.0,0.0,0.0,0.0,0.0,0.0,0.0,0.0,0.0,0.0,0.0,0.0,0.0,0.0,0.0,0.0,0.0,0.0,0.0,0.0,0.0,0.0,0.0,0.0,0.0,0.0,0.0,0.0,0.0,0.0,0.0,0.0,0.0,0.0,0.0,0.0,0.0,0.0,0.0,0.0,0.0,0.0,0.0,0.0,0.0,0.0,0.0,0.0,0.0,0.0,0.0,0.0,0.0,0.0,0.0,0.0,0.0,0.0,3.7381,4.0561,4.1474,3.9749,3.6163,3.3863,0.0,0.0,0.0,0.0,0.0,0.0,0.0,0.0,0.0,0.0,0.0,0.0,0.0,0.0,0.0,0.0,0.0,0.0,0.0,0.0,0.0,0.0,0.0,0.0,0.0,0.0,0.0,0.0,0.0,0.0,0.0,0.0,0.0,0.0,0.0,0.0,0.0,0.0,0.0,0.0,0.0,0.0,0.0,0.0,0.0,0.0,0.0,0.0,0.0,0.0,0.0,0.0,0.0,0.0,0.0,0.0,0.0,0.0,0.0,0.0,0.0,0.0,0.0,0.0,0.0,0.0,0.0,0.0,0.0,0.0,0.0,0.0,0.0,0.0,0.0,0.0,0.0,0.0,0.0,0.0,0.0,0.0,0.0,0.0,0.0,0.0,0.0,0.0,0.0,0.0,0.0,0.0,0.0,0.0,0.0,0.0,0.0,0.0,0.0,0.0,0.0,0.0,0.0,0.0,0.0,0.0,0.0,0.0,3.7144,3.9276,4.232,4.3335,4.2151,3.87,3.6096,0.0,0.0,0.0,0.0,0.0,0.0,0.0,0.0,0.0,0.0,0.0,0.0,0.0,0.0,0.0,0.0,0.0,0.0,0.0,0.0,0.0,0.0,0.0,0.0,0.0,0.0,0.0,0.0,0.0,0.0,0.0,0.0,0.0,0.0,0.0,0.0,0.0,0.0,0.0,0.0,0.0,0.0,0.0,0.0,0.0,0.0,0.0,0.0,0.0,0.0,0.0,0.0,0.0,0.0,0.0,0.0,0.0,0.0,0.0,0.0,0.0,0.0,0.0,0.0,0.0,0.0,0.0,0.0,0.0,0.0,0.0,0.0,0.0,0.0,0.0,0.0,0.0,0.0,0.0,0.0,0.0,0.0,0.0,0.0,0.0,0.0,0.0,0.0,0.0,0.0,0.0,0.0,0.0,0.0,0.0,0.0,0.0,0.0,0.0,0.0,0.0,0.0,0.0,0.0,0.0,0.0,0.0,0.0,3.8464,4.1136,4.3403,4.4248,4.3504,4.1339,3.8396,0.0,0.0,0.0,0.0,0.0,0.0,0.0,0.0,0.0,0.0,0.0,0.0,0.0,0.0,0.0,0.0,0.0,0.0,0.0,0.0,0.0,0.0,0.0,0.0,0.0,0.0,0.0,0.0,0.0,0.0,0.0,0.0,0.0,0.0,0.0,0.0,0.0,0.0,0.0,0.0,0.0,0.0,0.0,0.0,0.0,0.0,0.0,0.0,0.0,0.0,0.0,0.0,0.0,0.0,0.0,0.0,0.0,0.0,0.0,0.0,0.0,0.0,0.0,0.0,0.0,0.0,0.0,0.0,0.0,0.0,0.0,0.0,0.0,0.0,0.0,0.0,0.0,0.0,0.0,0.0,0.0,0.0,0.0,0.0,0.0,0.0,0.0,0.0,0.0,0.0,0.0,0.0,0.0,0.0,0.0,0.0,0.0,0.0,0.0,0.0,0.0,0.0,0.0,0.0,0.0,0.0,0.0,0.0,3.9952,4.1204,4.3403,4.4485,4.4316,4.1576,3.8599,0.0,0.0,0.0,0.0,0.0,0.0,0.0,0.0,0.0,0.0,0.0,0.0,0.0,0.0,0.0,0.0,0.0,0.0,0.0,0.0,0.0,0.0,0.0,0.0,0.0,0.0,0.0,0.0,0.0,0.0,0.0,0.0,0.0,0.0,0.0,0.0,0.0,0.0,0.0,0.0,0.0,0.0,0.0,0.0,0.0,0.0,0.0,0.0,3.1461,0.0,0.0,0.0,0.0,0.0,0.0,0.0,0.0,0.0,0.0,0.0,0.0,0.0,0.0,0.0,0.0,0.0,0.0,0.0,0.0,0.0,0.0,0.0,0.0,0.0,0.0,0.0,0.0,0.0,0.0,0.0,0.0,0.0,0.0,0.0,0.0,0.0,0.0,0.0,0.0,0.0,0.0,0.0,0.0,0.0,0.0,0.0,0.0,0.0,0.0,0.0,0.0,0.0,0.0,0.0,0.0,0.0,0.0,0.0,4.0798,4.2219,4.3775,4.4553,4.4519,4.2658,4.0087,0.0,0.0,0.0,0.0,0.0,0.0,0.0,0.0,0.0,0.0,0.0,0.0,0.0,0.0,0.0,0.0,0.0,0.0,0.0,0.0,0.0,0.0,0.0,0.0,0.0,0.0,0.0,0.0,0.0,0.0,0.0,0.0,0.0,0.0,0.0,0.0,0.0,0.0,0.0,0.0,0.0,0.0,0.0,0.0,0.0,0.0,0.0,0.0,0.0,0.0,0.0,0.0,0.0,0.0,0.0,0.0,0.0,0.0,0.0,0.0,0.0,0.0,0.0,0.0,0.0,0.0,0.0,0.0,0.0,0.0,0.0,0.0,0.0,0.0,0.0,0.0,0.0,0.0,0.0,0.0,0.0,0.0,0.0,0.0,0.0,0.0,0.0,0.0,0.0,0.0,0.0,0.0,0.0,0.0,0.0,0.0,0.0,0.0,0.0,0.0,0.0,0.0,0.0,0.0,0.0,0.0,0.0,3.8464,4.1238,4.3504,4.4248,4.4553,4.4553,4.3944,4.1813,3.8058,0.0,0.0,0.0,0.0,0.0,0.0,0.0,0.0,0.0,0.0,0.0,0.0,0.0,0.0,0.0,0.0,0.0,0.0,0.0,0.0,0.0,0.0,0.0,0.0,0.0,0.0,0.0,0.0,0.0,0.0,0.0,0.0,0.0,0.0,0.0,0.0,0.0,0.0,2.977,3.2205,0.0,0.0,0.0,0.0,0.0,0.0,0.0,0.0,3.3739,0.0,0.0,0.0,0.0,0.0,0.0,0.0,0.0,0.0,0.0,0.0,0.0,0.0,0.0,0.0,0.0,0.0,0.0,0.0,0.0,0.0,0.0,0.0,0.0,0.0,0.0,0.0,0.0,0.0,0.0,0.0,0.0,0.0,0.0,0.0,0.0,0.0,0.0,0.0,0.0,0.0,0.0,0.0,0.0,0.0,0.0,0.0,0.0,0.0,0.0,0.0,0.0,0.0,0.0,0.0,0.0,3.9073,3.9783,4.1474,4.4282,4.4519,4.4553,4.4553,4.4451,4.2354,3.8125,0.0,0.0,0.0,0.0,0.0,0.0,0.0,0.0,0.0,0.0,0.0,0.0,0.0,0.0,0.0,0.0,0.0,0.0,0.0,0.0,0.0,0.0,0.0,0.0,0.0,0.0,0.0,0.0,0.0,0.0,0.0,0.0,0.0,0.0,0.0,0.0,0.0,0.0,0.0,3.5115,3.6299,0.0,0.0,0.0,0.0,0.0,0.0,0.0,0.0,3.3534,0.0,0.0,0.0,0.0,0.0,0.0,0.0,0.0,0.0,0.0,0.0,0.0,0.0,0.0,0.0,0.0,0.0,0.0,0.0,0.0,0.0,0.0,0.0,0.0,0.0,0.0,0.0,0.0,0.0,0.0,0.0,0.0,0.0,0.0,0.0,0.0,0.0,0.0,0.0,0.0,0.0,0.0,0.0,0.0,0.0,0.0,0.0,0.0,0.0,0.0,0.0,0.0,0.0,0.0,0.0,3.8227,4.0257,4.232,4.4485,4.4553,4.4553,4.4519,4.3098,4.0899,0.0,0.0,0.0,0.0,0.0,0.0,0.0,0.0,0.0,0.0,0.0,0.0,0.0,0.0,0.0,0.0,0.0,0.0,0.0,0.0,0.0,0.0,0.0,0.0,0.0,0.0,0.0,0.0,0.0,0.0,0.0,0.0,0.0,0.0,0.0,0.0,0.0,0.0,0.0,0.0,3.64,3.7516,3.7889,0.0,0.0,0.0,0.0,0.0,0.0,3.5531,3.4443,0.0,0.0,0.0,0.0,0.0,0.0,0.0,0.0,0.0,0.0,0.0,0.0,0.0,0.0,0.0,0.0,0.0,0.0,0.0,0.0,0.0,0.0,0.0,0.0,0.0,0.0,0.0,0.0,0.0,0.0,0.0,0.0,0.0,0.0,0.0,0.0,0.0,0.0,0.0,0.0,0.0,0.0,0.0,0.0,0.0,0.0,0.0,0.0,0.0,0.0,0.0,0.0,0.0,0.0,0.0,3.7009,4.0358,4.2895,4.4485,4.4553,4.4553,4.4519,4.2117,3.9817,0.0,0.0,0.0,0.0,0.0,0.0,0.0,0.0,0.0,0.0,0.0,0.0,0.0,0.0,0.0,0.0,0.0,0.0,0.0,0.0,0.0,0.0,0.0,0.0,0.0,0.0,0.0,0.0,0.0,0.0,0.0,0.0,0.0,0.0,0.0,0.0,0.0,0.0,0.0,0.0,0.0,3.8903,3.9174,3.8836,0.0,0.0,0.0,0.0,3.7524,3.6947,0.0,0.0,0.0,0.0,0.0,0.0,0.0,0.0,0.0,0.0,0.0,0.0,0.0,0.0,0.0,0.0,0.0,0.0,0.0,0.0,0.0,0.0,0.0,0.0,0.0,0.0,0.0,0.0,0.0,0.0,0.0,0.0,0.0,0.0,0.0,0.0,0.0,0.0,0.0,0.0,0.0,0.0,0.0,0.0,0.0,0.0,0.0,0.0,0.0,0.0,0.0,0.0,0.0,0.0,0.0,0.0,3.7686,4.0121,4.2388,4.4451,4.4553,4.4553,4.4553,4.3572,4.1102,0.0,0.0,0.0,0.0,0.0,0.0,0.0,0.0,0.0,0.0,0.0,0.0,0.0,0.0,0.0,0.0,0.0,0.0,0.0,0.0,0.0,0.0,0.0,0.0,0.0,0.0,0.0,0.0,0.0,0.0,0.0,0.0,0.0,0.0,0.0,0.0,0.0,0.0,0.0,0.0,0.0,4.1339,4.0155,4.046,4.0798,0.0,0.0,3.9709,4.0433,3.9715,0.0,0.0,0.0,0.0,0.0,0.0,0.0,0.0,0.0,0.0,0.0,0.0,0.0,0.0,0.0,0.0,0.0,0.0,0.0,0.0,0.0,0.0,0.0,0.0,0.0,0.0,0.0,0.0,0.0,0.0,0.0,0.0,0.0,0.0,0.0,0.0,0.0,0.0,0.0,0.0,0.0,0.0,0.0,0.0,0.0,0.0,0.0,0.0,0.0,0.0,0.0,0.0,0.0,0.0,0.0,3.4979,3.7889,4.0899,4.3132,4.4519,4.4553,4.4553,4.4553,4.2185,3.9614,0.0,0.0,0.0,0.0,0.0,0.0,0.0,0.0,0.0,0.0,0.0,0.0,0.0,0.0,0.0,0.0,0.0,0.0,0.0,0.0,0.0,0.0,0.0,0.0,0.0,0.0,0.0,0.0,0.0,0.0,0.0,0.0,0.0,0.0,0.0,0.0,0.0,0.0,0.0,0.0,0.0,0.0,4.1373,4.1982,0.0,0.0,0.0,4.1406,4.0833,0.0,0.0,0.0,0.0,0.0,0.0,0.0,0.0,0.0,0.0,0.0,0.0,0.0,0.0,0.0,0.0,0.0,0.0,0.0,0.0,0.0,0.0,0.0,0.0,0.0,0.0,0.0,0.0,0.0,0.0,0.0,0.0,0.0,0.0,0.0,0.0,0.0,0.0,0.0,0.0,0.0,0.0,0.0,0.0,0.0,0.0,0.0,0.0,0.0,0.0,0.0,0.0,0.0,0.0,0.0,0.0,0.0,3.7929,4.173,4.3978,4.4553,4.4553,4.4553,4.4519,4.1474,0.0,0.0,0.0,0.0,0.0,0.0,0.0,0.0,0.0,0.0,0.0,0.0,0.0,0.0,0.0,0.0,0.0,0.0,0.0,0.0,0.0,0.0,0.0,0.0,0.0,0.0,0.0,2.6928,0.0,0.0,0.0,0.0,0.0,0.0,0.0,0.0,0.0,0.0,0.0,0.0,0.0,0.0,4.2455,4.2794,4.3842,4.4212,0.0,0.0,4.2816,4.1572,4.134,4.017,0.0,0.0,0.0,0.0,0.0,0.0,0.0,0.0,0.0,0.0,0.0,0.0,0.0,0.0,0.0,0.0,0.0,0.0,0.0,0.0,0.0,0.0,0.0,0.0,0.0,0.0,0.0,0.0,0.0,0.0,0.0,0.0,0.0,0.0,0.0,0.0,0.0,0.0,0.0,0.0,0.0,0.0,0.0,0.0,0.0,0.0,0.0,0.0,0.0,0.0,0.0,0.0,0.0,0.0,0.0,3.798,4.2294,4.4519,4.4587,4.4553,4.4553,4.4553,4.2963,4.0087,0.0,0.0,0.0,0.0,0.0,0.0,0.0,0.0,0.0,0.0,0.0,0.0,0.0,0.0,0.0,0.0,0.0,0.0,0.0,0.0,0.0,0.0,0.0,0.0,0.0,0.0,0.0,0.0,0.0,0.0,0.0,0.0,0.0,0.0,0.0,0.0,0.0,0.0,0.0,0.0,0.0,4.5162,4.4519,4.6244,4.7435,0.0,0.0,4.3849,4.3552,4.3305,4.182,3.7913,0.0,0.0,0.0,0.0,0.0,0.0,0.0,0.0,0.0,0.0,0.0,0.0,0.0,0.0,0.0,0.0,0.0,0.0,0.0,0.0,0.0,0.0,0.0,0.0,0.0,0.0,0.0,0.0,0.0,0.0,0.0,0.0,0.0,0.0,0.0,0.0,0.0,0.0,0.0,0.0,0.0,0.0,0.0,0.0,0.0,0.0,0.0,0.0,0.0,0.0,0.0,0.0,0.0,3.6593,3.8618,4.3027,4.5286,4.5264,4.5252,4.506,4.4587,4.3538,4.1102,0.0,0.0,0.0,0.0,0.0,0.0,0.0,0.0,0.0,0.0,0.0,0.0,0.0,0.0,0.0,0.0,0.0,0.0,0.0,0.0,0.0,0.0,0.0,0.0,0.0,0.0,0.0,0.0,2.9059,2.9397,2.9837,0.0,0.0,0.0,0.0,0.0,0.0,0.0,0.0,0.0,0.0,4.6075,4.7158,4.8443,0.0,0.0,4.6892,4.6097,4.4874,4.3897,4.2402,3.9679,3.8362,0.0,0.0,0.0,0.0,0.0,0.0,0.0,0.0,0.0,0.0,0.0,0.0,0.0,0.0,0.0,0.0,0.0,0.0,0.0,0.0,0.0,0.0,0.0,0.0,0.0,0.0,0.0,0.0,0.0,0.0,0.0,0.0,0.0,0.0,0.0,0.0,0.0,0.0,0.0,0.0,0.0,0.0,0.0,0.0,0.0,0.0,0.0,0.0,0.0,0.0,0.0,0.0,3.6842,3.935,4.3328,4.549,4.5671,4.549,4.5229,4.4891,4.3944,4.1914,0.0,0.0,0.0,0.0,0.0,0.0,0.0,0.0,0.0,0.0,0.0,0.0,0.0,0.0,0.0,0.0,0.0,0.0,0.0,0.0,0.0,0.0,0.0,0.0,0.0,0.0,0.0,0.0,2.9973,3.0302,3.0851,0.0,0.0,0.0,0.0,0.0,0.0,0.0,0.0,0.0,0.0,4.6766,4.8495,4.936,4.9316,4.7861,4.7542,4.6903,4.5462,4.4526,4.3269,4.1324,0.0,0.0,0.0,0.0,0.0,0.0,0.0,0.0,0.0,0.0,0.0,0.0,0.0,0.0,0.0,0.0,0.0,0.0,0.0,0.0,0.0,0.0,0.0,0.0,0.0,0.0,0.0,2.6725,0.0,0.0,2.6623,0.0,0.0,0.0,0.0,0.0,0.0,0.0,0.0,0.0,0.0,0.0,0.0,0.0,0.0,0.0,0.0,0.0,0.0,0.0,0.0,0.0,0.0,3.7071,4.0031,4.3124,4.5026,4.5713,4.5026,4.4993,4.5635,4.4215,4.2354,4.0087,0.0,0.0,0.0,0.0,0.0,0.0,0.0,0.0,0.0,0.0,0.0,0.0,0.0,0.0,0.0,0.0,0.0,0.0,0.0,0.0,0.0,0.0,0.0,0.0,0.0,0.0,2.9093,2.9702,3.0219,0.0,0.0,0.0,0.0,0.0,0.0,0.0,0.0,0.0,0.0,4.5785,4.7285,4.8051,4.8829,4.9228,4.8817,4.7136,4.5725,4.544,4.5304,4.4586,0.0,0.0,0.0,0.0,0.0,0.0,0.0,0.0,0.0,0.0,0.0,0.0,0.0,0.0,0.0,0.0,0.0,0.0,0.0,0.0,0.0,0.0,0.0,0.0,0.0,0.0,0.0,3.0575,2.9729,0.0,0.0,0.0,0.0,0.0,0.0,0.0,0.0,0.0,0.0,0.0,3.6806,3.8024,0.0,0.0,0.0,0.0,0.0,0.0,0.0,0.0,0.0,0.0,0.0,0.0,3.8381,4.0879,4.4294,4.6413,4.7115,4.594,4.5669,4.638,4.4959,4.2895,4.0155,0.0,0.0,0.0,0.0,0.0,0.0,0.0,0.0,0.0,0.0,0.0,0.0,0.0,0.0,0.0,0.0,0.0,0.0,0.0,0.0,0.0,0.0,0.0,0.0,0.0,2.9905,0.0,0.0,0.0,0.0,0.0,0.0,0.0,0.0,0.0,0.0,0.0,4.3702,4.6717,4.7464,4.8328,5.0064,5.0512,5.0581,0.0,0.0,0.0,0.0,0.0,0.0,0.0,0.0,0.0,0.0,0.0,0.0,0.0,0.0,4.71,4.1444,3.9858,3.9409,3.9379,0.0,0.0,0.0,0.0,0.0,0.0,0.0,0.0,0.0,0.0,0.0,0.0,0.0,0.0,3.3605,0.0,3.2713,0.0,0.0,0.0,0.0,0.0,0.0,0.0,0.0,3.9208,4.0493,4.029,4.1711,4.1542,0.0,4.0121,3.8328,0.0,0.0,0.0,0.0,0.0,0.0,0.0,0.0,3.9648,4.2368,4.5297,4.7124,4.7793,4.6447,4.6075,4.6752,4.5602,4.3944,4.1711,4.0223,3.8058,0.0,0.0,0.0,0.0,0.0,0.0,0.0,0.0,0.0,0.0,0.0,0.0,0.0,0.0,0.0,0.0,0.0,0.0,0.0,0.0,0.0,0.0,0.0,3.1157,0.0,0.0,0.0,0.0,0.0,0.0,0.0,0.0,0.0,4.2301,4.3944,4.6057,4.8965,4.8857,4.9103,5.0746,0.0,0.0,0.0,0.0,0.0,0.0,0.0,4.7578,4.8207,4.7967,4.7818,4.8267,5.0301,5.1768,5.1319,0.0,0.0,4.5843,4.4466,4.4167,4.4167,4.4317,4.4586,4.5005,4.5274,4.5574,0.0,0.0,0.0,0.0,0.0,0.0,0.0,0.0,3.6028,3.5949,0.0,3.5825,0.0,0.0,0.0,0.0,0.0,3.7313,0.0,0.0,4.3572,4.5331,4.4756,4.6075,4.6447,4.5872,4.6413,4.4891,4.1339,3.711,0.0,0.0,0.0,0.0,0.0,0.0,4.0899,4.4384,4.5974,4.7158,4.78,4.6413,4.6007,4.6684,4.6143,4.5432,4.4621,4.32,4.1068,3.8193,3.5893,0.0,0.0,0.0,0.0,0.0,0.0,0.0,0.0,0.0,0.0,0.0,0.0,0.0,0.0,0.0,0.0,0.0,0.0,0.0,0.0,3.1495,0.0,0.0,0.0,0.0,0.0,0.0,0.0,0.0,0.0,0.0,4.5112,4.5939,4.7619,5.0375,0.0,0.0,0.0,0.0,4.9344,4.9524,4.9404,4.9434,4.9434,5.0391,5.096,5.0421,0.0,0.0,5.0601,5.1977,5.2845,5.1618,5.2486,5.3234,5.3084,5.1708,5.096,5.096,5.0361,5.0242,5.0301,5.0421,5.093,4.2591,0.0,0.0,0.0,0.0,4.0054,4.1102,4.2828,4.2828,4.1634,3.9621,3.9581,0.0,0.0,0.0,0.0,0.0,0.0,4.1441,4.3031,4.4891,4.6143,4.6955,4.7394,4.7733,4.8071,4.8274,4.78,4.6718,4.4959,4.073,3.4336,0.0,0.0,0.0,0.0,4.2692,4.3809,4.5771,4.6887,4.709,4.5669,4.5263,4.6007,4.6853,4.6921,4.6177,4.5737,4.4384,4.1914,3.9208,0.0,0.0,0.0,0.0,0.0,0.0,0.0,0.0,0.0,0.0,0.0,0.0,0.0,0.0,0.0,0.0,0.0,0.0,0.0,3.3017,3.3592,3.5013,0.0,0.0,0.0,0.0,0.0,0.0,0.0,0.0,0.0,4.8536,4.9174,4.9951,0.0,0.0,5.0182,5.084,5.078,5.099,5.1947,5.2067,0.0,5.2067,5.1588,5.1468,5.2217,5.3054,5.3653,5.3743,5.4221,5.4491,5.4102,5.4341,5.461,5.4491,5.3144,5.2007,5.1887,5.1768,5.1798,5.2247,5.2516,5.2636,4.8781,4.5906,4.3707,4.3267,4.4045,4.4079,4.5026,4.6549,4.6278,4.5125,4.3404,4.3406,4.1633,3.8667,3.8404,0.0,0.0,0.0,4.3876,4.55,4.6549,4.7496,4.8342,4.8978,4.9424,4.9864,4.9869,4.97,4.9424,4.8984,4.5602,3.9546,0.0,0.0,3.9276,4.2591,4.4891,4.6041,4.7124,4.78,4.8071,4.638,4.5669,4.6143,4.6718,4.709,4.7225,4.7225,4.6481,4.4823,4.2489,3.958,0.0,0.0,0.0,0.0,0.0,0.0,0.0,0.0,0.0,0.0,0.0,3.1968,2.9161,0.0,0.0,0.0,3.2577,3.4709,3.7347,3.8125,0.0,0.0,0.0,0.0,0.0,0.0,0.0,4.8685,4.9127,4.9793,5.1199,5.1787,5.2216,5.2704,5.1997,5.1648,5.2306,0.0,5.2276,5.3054,5.3414,5.3593,5.3563,5.3144,5.3054,5.3832,5.4311,5.47,5.5089,5.5209,5.5209,5.5209,5.5209,5.5209,5.5209,5.4192,5.3384,5.3384,5.3384,5.3533,5.3922,5.3982,5.3982,5.4262,5.3247,4.9187,4.7428,4.7225,4.7158,4.7496,4.8037,4.7361,4.6989,4.6921,4.6887,4.5681,4.3639,4.298,0.0,4.4857,4.5568,4.6244,4.7022,4.8443,4.912,4.9255,5.0604,5.1282,5.1386,5.1358,5.102,5.0405,5.0371,4.9255,4.7124,4.506,4.4282,4.479,4.5635,4.7361,4.9932,4.939,4.9357,4.9864,4.7936,4.6853,4.6786,4.6143,4.6413,4.7767,4.7834,4.753,4.6853,4.5466,4.276,3.8667,0.0,0.0,0.0,0.0,0.0,0.0,0.0,0.0,0.0,0.0,0.0,0.0,0.0,0.0,0.0,3.8125,0.0,4.2455,4.3978,0.0,0.0,0.0,4.8135,5.032,5.0552,5.1057,5.213,0.0,0.0,5.3204,5.3862,5.4281,5.4281,5.3683,5.3503,5.4132,5.3623,5.3294,5.3414,5.3892,5.4281,5.4311,5.467,5.497,5.5059,5.5209,5.5179,5.5179,5.5209,5.5209,5.5209,5.5209,5.5209,5.5209,5.5089,5.5179,5.5089,5.5119,5.5149,5.5089,5.5089,5.5059,5.5006,5.4296,5.3788,5.2604,5.0947,5.0405,4.9932,4.956,4.939,4.8686,4.7652,4.7673,4.7031,4.6001,4.5814,4.6244,4.7124,4.7327,4.7767,4.8511,4.9424,5.0135,5.071,5.1589,5.2334,5.2942,5.2909,5.2909,5.2706,5.2706,5.1826,5.0202,4.9627,4.8308,4.6413,4.8105,4.912,4.9255,4.9627,4.939,4.8443,4.7902,4.7394,4.6786,4.6616,4.6684,4.7056,4.7056,4.7259,4.7597,4.6244,4.4688,4.3031,3.8531,0.0,0.0,0.0,0.0,0.0,0.0,0.0,0.0,0.0,3.8971,3.3558,0.0,4.1102,0.0,4.1914,4.3944,4.5568,4.6583,0.0,0.0,5.2232,5.3213,5.6443,5.5544,5.476,5.4751,5.4968,5.4844,5.4021,5.4551,5.497,5.494,5.4401,5.4012,5.4192,5.4072,5.4162,5.4581,5.482,5.497,5.494,5.5089,5.5209,5.5209,5.5209,5.5209,5.5209,5.5209,5.5209,5.5209,5.5209,5.5209,5.5209,5.5209,5.5209,5.5209,5.5209,5.5209,5.5209,5.5209,5.5209,5.6427,5.6055,5.6156,5.5446,5.4228,5.3179,5.23,5.1589,5.1217,5.0473,4.9362,4.9024,4.845,4.78,4.7767,4.8003,4.8376,4.8409,4.8612,4.9052,5.0101,5.0811,5.1251,5.2334,5.3078,5.3518,5.3518,5.3518,5.3518,5.3518,5.3078,5.2232,5.2232,5.142,4.9864,5.0338,5.071,5.098,5.1048,5.0371,4.8951,4.8578,4.8037,4.7327,4.6955,4.665,4.6312,4.6616,4.6819,4.6921,4.6161,4.5216,4.4079,4.0688,3.8235,0.0,0.0,0.0,0.0,0.0,0.0,0.0,0.0,0.0,0.0,0.0,4.4215,4.3741,4.665,4.9154,5.0642,5.2029,5.3991,5.6765,5.6664,5.7156,5.9064,5.827,5.7264,5.6341,5.6402,5.5958,5.484,5.497,5.5209,5.5179,5.488,5.464,5.464,5.464,5.479,5.5119,5.5209,5.5209,5.5209,5.5209,5.5209,5.5209,5.5209,5.5209,5.5209,5.5209,5.5209,5.5209,5.5209,5.5209,5.5209,5.5209,5.5209,5.5209,5.5209,5.5209,5.5209,5.5209,5.5209,5.7881,5.7814,5.7205,5.6934,5.6833,5.5547,5.4499,5.3585,5.2672,5.1891,5.1176,5.0511,4.9902,4.9289,4.9289,4.9289,4.9289,4.939,4.9424,4.9526,5.0947,5.1657,5.1725,5.3112,5.3754,5.3788,5.3788,5.3687,5.355,5.3619,5.3551,5.3415,5.345,5.3518,5.345,5.2164,5.2164,5.345,5.2807,5.1792,5.0405,4.9763,4.8984,4.8105,4.7327,4.6549,4.5771,4.6312,4.6413,4.5906,4.5942,4.5412,4.4159,4.2532,4.1329,0.0,3.914,0.0,0.0,0.0,0.0,0.0,0.0,0.0,0.0,4.6684,4.7361,4.7868,5.1826,5.4837,5.6021,5.7949,5.9438,6.0148,6.025,6.0135,5.9893,5.9911,5.9186,5.7465,5.7245,5.6704,5.5451,5.5209,5.5209,5.5179,5.5179,5.5119,5.5179,5.5149,5.5149,5.5209,5.5209,5.5209,5.5209,5.5209,5.5209,5.5209,5.5209,5.5209,5.5209,5.5209,5.5209,5.5209,5.5209,5.5209,5.5209,5.5209,5.5209,5.5209,5.5209,5.5209,5.5209,5.5209,5.5209,5.7881,5.7881,5.7746,5.7679,5.7645,5.7374,5.6156,5.4296,5.2909,5.1894,5.1183,5.1082,5.0947,5.0811,5.0811,5.0811,5.0845,5.142,5.1657,5.1758,5.3247,5.3957,5.3991,5.4907,5.5245,5.5277,5.5314,5.4828,5.3964,5.4253,5.3914,5.303,5.331,5.3518,5.3484,0.0,0.0,0.0,5.3348,5.2841,5.1928,5.1758,5.0744,4.8849,4.8105,0.0,4.5805,4.5838,4.6109,4.6583,4.7166,0.0,0.0,0.0,0.0,0.0,0.0,0.0,0.0,0.0,0.0,0.0,4.9323,4.8815,4.7767,5.1928,5.4532,5.416,5.6968,5.8727,5.8423,5.9268,6.0216,6.096,6.1061,6.1288,6.1807,6.1828,6.0986,5.878,5.8451,5.7621,5.5551,5.5209,5.5209,5.5209,5.5209,5.5209,5.5209,5.5209,5.5209,5.5209,5.5209,5.5209,5.5209,5.5209,5.5209,5.5209,5.5209,5.5209,5.5209,5.5209,5.5209,5.5209,5.5209,5.5209,5.5209,5.5209,5.5209,5.5209,5.5209,5.5209,5.5209,5.5209,5.5209,5.8191,5.7881,5.7881,5.7881,0.0,5.7881,5.7273,5.6122,5.504,5.3687,5.2367,5.2367,5.1928,5.1217,5.1217,5.1217,5.1251,5.1961,5.23,5.2401,5.389,5.46,5.46,5.5346,5.5719,5.5646,5.5107,5.4557,5.3987,5.3593,5.3203,5.2637,5.2515,5.2481,5.2481,5.2653,5.2939,5.3518,5.3518,5.3315,5.2909,5.2503,5.1623,5.0168,4.939,0.0,0.0,0.0,0.0,0.0,0.0,0.0,0.0,0.0,0.0,4.7166,4.6921,4.6853,4.7259,4.8714,5.0541,5.2706,5.389,5.3721,5.1928,5.5175,5.734,5.7408,5.9404,6.0554,6.0216,6.0791,6.14,6.1772,6.1839,6.1818,6.1609,6.203,6.1201,5.86,5.8451,5.79,5.5551,5.5209,5.5209,5.5209,5.5209,5.5209,5.5209,5.5209,5.5209,5.5209,5.5209,5.5209,5.5209,5.5209,5.5209,5.5209,5.5209,5.5209,5.5209,5.5209,5.5209,5.5209,5.5209,5.5209,5.5209,5.5209,5.5209,5.5209,5.5209,5.5209,5.5209,5.5209,5.5209,5.8739,5.8084,5.8084,5.7983,5.7881,5.7881,5.7881,5.7848,0.0,0.0,0.0,5.3754,5.2976,5.1826,5.1691,5.1623,5.1691,5.2503,5.2909,5.2976,5.4465,5.5175,5.5209,5.5579,5.5812,5.5732,5.463,5.4002,5.3812,5.2941,5.2394,5.2168,5.1806,5.1581,5.1655,5.1941,5.2516,5.345,5.3518,5.3518,5.3484,5.2875,5.2164,5.142,5.0676,4.9661,4.8376,4.8308,4.7733,4.6549,4.6615,4.7255,4.8382,4.8576,4.9516,5.122,5.2232,5.2706,5.2739,5.3551,5.4465,5.531,5.7036,5.7509,5.619,5.7577,5.8727,5.937,6.0689,6.1501,6.1501,6.2009,6.2415,6.2415,6.2415,6.203,6.1119,6.1595,6.087,5.8053,5.7993,5.7621,5.5551,5.5209,5.5209,5.5209,5.5209,5.5209,5.5209,5.5209,5.5209,5.5209,5.5209,5.5209,5.5209,5.5209,5.5209,5.5209,5.5209,5.5209,5.5209,5.5209,5.5209,5.5209,5.5209,5.5209,5.5209,5.5209,5.5209,5.5209,5.5209,5.5209,5.5209,5.5209,5.5209,5.9478,5.8829,5.8863,5.849,5.7881,5.7881,5.7881,5.7814,5.7137,5.6292,5.5378,5.4702,5.4329,5.4093,5.3484,5.3179,5.3281,5.46,5.5243,5.531,5.6765,5.7408,5.7374,5.6583,5.6144,5.6062,5.5037,5.4041,5.3138,5.3196,5.2827,5.2005,5.2099,5.2345,5.2637,5.2729,5.3014,5.345,5.3518,5.3518,5.3518,5.3416,5.2976,5.2164,5.142,5.0676,4.983,4.9763,4.9695,4.9492,5.0071,5.0511,5.0744,5.1321,5.1828,5.2198,5.3484,5.4262,5.4296,5.5547,5.6934,5.8254,5.8693,5.849,5.7746,5.9573,6.0858,6.1028,6.1738,6.2245,6.2245,6.2313,6.2302,6.2302,6.2381,6.2302,6.1951,6.1317,6.0247,5.8632,5.7714,5.68,5.5551,5.5209,5.5209,5.5209,5.5209,5.5209,5.5209,5.5209,5.5209,5.5209,5.5209,5.5209,5.5209,5.5209,5.5209,5.5209,5.5209,5.5209,5.5209,5.5209,5.5209,5.5209,5.5209,5.5209,5.5209,5.5209,5.5209,5.5209,5.5209,5.5209,5.5209,5.5209,5.5209,6.0275,5.9641,5.9607,5.9404,5.9066,5.866,5.849,5.8423,5.7712,5.7002,5.6258,5.5513,5.4972,5.4532,5.3822,5.3721,5.416,5.5209,5.5953,5.6393,5.7408,5.7881,5.7814,5.6713,5.6526,5.693,5.4751,5.3715,5.3742,5.2766,5.1966,5.1485,5.126,5.1381,5.1789,5.2391,5.3029,5.3723,5.3582,5.3518,5.3518,5.3518,5.3078,5.2094,5.1393,5.086,5.0493,5.0126,5.0291,5.1251,5.1623,5.2198,5.301,5.3348,5.3721,5.416,5.5175,5.5784,5.5784,5.7171,5.8287,5.8998,5.981,5.9852,5.8831,6.0348,6.1467,6.1839,6.2212,6.2415,6.2381,6.1837,6.1399,6.1399,6.087,6.0417,6.0417,5.9957,5.917,5.7993,5.7339,5.6541,5.5381,5.5209,5.5209,5.5209,5.5209,5.5209,5.5209,5.5209,5.5209,5.5209,5.5209,5.5209,5.5209,5.5209,5.5209,5.5209,5.5209,5.5209,5.5209,5.5209,5.5209,5.5209,5.5209,5.5209,5.5209,5.5209,5.5209,5.5209,5.5209,5.5209,5.5209,5.5209,5.5209,6.1042,6.0385,6.0385,6.0283,6.0047,5.9505,5.9201,5.8964,5.8389,5.7746,5.7002,5.6292,5.5615,5.504,5.4329,5.4329,5.4905,5.5615,5.6258,5.6833,5.7543,5.7881,5.7746,5.6471,5.6285,5.6711,5.3994,5.2939,5.3483,5.2063,5.1229,5.1169,5.069,5.0638,5.1017,5.1915,5.2877,5.3922,5.3766,5.3752,5.3991,5.3752,5.3198,5.2455,5.1532,5.1165,5.1132,5.0569,5.1036,5.2538,5.2673,5.3211,5.4354,5.4589,5.4888,5.5241,5.613,5.6707,5.6942,5.795,5.8757,5.9093,6.0169,6.0558,5.9895,6.0322,6.0959,6.1494,6.1756,6.1837,6.148,6.0787,6.0161,6.0161,5.9346,5.8992,5.8812,5.8542,5.8085,5.7181,5.68,5.6183,5.5451,5.5209,5.5209,5.5209,5.5209,5.5209,5.5209,5.5209,5.5209,5.5209,5.5209,5.5209,5.5209,5.5209,5.5209,5.5209,5.5209,5.5209,5.5209,5.5209,5.5209,5.5209,5.5209,5.5209,5.5209,5.5209,5.5209,5.5209,5.5209,5.5209,5.5209,5.5209,5.5209,6.1873,6.1231,6.1197,6.0757,6.0182,6.0047,5.9641,5.9099,5.893,5.849,5.7712,5.7002,5.663,5.6532,5.575,5.5513,5.5649,5.6359,5.6731,5.69,5.7543,5.7881,5.764,5.5755,5.482,5.468,5.2576,5.159,5.1789,5.1386,5.1229,5.1229,5.1139,5.1303,5.1647,5.1816,5.2574,5.3987,5.4006,5.4449,5.5373,5.4522,5.394,5.3865,5.2741,5.2157,5.1997,5.2093,5.2611,5.3733,5.3775,5.3874,5.4179,5.4665,5.4645,5.3874,5.5319,5.648,5.7107,5.745,5.8111,5.93,5.9564,5.9911,6.022,5.9599,5.9073,5.9258,6.0161,6.0332,5.9258,5.9081,5.8992,5.8992,5.8722,5.8812,5.8542,5.7807,5.7055,5.7086,5.6085,5.528,5.528,5.5209,5.5209,5.5209,5.5269,5.5269,5.5209,5.5269,5.5239,5.5209,5.5209,5.5209,5.5209,5.5209,5.5209,5.5209,5.5209,5.5209,5.5209,5.5209,5.5209,5.5209,5.5209,5.5209,5.5209,5.5209,5.5209,5.5209,5.5209,5.5209,5.5209,5.5209,5.5209,6.2212,6.1941,6.1941,6.1772,6.1434,6.0994,6.0655,6.0317,5.9404,5.8835,5.8468,5.7785,5.7239,5.6795,5.6018,5.5953,5.6359,5.6664,5.7036,5.7335,5.7089,5.7222,5.7606,5.4935,5.426,5.5166,5.2598,5.1574,5.1941,5.1572,5.1229,5.1229,5.1229,5.1266,5.1486,5.2086,5.2746,5.3311,5.4051,5.4612,5.4939,5.4339,5.3727,5.3078,5.2041,5.1414,5.1382,5.1414,5.2394,5.4394,5.4072,5.4189,5.5205,5.4952,5.4632,5.4287,5.5228,5.5992,5.6201,5.7093,5.7838,5.8421,5.8842,5.8968,5.8568,5.8632,5.8268,5.7181,5.8451,5.9258,5.8812,5.8177,5.7714,5.7621,5.7086,5.6735,5.6638,5.628,5.5888,5.5918,5.5551,5.5209,5.5209,5.5209,5.5209,5.5269,5.5478,5.5628,5.5329,5.5508,5.5568,5.5299,5.5209,5.5209,5.5209,5.5209,5.5209,5.5209,5.5209,5.5209,5.5209,5.5209,5.5209,5.5209,5.5209,5.5209,5.5209,5.5209,5.5209,5.5209,5.5209,5.5209,5.5209,5.5209,5.5209,6.2415,6.2415,6.2415,6.2415,6.2347,6.1839,6.1467,6.1197,6.0114,5.9553,5.9191,5.8496,5.7876,5.7369,5.6664,5.663,5.707,5.7103,5.7374,5.7775,5.7039,5.6963,5.7171,5.5062,5.4283,5.4744,5.2849,5.1908,5.2336,5.1635,5.1229,5.1229,5.1229,5.1229,5.1293,5.2063,5.2575,5.2958,5.3742,5.4253,5.4429,5.3971,5.3375,5.2562,5.1499,5.0923,5.0923,5.0923,5.1974,5.4358,5.3738,5.3879,5.515,5.4749,5.4464,5.4686,5.4869,5.5159,5.5613,5.6652,5.7286,5.7507,5.8015,5.79,5.7339,5.7527,5.7022,5.572,5.6831,5.7807,5.7746,5.6991,5.6541,5.6445,5.562,5.5209,5.528,5.5209,5.528,5.5209,5.528,5.5209,5.5209,5.5209,5.5239,5.5508,5.5867,5.6166,5.5837,5.6107,5.6196,5.5568,5.5478,5.5388,5.5239,5.5209,5.5209,5.5209,5.5209,5.5209,5.5209,5.5209,5.5209,5.5209,5.5209,5.5209,5.5209,5.5209,5.5209,5.5209,5.5209,5.5209,5.5209,5.5209,5.5209,6.2415,6.2415,6.2415,6.2415,6.2381,6.2313,6.1941,6.1366,6.1163,6.0782,6.0018,5.9282,5.8903,5.8778,5.8022,5.778,5.7814,5.778,5.7814,5.7881,5.7701,5.7222,5.6327,5.6096,5.4992,5.3396,5.2887,5.2115,5.1416,5.1229,5.1229,5.1229,5.1229,5.1229,5.1229,5.1293,5.1819,5.2723,5.29,5.3427,5.4253,5.3475,5.289,5.2714,5.1759,5.1206,5.1143,5.1173,5.1789,5.3015,5.2984,5.2927,5.3139,5.361,5.4171,5.4637,5.3918,5.4127,5.5533,5.6031,5.6341,5.6869,5.7024,5.7086,5.68,5.6183,5.5551,5.5179,5.5481,5.5651,5.5651,5.5651,5.5451,5.5481,5.528,5.5209,5.5209,5.5209,5.5209,5.5209,5.5209,5.5209,5.5209,5.5209,5.5478,5.5867,5.6137,5.6316,5.6765,5.6974,5.6795,5.6346,5.6077,5.5927,5.5388,5.5209,5.5209,5.5209,5.5209,5.5209,5.5209,5.5209,5.5209,5.5209,5.5209,5.5209,5.5209,5.5209,5.5209,5.5209,5.5209,5.5209,5.5209,5.5209,5.5209,6.2415,6.2415,6.2415,6.2415,6.2415,6.2415,6.2212,6.1975,6.1501,6.1129,6.0757,6.0047,5.9411,5.9021,5.8733,5.8355,5.7915,5.7881,5.7881,5.7808,5.7147,5.6624,5.6126,5.48,5.3782,5.2962,5.2154,5.1656,5.1259,5.1229,5.1229,5.1229,5.1229,5.1229,5.1229,5.1229,5.1479,5.1727,5.1819,5.2063,5.2395,5.1972,5.1789,5.1819,5.1386,5.1229,5.1229,5.1229,5.1727,5.2812,5.2245,5.2337,5.3402,5.3498,5.3546,5.3819,5.3886,5.4119,5.4752,5.5243,5.5546,5.5789,5.5819,5.5918,5.5819,5.5451,5.5209,5.5209,5.5209,5.5209,5.5209,5.5209,5.5209,5.5209,5.5209,5.5209,5.5209,5.5209,5.5209,5.5209,5.5209,5.5209,5.5239,5.5209,5.5448,5.6047,5.6526,5.6855,5.7094,5.7423,5.7513,5.6944,5.6765,5.6675,5.6496,5.5628,5.5209,5.5209,5.5209,5.5239,5.5269,5.5359,5.5388,5.5359,5.5329,5.5359,5.5418,5.5329,5.5299,5.5209,5.5209,5.5209,5.5209,5.5209,5.5209,6.2415,6.2415,6.2415,6.2415,6.2381,6.1951,6.1837,6.1723,6.0898,6.0679,6.0875,6.0225,5.96,5.9187,5.8897,5.8538,5.8043,5.7971,5.7881,5.7808,5.6701,5.6336,5.6203,5.4442,5.3404,5.3063,5.1787,5.1229,5.1229,5.1229,5.1229,5.1229,5.1229,5.1229,5.1229,5.1229,5.1229,5.1229,5.1229,5.1229,5.1229,5.1229,5.1229,5.1229,5.1229,5.1229,5.1229,5.1229,5.1572,5.2154,5.1816,5.2265,5.3741,5.3718,5.3623,5.3832,5.4251,5.4521,5.4551,5.494,5.5179,5.5209,5.5179,5.5209,5.5209,5.5209,5.5209,5.5209,5.5209,5.5209,5.5209,5.5209,5.5209,5.5209,5.5209,5.5209,5.5209,5.5209,5.5209,5.5209,5.5209,5.5269,5.5448,5.5508,5.5957,5.6675,5.7184,5.7453,5.7752,5.8082,5.8082,5.7304,5.7064,5.6885,5.6645,5.5927,5.5927,5.5957,5.5897,5.5748,5.5658,5.5688,5.5628,5.5568,5.5568,5.5628,5.5598,5.5508,5.5418,5.5299,5.5209,5.5209,5.5209,5.5209,5.5269,6.2415,6.2381,6.2381,6.2302,6.203,6.1036,6.0619,6.0417,5.9402,5.9618,6.0317,5.9827,5.9357,5.9263,5.8558,5.8264,5.8224,5.7916,5.7864,5.7938,5.69,5.6652,5.7084,5.5325,5.413,5.3711,5.209,5.1319,5.1409,5.1439,5.1439,5.1319,5.1409,5.1498,5.1289,5.1439,5.1349,5.1379,5.1439,5.1379,5.1259,5.1379,5.1439,5.1379,5.1379,5.1409,5.1349,5.1319,5.1319,5.1443,5.1887,5.2815,5.3931,5.4162,5.4461,5.491,5.5149,5.5149,5.5149,5.5179,5.5209,5.5209,5.5209,5.5209,5.5209,5.5209,5.5209,5.5209,5.5209,5.5209,5.5209,5.5209,5.5209,5.5209,5.5209,5.5209,5.5209,5.5209,5.5209,5.5269,5.5299,5.5508,5.5957,5.6166,5.6615,5.7543,5.7962,5.8141,5.853,5.88,5.8441,5.7513,5.7214,5.7244,5.6735,5.6256,5.6645,5.6915,5.6825,5.6735,5.6585,5.6555,5.6376,5.6286,5.6376,5.6406,5.6226,5.6107,5.5837,5.5688,5.5478,5.5388,5.5448,5.5508,5.5448,6.2415,6.2302,6.148,6.1152,6.1036,5.987,5.9346,5.9346,5.8902,5.9009,5.9253,5.9079,5.8759,5.8332,5.7956,5.8008,5.8183,5.7446,5.78,5.8916,5.8117,5.7348,5.6743,5.5474,5.4329,5.352,5.2858,5.2546,5.2546,5.2546,5.2576,5.2576,5.2546,5.2576,5.2516,5.2546,5.2612,5.2617,5.2612,5.2612,5.2617,5.2612,5.2546,5.2576,5.2576,5.2576,5.2546,5.2127,5.1917,5.1917,5.2516,5.3294,5.4072,5.464,5.497,5.5149,5.5209,5.5209,5.5209,5.5209,5.5209,5.5209,5.5209,5.5209,5.5209,5.5209,5.5209,5.5209,5.5209,5.5209,5.5209,5.5209,5.5209,5.5209,5.5209,5.5209,5.5269,5.5239,5.5418,5.5777,5.5867,5.6166,5.6615,5.6795,5.7184,5.7962,5.8171,5.8321,5.8441,5.883,5.856,5.7423,5.7513,5.7573,5.7184,5.7094,5.7483,5.7663,5.7633,5.7543,5.7453,5.7363,5.7154,5.7064,5.7154,5.7064,5.6885,5.6705,5.6466,5.6286,5.6226,5.6107,5.5957,5.5957,5.5987,6.211,6.1642,6.0953,6.0332,5.9784,5.8632,5.8177,5.8085,5.7621,5.7715,5.806,5.8119,5.7932,5.7527,5.7428,5.7618,5.7731,5.6994,5.7698,5.9152,5.8298,5.7683,5.7367,5.605,5.4541,5.3368,5.3174,5.3174,5.3174,5.3174,5.3174,5.3174,5.3174,5.3144,5.3174,5.3174,5.3181,5.3158,5.3151,5.3174,5.3241,5.3144,5.3174,5.3174,5.3174,5.3174,5.3144,5.2995,5.2815,5.2725,5.3204,5.3862,5.4521,5.497,5.5209,5.5209,5.5209,5.5209,5.5209,5.5209,5.5209,5.5209,5.5209,5.5209,5.5209,5.5209,5.5209,5.5209,5.5209,5.5209,5.5209,5.5209,5.5209,5.5209,5.5209,5.5299,5.5478,5.5568,5.5837,5.6316,5.6496,5.6825,5.7274,5.7483,5.7752,5.8321,5.8501,5.8321,5.8291,5.8471,5.7872,5.7393,5.7274,5.7393,5.7663,5.7932,5.8321,5.8411,5.8381,5.8261,5.8171,5.8171,5.8052,5.7932,5.7962,5.7693,5.7483,5.7483,5.7334,5.7184,5.6885,5.6705,5.6555,5.6675,5.6705,6.1676,6.067,6.0501,5.9697,5.8632,5.7434,5.6896,5.6704,5.5819,5.5983,5.6716,5.6915,5.6879,5.6915,5.6761,5.6931,5.6929,5.6805,5.7494,5.8211,5.7628,5.7451,5.8075,5.6557,5.4962,5.3729,5.3443,5.3414,5.3503,5.3503,5.3294,5.3443,5.3503,5.3324,5.3503,5.3324,5.3481,5.3518,5.3451,5.3405,5.3426,5.3375,5.3384,5.3414,5.3443,5.3443,5.3563,5.3922,5.3922,5.3473,5.3952,5.4521,5.5029,5.5209,5.5209,5.5209,5.5209,5.5209,5.5209,5.5209,5.5209,5.5209,5.5209,5.5209,5.5209,5.5209,5.5209,5.5209,5.5209,5.5209,5.5209,5.5209,5.5209,5.5269,5.5359,5.5568,5.6047,5.6166,5.6496,5.7004,5.7184,5.7423,5.8052,5.8171,5.8471,5.883,5.9009,5.871,5.8351,5.8141,5.7543,5.7304,5.7214,5.7483,5.7812,5.7932,5.8351,5.874,5.877,5.874,5.868,5.871,5.874,5.865,5.853,5.8261,5.8171,5.8141,5.7902,5.7513,5.7304,5.7184,5.7244,5.7393,5.7423,6.1676,6.0501,5.961,5.8542,5.7339,5.6183,5.575,5.5651,5.5381,5.54,5.5691,5.5641,5.5771,5.5722,5.5771,5.6085,5.6541,5.6085,5.6927,5.8296,5.7493,5.6621,5.633,5.5841,5.5189,5.461,5.4521,5.467,5.467,5.4551,5.4581,5.467,5.4551,5.461,5.467,5.4581,5.464,5.471,5.461,5.464,5.467,5.464,5.467,5.467,5.461,5.461,5.464,5.482,5.488,5.47,5.482,5.4999,5.5179,5.5209,5.5209,5.5209,5.5209,5.5209,5.5209,5.5209,5.5209,5.5209,5.5209,5.5209,5.5209,5.5209,5.5209,5.5209,5.5209,5.5209,5.5209,5.5209,5.5388,5.5837,5.5897,5.6017,5.6256,5.6585,5.7094,5.7693,5.7842,5.8171,5.859,5.88,5.886,5.9039,5.9069,5.889,5.8411,5.8381,5.8052,5.7573,5.7453,5.7723,5.7962,5.8052,5.8351,5.889,5.9009,5.8979,5.8949,5.8949,5.9009,5.9009,5.886,5.865,5.877,5.883,5.8381,5.7902,5.8112,5.8171,5.8112,5.8171,5.8171,6.1399,5.9816,5.9081,5.7807,5.628,5.5481,5.5209,5.5209,5.5209,5.5209,5.5209,5.5209,5.5209,5.5209,5.5179,5.5551,5.6085,5.5551,5.5986,5.6831,5.6511,5.6152,5.5918,5.5551,5.5209,5.5209,5.5209,5.5179,5.5149,5.5209,5.5209,5.5149,5.5209,5.5209,5.5119,5.5209,5.5209,5.5179,5.5209,5.5209,5.5209,5.5209,5.5179,5.5179,5.5209,5.5209,5.5179,5.5179,5.5209,5.5179,5.5179,5.5209,5.5209,5.5209,5.5209,5.5209,5.5209,5.5209,5.5209,5.5209,5.5209,5.5209,5.5209,5.5209,5.5209,5.5209,5.5209,5.5209,5.5209,5.5209,5.5209,5.5209,5.5508,5.6017,5.6406,5.6675,5.6944,5.7334,5.7812,5.8291,5.856,5.865,5.9069,5.9099,5.9099,5.9099,5.9099,5.874,5.8321,5.856,5.853,5.7902,5.7723,5.7992,5.8231,5.8351,5.8501,5.9009,5.9099,5.9099,5.9099,5.9099,5.9099,5.9099,5.9099,5.9207,5.9315,5.9177,5.889,5.871,5.9009,5.8979,5.88,5.865,5.868,6.0953,5.8812,5.8812,5.7371,5.5451,5.5179,5.5209,5.5209,5.5209,5.5209,5.5209,5.5209,5.5209,5.5209,5.5209,5.5179,5.528,5.528,5.528,5.5451,5.5451,5.575,5.628,5.5551,5.5179,5.5209,5.5209,5.5209,5.5209,5.5209,5.5209,5.5209,5.5209,5.5209,5.5209,5.5209,5.5209,5.5209,5.5209,5.5209,5.5209,5.5209,5.5209,5.5209,5.5209,5.5209,5.5209,5.5209,5.5209,5.5209,5.5209,5.5209,5.5209,5.5209,5.5209,5.5209,5.5209,5.5209,5.5209,5.5209,5.5209,5.5209,5.5209,5.5209,5.5209,5.5209,5.5209,5.5209,5.5209,5.5239,5.5388,5.5329,5.5777,5.6436,5.6974,5.7483,5.8022,5.8231,5.8471,5.8979,5.9099,5.9099,5.9099,5.9099,5.9099,5.9099,5.9099,5.889,5.859,5.865,5.8441,5.7962,5.7992,5.8231,5.8501,5.871,5.886,5.9099,5.9099,5.9099,5.9099,5.9099,5.9099,5.9099,5.9099,5.9285,5.9683,5.9576,5.9147,5.9255,5.9439,5.9285,5.9069,5.8949,5.8919,6.0953,5.8812,5.8812,5.7371,5.5381,5.5209,5.5209,5.5209,5.5209,5.5209,5.5209,5.5209,5.5209,5.5209,5.5209,5.5209,5.5209,5.5209,5.5209,5.5209,5.5209,5.528,5.5651,5.528,5.5179,5.5209,5.5209,5.5209,5.5209,5.5209,5.5209,5.5209,5.5209,5.5209,5.5209,5.5209,5.5209,5.5209,5.5209,5.5209,5.5209,5.5209,5.5209,5.5209,5.5209,5.5209,5.5209,5.5209,5.5209,5.5209,5.5209,5.5209,5.5209,5.5209,5.5209,5.5209,5.5209,5.5209,5.5209,5.5209,5.5209,5.5209,5.5209,5.5209,5.5209,5.5209,5.5209,5.5209,5.5209,5.5448,5.5867,5.5957,5.6496,5.7274,5.7723,5.8112,5.871,5.886,5.8949,5.9039,5.9099,5.9099,5.9099,5.9099,5.9099,5.9099,5.9069,5.9039,5.8919,5.88,5.856,5.8231,5.8411,5.865,5.871,5.889,5.8979,5.9099,5.9099,5.9099,5.9099,5.9099,5.9099,5.9099,5.9099,5.9392,5.9683,5.9576,5.9177,5.9469,5.9652,5.9392,5.9099,5.9099,5.9099,6.0953,5.8812,5.8812,5.7371,5.5381,5.5209,5.5209,5.5209,5.5209,5.5209,5.5209,5.5209,5.5209,5.5209,5.5209,5.5209,5.5209,5.5209,5.5209,5.5209,5.5209,5.5209,5.5209,5.5209,5.5209,5.5209,5.5209,5.5209,5.5209,5.5209,5.5209,5.5209,5.5209,5.5209,5.5209,5.5209,5.5209,5.5209,5.5209,5.5209,5.5209,5.5209,5.5209,5.5209,5.5209,5.5209,5.5209,5.5209,5.5209,5.5209,5.5209,5.5209,5.5209,5.5209,5.5209,5.5209,5.5209,5.5209,5.5209,5.5209,5.5209,5.5209,5.5209,5.5209,5.5209,5.5209,5.5209,5.5269,5.5508,5.5927,5.6526,5.6615,5.7184,5.7812,5.8141,5.8411,5.8949,5.9099,5.9099,5.9099,5.9099,5.9099,5.9099,5.9099,5.9099,5.9099,5.9099,5.9069,5.9069,5.8979,5.9009,5.886,5.8949,5.9039,5.9039,5.9069,5.9039,5.9099,5.9099,5.9099,5.9099,5.9099,5.9099,5.9099,5.9099,5.9207,5.9392,5.9285,5.9207,5.9392,5.9392,5.9207,5.9315,5.9576,5.9499,6.0703,5.8542,5.8542,5.7276,5.5381,5.5209,5.5209,5.5209,5.5209,5.5209,5.5209,5.5209,5.5209,5.5209,5.5209,5.5209,5.5209,5.5209,5.5209,5.5209,5.5209,5.5209,5.5209,5.5209,5.5209,5.5209,5.5209,5.5209,5.5209,5.5209,5.5209,5.5209,5.5209,5.5209,5.5209,5.5209,5.5209,5.5209,5.5209,5.5209,5.5209,5.5209,5.5209,5.5209,5.5209,5.5209,5.5209,5.5209,5.5209,5.5209,5.5209,5.5209,5.5209,5.5209,5.5209,5.5209,5.5209,5.5209,5.5209,5.5209,5.5209,5.5209,5.5209,5.5209,5.5209,5.5359,5.5448,5.5598,5.5927,5.6762,5.7437,5.7348,5.7783,5.8429,5.8504,5.853,5.8919,5.9099,5.9099,5.9099,5.9099,5.9099,5.9099,5.9099,5.9099,5.9099,5.9099,5.9099,5.9099,5.9099,5.9099,5.9099,5.9099,5.9099,5.9099,5.9099,5.9099,5.9099,5.9099,5.9099,5.9207,5.9683,5.9683,5.9207,5.9099,5.9285,5.9392,5.9392,5.9285,5.9285,5.9285,5.9285,5.9683,6.015,5.9864,5.9522,5.7245,5.7245,5.6445,5.528,5.5209,5.5209,5.5209,5.5209,5.5209,5.5209,5.5209,5.5209,5.5209,5.5209,5.5209,5.5209,5.5209,5.5209,5.5209,5.5209,5.5209,5.5209,5.5209,5.5209,5.5209,5.5209,5.5209,5.5209,5.5209,5.5209,5.5209,5.5209,5.5209,5.5209,5.5209,5.5209,5.5209,5.5209,5.5209,5.5209,5.5209,5.5209,5.5209,5.5209,5.5209,5.5209,5.5209,5.5209,5.5209,5.5209,5.5209,5.5209,5.5209,5.5209,5.5209,5.5209,5.5209,5.5209,5.5209,5.5209,5.5209,5.5269,5.5269,5.5388,5.5718,5.6089,5.6432,5.6822,5.76,5.9408,5.8607,5.8805,5.9544,5.9441,5.8919,5.9069,5.9099,5.9099,5.9099,5.9099,5.9099,5.9099,5.9099,5.9099,5.9099,5.9099,5.9099,5.9099,5.9099,5.9099,5.9099,5.9099,5.9099,5.9099,5.9099,5.9099,5.9099,5.9099,5.9099,5.9392,6.0255,6.0328,5.9499,5.9392,5.9758,5.9652,5.9576,5.9895,6.018,5.9895,5.9499,6.0045,6.0609,6.0255,5.86,5.7086,5.6991,5.625,5.528,5.5209,5.5209,5.5209,5.5209,5.5209,5.5209,5.5209,5.5209,5.5209,5.5209,5.5209,5.5209,5.5209,5.5209,5.5209,5.5209,5.5209,5.5209,5.5209,5.5209,5.5209,5.5209,5.5209,5.5209,5.5209,5.5209,5.5209,5.5209,5.5209,5.5209,5.5209,5.5209,5.5209,5.5209,5.5209,5.5209,5.5209,5.5209,5.5209,5.5209,5.5209,5.5209,5.5209,5.5209,5.5209,5.5209,5.5209,5.5209,5.5209,5.5209,5.5209,5.5209,5.5209,5.5209,5.5209,5.5329,5.5688,5.5688,5.5867,5.6137,5.6599,5.7075,5.7819,5.7543,5.8473,6.0259,5.9348,5.9274,5.9562,5.9499,5.9207,5.9099,5.9099,5.9099,5.9099,5.9099,5.9099,5.9099,5.9099,5.9099,5.9099,5.9099,5.9099,5.9099,5.9099,5.9099,5.9099,5.9099,5.9099,5.9099,5.9099,5.9099,5.9099,5.9099,5.9099,5.9285,6.0045,5.9864,5.9285,5.9469,6.0432,6.0045,5.997,6.0463,6.0774,6.0075,5.9683,6.0536,6.0918,6.0743,5.7714,5.6607,5.6638,5.6085,5.528,5.5209,5.5209,5.5209,5.5209,5.5209,5.5209,5.5209,5.5209,5.5209,5.5209,5.5209,5.5209,5.5209,5.5209,5.5209,5.5209,5.5209,5.5209,5.5209,5.5209,5.5209,5.5209,5.5209,5.5209,5.5209,5.5209,5.5209,5.5209,5.5209,5.5209,5.5209,5.5209,5.5209,5.5209,5.5209,5.5209,5.5209,5.5209,5.5209,5.5209,5.5209,5.5209,5.5209,5.5209,5.5209,5.5209,5.5209,5.5209,5.5209,5.5209,5.5209,5.5209,5.5239,5.5388,5.5448,5.5748,5.6286,5.6346,5.6615,5.6915,5.7258,5.7962,5.9307,5.9105,5.9047,6.0424,6.0119,5.9652,5.9683,5.9683,5.9392,5.9207,5.9099,5.9099,5.9099,5.9099,5.9099,5.9099,5.9099,5.9099,5.9099,5.9099,5.9099,5.9099,5.9099,5.9099,5.9099,5.9099,5.9099,5.9099,5.9099,5.9099,5.9099,5.9099,5.9099,5.9315,5.9576,5.9576,6.0075,6.0743,6.1527,6.0815,6.0224,6.0536,6.0463,5.9789,6.0359,6.1964,6.2358,6.2126,5.6541,5.5481,5.5481,5.528,5.5209,5.5209,5.5209,5.5209,5.5209,5.5209,5.5209,5.5209,5.5209,5.5209,5.5209,5.5209,5.5209,5.5209,5.5209,5.5209,5.5209,5.5209,5.5209,5.5209,5.5209,5.5209,5.5209,5.5209,5.5209,5.5209,5.5209,5.5209,5.5209,5.5209,5.5209,5.5209,5.5209,5.5209,5.5209,5.5209,5.5209,5.5209,5.5209,5.5209,5.5209,5.5209,5.5209,5.5209,5.5209,5.5209,5.5209,5.5209,5.5209,5.5209,5.5209,5.5209,5.5239,5.5418,5.5867,5.6017,5.6316,5.6855,5.6974,5.7034,5.7363,5.7782,5.8474,5.8997,5.9027,5.9893,6.106,6.0887,6.0712,6.0536,6.0328,5.9864,5.9392,5.9099,5.9099,5.9099,5.9099,5.9099,5.9099,5.9099,5.9099,5.9099,5.9099,5.9099,5.9099,5.9099,5.9099,5.9099,5.9099,5.9099,5.9099,5.9099,5.9099,5.9099,5.9099,5.9207,5.9683,6.015,6.1224,6.1696,6.2291,6.2027,6.1051,6.064,6.0671,6.0846,6.0949,6.239,6.4105,6.3919,6.3259,5.5651,5.5179,5.5209,5.5209,5.5209,5.5209,5.5209,5.5209,5.5209,5.5209,5.5209,5.5209,5.5209,5.5209,5.5209,5.5209,5.5209,5.5209,5.5209,5.5209,5.5209,5.5209,5.5209,5.5209,5.5209,5.5209,5.5209,5.5209,5.5209,5.5209,5.5209,5.5209,5.5209,5.5209,5.5209,5.5209,5.5209,5.5209,5.5209,5.5209,5.5209,5.5209,5.5209,5.5209,5.5209,5.5209,5.5209,5.5209,5.5209,5.5209,5.5209,5.5209,5.5299,5.5508,5.5748,5.5777,5.6107,5.6256,5.6226,5.6526,5.7034,5.7483,5.7693,5.7872,5.8171,5.8441,5.95,6.1193,6.0536,6.102,6.2063,6.1765,6.1193,6.0887,6.0536,5.997,5.9392,5.9285,5.9099,5.9099,5.9099,5.9207,5.9207,5.9099,5.9099,5.9099,5.9099,5.9099,5.9099,5.9099,5.9099,5.9099,5.9099,5.9099,5.9099,5.9099,5.9207,5.9207,5.9207,5.9499,6.0255,6.0918,6.1896,6.2487,6.2682,6.2225,6.1255,6.1426,6.1828,6.2193,6.2487,6.3732,6.4778,6.4778,6.4414,5.5209,5.5209,5.5209,5.5209,5.5209,5.5209,5.5209,5.5209,5.5209,5.5209,5.5209,5.5209,5.5209,5.5209,5.5209,5.5209,5.5209,5.5209,5.5209,5.5209,5.5209,5.5209,5.5209,5.5209,5.5209,5.5209,5.5209,5.5209,5.5209,5.5209,5.5209,5.5209,5.5209,5.5209,5.5209,5.5209,5.5209,5.5209,5.5209,5.5209,5.5209,5.5209,5.5209,5.5209,5.5209,5.5209,5.5209,5.5209,5.5209,5.5209,5.5209,5.5269,5.5538,5.5897,5.6226,5.6436,5.6885,5.7124,5.7034,5.7184,5.7693,5.8112,5.8381,5.853,5.889,5.9207,5.9499,6.1224,6.0846,6.1496,6.2456,6.1596,6.1122,6.0432,6.0045,5.9576,5.9285,5.9392,5.9392,5.9315,5.9285,5.9392,5.9392,5.9207,5.9099,5.9099,5.9099,5.9099,5.9099,5.9099,5.9099,5.9099,5.9207,5.9207,5.9207,5.9207,5.9207,5.9499,5.9606,6.018,6.1122,6.1696,6.239,6.2876,6.3355,6.3764,6.3732,6.3355,6.3068,6.3449,6.3732,6.4322,6.4992,6.5081,6.5437,5.5209,5.5209,5.5209,5.5209,5.5209,5.5209,5.5209,5.5209,5.5209,5.5209,5.5209,5.5209,5.5209,5.5209,5.5209,5.5209,5.5209,5.5209,5.5209,5.5209,5.5209,5.5209,5.5209,5.5209,5.5209,5.5209,5.5209,5.5209,5.5209,5.5209,5.5209,5.5209,5.5209,5.5209,5.5209,5.5209,5.5209,5.5209,5.5209,5.5209,5.5209,5.5209,5.5209,5.5209,5.5209,5.5209,5.5209,5.5209,5.5209,5.5209,5.5209,5.5508,5.5867,5.6226,5.6555,5.7094,5.7663,5.7902,5.7932,5.7962,5.8351,5.88,5.9009,5.8949,5.9099,5.9099,5.9392,5.997,6.0359,6.018,6.0536,6.0255,6.1122,6.064,6.0536,6.015,5.997,5.994,5.997,5.9576,5.9392,5.9499,5.9392,5.9207,5.9099,5.9099,5.9099,5.9099,5.9099,5.9099,5.9099,5.9099,5.9207,5.9315,5.9285,5.9469,6.0255,6.0743,6.0949,6.1628,6.2585,6.3068,6.3259,6.4105,6.4811,6.547,6.5855,6.4901,6.4414,6.4688,6.4992,6.5382,6.5767,6.6029,6.6235,5.5209,5.5209,5.5209,5.5209,5.5209,5.5209,5.5209,5.5209,5.5209,5.5209,5.5209,5.5209,5.5209,5.5209,5.5209,5.5209,5.5209,5.5209,5.5209,5.5209,5.5209,5.5209,5.5209,5.5209,5.5209,5.5209,5.5209,5.5209,5.5209,5.5209,5.5209,5.5209,5.5209,5.5209,5.5209,5.5209,5.5209,5.5209,5.5209,5.5209,5.5209,5.5209,5.5209,5.5209,5.5209,5.5209,5.5209,5.5209,5.5209,5.5209,5.5239,5.5688,5.6256,5.6615,5.7094,5.7663,5.8321,5.862,5.868,5.868,5.886,5.8979,5.9099,5.9099,5.9099,5.9099,5.9576,6.015,6.0949,6.1153,6.1628,6.2585,6.3132,6.1896,6.102,6.0536,6.0328,6.0328,5.997,5.9392,5.9285,5.9285,5.9207,5.9099,5.9099,5.9099,5.9099,5.9099,5.9099,5.9285,5.9392,5.9789,5.997,6.0255,6.0255,6.0846,6.1527,6.1896,6.2193,6.3068,6.3826,6.4137,6.4505,6.5382,6.5942,6.6235,6.6235,6.5855,6.5646,6.5734,6.5942,6.6235,6.661,6.6812,6.6812,5.5209,5.5209,5.5209,5.5209,5.5209,5.5209,5.5209,5.5209,5.5209,5.5209,5.5209,5.5209,5.5209,5.5209,5.5209,5.5209,5.5209,5.5209,5.5209,5.5209,5.5209,5.5209,5.5209,5.5209,5.5209,5.5209,5.5209,5.5209,5.5209,5.5209,5.5209,5.5209,5.5209,5.5209,5.5209,5.5209,5.5209,5.5209,5.5209,5.5209,5.5209,5.5209,5.5209,5.5209,5.5209,5.5209,5.5299,5.5388,5.5568,5.5628,5.5777,5.6166,5.6675,5.7184,5.7752,5.8321,5.88,5.9099,5.9099,5.9099,5.9099,5.9099,5.9099,5.9099,5.9099,5.9392,6.0255,6.0815,6.1995,6.3004,6.3004,6.3068,6.2844,6.1395,6.0463,5.997,6.0045,6.0045,5.9683,5.9315,5.9392,5.9789,5.9207,5.9099,5.9207,5.9099,5.9099,5.9099,5.9207,5.9469,5.997,6.0463,6.0949,6.1325,6.1596,6.1995,6.2487,6.3355,6.3732,6.4289,6.4901,6.5171,6.547,6.6062,6.6525,6.6728,6.661,6.6235,6.644,6.6643,6.6728,6.6643,6.6728,6.6812,6.6812,5.5209,5.5209,5.5209,5.5209,5.5209,5.5209,5.5209,5.5209,5.5209,5.5209,5.5209,5.5209,5.5209,5.5209,5.5209,5.5209,5.5209,5.5209,5.5209,5.5209,5.5209,5.5209,5.5209,5.5209,5.5209,5.5209,5.5179,5.5179,5.5381,5.5551,5.5481,5.528,5.5381,5.5209,5.5209,5.5209,5.5209,5.5209,5.5209,5.5209,5.5209,5.5209,5.5209,5.5209,5.5209,5.5209,5.5448,5.5748,5.5987,5.6166,5.6526,5.7034,5.7693,5.7842,5.8291,5.8919,5.9039,5.9099,5.9099,5.9099,5.9099,5.9099,5.9099,5.9207,5.9362,6.0045,6.0918,6.1496,6.2291,6.2876,6.2585,6.226,6.2063,6.1496,6.0536,6.0197,6.0407,6.0001,5.9771,5.9507,6.0092,6.0536,5.9683,5.9099,5.9207,5.9207,5.9099,5.9207,5.9392,5.9758,6.0328,6.0918,6.1527,6.1995,6.239,6.2779,6.3355,6.4322,6.5081,6.547,6.5855,6.6148,6.644,6.6812,6.6812,6.6812,6.6812,6.6728,6.6812,6.6812,6.6812,6.6728,6.6812,6.6812,6.6812,5.5209,5.5209,5.5209,5.5209,5.5209,5.5209,5.5209,5.5209,5.5209,5.5209,5.5209,5.5209,5.5209,5.5209,5.5209,5.5209,5.5209,5.5209,5.5209,5.5209,5.5209,5.5209,5.5209,5.534,5.531,5.5209,5.528,5.578,5.6445,5.6183,5.628,5.625,5.5451,5.5179,5.5209,5.5209,5.5209,5.5209,5.5209,5.5209,5.5209,5.5209,5.5239,5.5239,5.5269,5.5478,5.5837,5.6196,5.6466,5.6765,5.7154,5.7543,5.8052,5.8201,5.8471,5.8949,5.9099,5.9099,5.9099,5.9099,5.9099,5.9099,5.9099,5.9499,6.0224,6.0609,6.1395,6.2225,6.294,6.3324,6.2779,6.3671,6.3576,6.2779,6.199,6.1699,6.1547,6.0609,6.0006,5.9956,6.0348,6.0138,5.9513,5.9375,5.9345,5.962,5.965,5.9925,6.015,6.0432,6.0815,6.1325,6.1796,6.2487,6.3068,6.3858,6.4414,6.5171,6.5855,6.632,6.6728,6.6728,6.6812,6.6812,6.6812,6.6812,6.6812,6.6812,6.6812,6.6812,6.6812,6.6812,6.6812,6.6812,6.6812,5.5209,5.5209,5.5209,5.5209,5.5209,5.5209,5.5209,5.5209,5.5209,5.5209,5.5209,5.5209,5.5209,5.5209,5.5209,5.5209,5.5209,5.5209,5.5209,5.5209,5.5209,5.5551,5.578,5.5802,5.6359,5.61,5.5992,5.6351,5.6831,5.6541,5.628,5.5918,5.5651,5.528,5.5209,5.5209,5.5209,5.5209,5.5209,5.5209,5.5269,5.5388,5.5568,5.5658,5.5807,5.6077,5.6436,5.6735,5.7004,5.7363,5.7693,5.7962,5.8321,5.853,5.868,5.8979,5.9099,5.9099,5.9099,5.9099,5.9099,5.9099,5.9099,5.9789,6.0815,6.1496,6.2094,6.2843,6.377,6.437,6.4621,6.5478,6.438,6.3515,6.2651,6.2281,6.1735,6.0795,6.0456,6.0406,6.0246,5.9964,5.9757,5.9543,5.959,5.9925,6.0335,6.0543,6.0908,6.1215,6.1457,6.1896,6.2585,6.3449,6.4322,6.5204,6.568,6.6062,6.632,6.6525,6.644,6.6235,6.6525,6.6812,6.6812,6.6812,6.6812,6.6812,6.6812,6.6812,6.6812,6.6812,6.6812,6.6812,6.6812,5.5209,5.5209,5.5209,5.5209,5.5209,5.5209,5.5209,5.5209,5.5209,5.5209,5.5209,5.5209,5.5209,5.5209,5.5209,5.5209,5.5209,5.5209,5.5209,5.5209,5.5209,5.5819,5.6305,5.6586,5.6664,5.7335,5.7335,5.648,5.6929,5.7086,5.6445,5.5986,5.5986,5.5819,5.5819,5.5481,5.5381,5.5209,5.5359,5.5388,5.5508,5.5897,5.6137,5.6286,5.6555,5.6855,5.7214,5.7543,5.7902,5.8261,5.865,5.8919,5.9069,5.9099,5.9099,5.9099,5.9099,5.9099,5.9099,5.9099,5.9392,5.9392,5.9207,5.9864,6.0979,6.2121,6.2741,6.3742,6.476,6.613,6.7167,6.5886,6.4697,6.3618,6.2531,6.1964,6.1489,6.1126,6.0997,6.0897,6.0645,6.0409,6.0333,6.0211,5.971,6.0638,6.091,6.0862,6.1258,6.1941,6.2247,6.2585,6.3355,6.4597,6.5293,6.5081,6.5382,6.526,6.5855,6.6115,6.5942,6.5734,6.5942,6.6235,6.661,6.6812,6.6812,6.6812,6.6812,6.6812,6.6812,6.6812,6.6812,6.6812,6.6812,5.5209,5.5209,5.5209,5.5209,5.5209,5.5209,5.5209,5.5209,5.5209,5.5209,5.5209,5.5209,5.5209,5.5209,5.5209,5.5209,5.5209,5.5209,5.5209,5.5209,5.5179,5.5481,5.5736,5.6111,5.618,5.6337,5.6401,5.7027,5.8264,5.836,5.9314,6.0128,5.7434,5.7086,5.6735,5.6017,5.5611,5.5359,5.5628,5.5807,5.6047,5.6496,5.6735,5.6944,5.7124,5.7423,5.7842,5.8022,5.8351,5.88,5.8979,5.9099,5.9099,5.9099,5.9099,5.9099,5.9099,5.9099,5.9099,5.9099,5.9422,5.9819,5.9636,6.0567,6.1652,6.2536,6.3055,6.3998,6.49,6.5831,6.6279,6.5511,6.4901,6.4452,6.3499,6.2901,6.2395,6.2263,6.2103,6.1588,6.1413,6.0837,6.0855,6.0092,5.9801,6.1002,6.1545,6.1348,6.134,6.1925,6.2342,6.2551,6.2779,6.3638,6.3544,6.3259,6.3919,6.4505,6.5081,6.5349,6.5171,6.5171,6.5382,6.5855,6.644,6.6728,6.6812,6.6812,6.6812,6.6812,6.6812,6.6812,6.6812,6.6812,6.6812,5.5209,5.5209,5.5209,5.5209,5.5209,5.5209,5.5209,5.5209,5.5209,5.5209,5.5209,5.5209,5.5209,5.5209,5.5209,5.5209,5.5209,5.5209,5.5209,5.5209,5.528,5.6115,5.6238,5.6619,5.7651,5.7432,5.7611,5.8499,5.9314,5.9522,6.0247,6.0214,5.8328,5.8085,5.7621,5.6818,5.6174,5.5921,5.5957,5.6256,5.6675,5.7154,5.7393,5.7543,5.7663,5.8112,5.8381,5.8471,5.874,5.9039,5.9099,5.9099,5.9099,5.9099,5.9099,5.9099,5.9099,5.9099,5.9099,5.9099,5.9727,6.0168,5.9969,6.0971,6.1764,6.2496,6.3003,6.3567,6.4191,6.469,6.4887,6.5084,6.5313,6.544,6.4737,6.4042,6.3794,6.3568,6.3171,6.2591,6.1967,6.1291,6.0683,5.9969,6.0084,6.1722,6.2013,6.123,6.1157,6.1433,6.1668,6.1828,6.1796,6.1964,6.1896,6.2291,6.2876,6.3544,6.3858,6.4137,6.423,6.4778,6.526,6.5855,6.644,6.661,6.6812,6.6812,6.6812,6.6812,6.6812,6.6812,6.6812,6.6812,6.6812,5.5209,5.5209,5.5209,5.5209,5.5209,5.5209,5.5209,5.5209,5.5209,5.5209,5.5209,5.5209,5.5209,5.5209,5.5209,5.5209,5.5209,5.5209,5.5209,5.528,5.5551,5.6378,5.7586,5.8654,5.8801,6.0488,6.0849,5.925,5.9751,5.987,5.9522,5.8902,5.8722,5.8514,5.7997,5.8121,5.769,5.7213,5.71,5.7178,5.7378,5.7752,5.8201,5.8291,5.862,5.9039,5.9039,5.9069,5.9099,5.9099,5.9099,5.9099,5.9099,5.9099,5.9099,5.9099,5.9099,5.9099,5.9099,5.9099,5.9488,5.9867,6.0196,6.1186,6.1994,6.2767,6.3286,6.4159,6.4919,6.5804,6.6167,6.5917,6.594,6.5764,6.5227,6.4568,6.4144,6.4003,6.3684,6.304,6.2105,6.152,6.1304,6.0593,6.0166,6.2147,6.2177,6.1187,6.0905,6.0882,6.1082,6.1122,6.0815,6.102,6.1964,6.2291,6.2291,6.2585,6.2972,6.3292,6.3544,6.4414,6.526,6.5767,6.6148,6.661,6.6812,6.6812,6.6812,6.6812,6.6812,6.6812,6.6812,6.6846,6.6812,5.5209,5.5209,5.5209,5.5209,5.5209,5.5209,5.5209,5.5209,5.5209,5.5209,5.5209,5.5209,5.5209,5.5209,5.5209,5.5209,5.5209,5.5209,5.5209,5.5551,5.5918,5.6638,5.762,5.8518,5.9323,5.9314,5.9337,5.9664,5.9784,5.9903,5.9729,5.8992,5.9024,5.9062,5.9087,5.9408,5.9286,5.8916,5.9,5.8685,5.8384,5.8548,5.889,5.889,5.9099,5.9099,5.9099,5.9099,5.9099,5.9099,5.9099,5.9099,5.9099,5.9099,5.9099,5.9099,5.9099,5.9099,5.9099,5.9159,5.9458,5.9877,6.0396,6.143,6.238,6.3101,6.4047,6.4966,6.5765,6.6588,6.701,6.6656,6.6438,6.6048,6.562,6.5032,6.4512,6.4334,6.4182,6.3287,6.2349,6.1844,6.1704,6.1401,6.1086,6.0957,6.0776,6.0346,6.0196,6.015,6.0425,6.0359,5.9895,6.015,6.1395,6.1796,6.1628,6.1995,6.2487,6.2682,6.2972,6.4322,6.5559,6.5559,6.5855,6.644,6.6812,6.6812,6.6812,6.6812,6.6812,6.6812,6.688,6.6914,6.6846,5.5209,5.5209,5.5209,5.5209,5.5209,5.5209,5.5209,5.5209,5.5209,5.5209,5.5209,5.5209,5.5209,5.5209,5.5209,5.5209,5.5209,5.5209,5.5209,5.5451,5.6085,5.6896,5.768,5.8654,5.9781,5.9984,6.0322,6.0639,6.0299,6.087,6.0953,6.0247,6.0312,6.0435,6.0825,6.0915,6.1049,6.0944,6.1168,6.0726,5.9784,5.9698,5.9207,5.9099,5.9099,5.9099,5.9099,5.9099,5.9099,5.9099,5.9099,5.9099,5.9099,5.9099,5.9099,5.9099,5.9099,5.9099,5.9099,5.9189,5.9398,5.9877,6.0475,6.1467,6.2464,6.3159,6.4088,6.4914,6.4289,6.4987,6.5495,6.5328,6.6048,6.6154,6.5728,6.5219,6.4878,6.4595,6.4333,6.3826,6.261,6.1455,6.1334,6.1407,6.1156,6.1306,6.0864,6.0116,5.9877,5.9578,5.9757,5.9864,5.9392,5.9789,6.102,6.102,6.0567,6.1122,6.2193,6.2876,6.3764,6.4901,6.5855,6.6129,6.6215,6.6525,6.6812,6.6812,6.6812,6.6812,6.6812,6.6812,6.688,6.71,6.7353,5.5209,5.5209,5.5209,5.5209,5.5209,5.5209,5.5209,5.5209,5.5209,5.5209,5.5209,5.5209,5.5209,5.5209,5.5209,5.5209,5.5209,5.5209,5.5209,5.5651,5.5918,5.7434,5.8652,5.9479,6.0605,6.1542,6.1929,6.177,6.148,6.1676,6.1676,6.2064,6.2186,6.2096,6.2179,6.2562,6.295,6.265,6.2587,6.2678,6.1777,6.0813,6.0061,5.9576,5.9285,5.9285,5.9207,5.9099,5.9099,5.9099,5.9099,5.9099,5.9099,5.9099,5.9099,5.9099,5.9099,5.9099,5.9099,5.9129,5.9518,6.0027,6.0715,6.1567,6.2505,6.3285,6.4118,6.4412,6.3863,6.4178,6.4703,6.5032,6.5835,6.5835,6.5513,6.4987,6.4675,6.4452,6.4057,6.3734,6.2683,6.1267,6.1276,6.1313,6.1313,6.1523,6.1194,6.0505,5.9877,5.9518,5.9375,5.9499,5.9315,5.9864,6.0815,6.0609,6.0255,6.1728,6.2876,6.3576,6.4479,6.5625,6.6455,6.6761,6.7049,6.6914,6.6846,6.6812,6.6812,6.6812,6.6812,6.6846,6.7116,6.7403,6.8012,5.5209,5.5209,5.5209,5.5209,5.5209,5.5209,5.5209,5.5209,5.5209,5.5209,5.5209,5.5209,5.5209,5.5209,5.5209,5.5179,5.5179,5.528,5.5986,5.6638,5.7276,5.8722,6.001,6.0672,6.1736,6.2268,6.2302,6.187,6.1756,6.1317,6.0586,6.0075,6.1616,6.223,6.296,6.3723,6.4627,6.425,6.3482,6.3228,6.2355,6.1628,6.1659,6.1122,6.064,5.997,5.9499,5.9099,5.9099,5.9099,5.9099,5.9099,5.9099,5.9099,5.9099,5.9099,5.9099,5.9099,5.9099,5.9099,5.9458,5.9907,6.0676,6.17,6.2475,6.3139,6.4095,6.5033,6.5001,6.6048,6.647,6.6048,6.6365,6.5219,6.4512,6.3842,6.3305,6.3305,6.3204,6.2819,6.2233,6.1695,6.1732,6.1583,6.1104,6.1074,6.0625,5.9967,5.9813,5.9465,5.9129,5.9207,5.9315,5.9864,6.0712,6.0712,6.0712,6.2291,6.3829,6.4983,6.5836,6.6436,6.7083,6.732,6.7151,6.6948,6.688,6.6812,6.6812,6.6812,6.6812,6.6846,6.7233,6.8036,6.8923]},{"header":{"parameterUnit":"m.s-1","parameterCategory":1,"la1":31.0,"la2":29.5877,"lo1":-88.7671,"lo2":-86.6584,"dy":0.0162,"dx":0.0185,"nx":115,"ny":88,"refTime":"2024-08-02T06:00:00:Z","depth":0,"parameterNumber":3,"parameterNumberName":"V-component_of_WINDS"},"data":[0.0,0.0,0.0,0.0,0.0,0.0,0.0,0.0,0.0,0.0,0.0,0.0,0.0,0.0,0.0,0.0,0.0,0.0,0.0,0.0,0.0,0.0,0.0,0.0,0.0,0.0,0.0,0.0,0.0,0.0,0.0,0.0,0.0,0.0,0.0,0.0,0.0,0.0,0.0,0.0,0.0,0.0,0.0,0.0,0.0,0.0,0.0,0.0,0.0,0.0,0.0,0.0,0.0,0.0,0.0,0.0,0.0,0.0,0.0,0.0,0.0,0.0,0.0,0.0,0.0,0.0,0.0,0.0,0.0,0.0,0.0,0.0,0.0,0.0,0.0,0.0,0.0,0.0,0.0,0.0,0.0,0.0,0.0,0.0,0.0,0.0,0.0,0.0,0.0,0.0,0.0,0.0,0.0,0.0,0.0,0.0,0.0,0.0,0.0,0.0,0.0,0.0,0.0,0.0,0.0,0.0,0.0,0.0,0.0,0.0,0.0,0.0,0.0,0.0,0.0,0.0,0.0,0.0,0.0,0.0,0.0,0.0,0.0,0.0,0.0,0.0,0.0,0.0,0.0,0.0,0.0,0.0,0.0,0.0,0.0,0.0,0.0,0.0,0.0,0.0,0.0,0.0,0.0,0.0,0.0,0.0,0.0,0.0,0.0,0.0,0.0,0.0,0.0,0.0,0.0,0.0,0.0,0.0,0.0,0.0,0.0,0.0,0.0,0.0,0.0,0.0,0.0,0.0,0.0,0.0,0.0,0.0,0.0,0.0,0.0,0.0,0.0,0.0,0.0,0.0,0.0,0.0,0.0,0.0,0.0,0.0,0.0,0.0,0.0,0.0,0.0,0.0,0.0,0.0,0.0,0.0,0.0,0.0,0.0,0.0,0.0,0.0,0.0,0.0,0.0,0.0,0.0,0.0,0.0,0.0,0.0,0.0,0.0,0.0,0.0,0.0,0.0,0.0,0.0,0.0,0.0,0.0,0.0,0.0,0.0,0.0,0.0,0.0,0.0,0.0,0.0,0.0,0.0,0.0,0.0,0.0,0.0,0.0,0.0,0.0,0.0,0.0,0.0,0.0,0.0,0.0,0.0,0.0,0.0,0.0,0.0,0.0,0.0,0.0,0.0,0.0,0.0,0.0,0.0,0.0,0.0,0.0,0.0,0.0,0.0,0.0,0.0,0.0,0.0,0.0,0.0,0.0,0.0,0.0,0.0,0.0,0.0,0.0,0.0,0.0,0.0,0.0,0.0,0.0,0.0,0.0,0.0,0.0,0.0,0.0,0.0,0.0,0.0,0.0,0.0,0.0,0.0,0.0,0.0,0.0,0.0,0.0,0.0,0.0,0.0,0.0,0.0,0.0,0.0,0.0,0.0,0.0,0.0,0.0,0.0,0.0,0.0,0.0,0.0,0.0,0.0,0.0,0.0,0.0,0.0,0.0,0.0,0.0,0.0,0.0,0.0,0.0,0.0,0.0,0.0,0.0,0.0,0.0,0.0,0.0,0.0,0.0,0.0,0.0,0.0,0.0,0.0,0.0,0.0,0.0,0.0,0.0,0.0,0.0,0.0,0.0,0.0,0.0,0.0,0.0,0.0,0.0,0.0,0.0,0.0,0.0,0.0,0.0,0.0,0.0,0.0,0.0,0.0,0.0,0.0,0.0,0.0,0.0,0.0,0.0,0.0,0.0,0.0,0.0,0.0,0.0,0.0,0.0,0.0,0.0,0.0,0.0,0.0,0.0,0.0,0.0,0.0,0.0,0.0,0.0,0.0,0.0,0.0,0.0,0.0,0.0,0.0,0.0,0.0,0.0,0.0,0.0,0.0,0.0,0.0,0.0,0.0,0.0,0.0,0.0,0.0,0.0,0.0,0.0,0.0,0.0,0.0,0.0,0.0,0.0,0.0,0.0,0.0,0.0,0.0,0.0,0.0,0.0,0.0,0.0,0.0,0.0,0.0,0.0,0.0,0.0,0.0,0.0,0.0,0.0,0.0,0.0,0.0,0.0,0.0,0.0,0.0,0.0,0.0,0.0,0.0,0.0,0.0,0.0,0.0,0.0,0.0,0.0,0.0,0.0,0.0,0.0,0.0,0.0,0.0,0.0,0.0,0.0,0.0,0.0,0.0,0.0,0.0,0.0,0.0,0.0,0.0,0.0,0.0,0.0,0.0,0.0,0.0,0.0,0.0,0.0,0.0,0.0,0.0,0.0,0.0,0.0,0.0,0.0,0.0,0.0,0.0,0.0,0.0,0.0,0.0,0.0,0.0,0.0,0.0,0.0,0.0,0.0,0.0,0.0,0.0,0.0,0.0,0.0,0.0,0.0,0.0,0.0,0.0,0.0,0.0,0.0,0.0,0.0,0.0,0.0,0.0,0.0,0.0,0.0,0.0,0.0,0.0,0.0,0.0,0.0,0.0,0.0,0.0,0.0,0.0,0.0,0.0,0.0,0.0,0.0,0.0,0.0,0.0,0.0,0.0,0.0,0.0,0.0,0.0,0.0,0.0,0.0,0.0,0.0,0.0,0.0,0.0,0.0,0.0,0.0,0.0,0.0,0.0,0.0,0.0,0.0,0.0,0.0,0.0,0.0,0.0,0.0,0.0,0.0,0.0,0.0,0.0,0.0,0.0,0.0,0.0,0.0,0.0,0.0,0.0,0.0,0.0,0.0,0.0,0.0,0.0,0.0,0.0,0.0,0.0,0.0,0.0,0.0,0.0,0.0,0.0,0.0,0.0,0.0,0.0,0.0,0.0,0.0,0.0,0.0,0.0,0.0,0.0,0.0,0.0,0.0,0.0,0.0,0.0,0.0,0.0,0.0,0.0,0.0,0.0,0.0,0.0,0.0,0.0,0.0,0.0,0.0,0.0,0.0,0.0,0.0,0.0,0.0,0.0,0.0,0.0,0.0,0.0,0.0,0.0,0.0,0.0,0.0,0.0,0.0,0.0,0.0,0.0,0.0,0.0,0.0,0.0,0.0,0.0,0.0,0.0,0.0,0.0,0.0,0.0,0.0,0.0,0.0,0.0,0.0,0.0,0.0,0.0,0.0,0.0,0.0,0.0,0.0,0.0,0.0,0.0,0.0,0.0,0.0,0.0,0.0,0.0,0.0,0.0,0.0,0.0,0.0,0.0,0.0,0.0,0.0,0.0,0.0,0.0,0.0,0.0,0.0,0.0,0.0,0.0,0.0,0.0,0.0,0.0,0.0,0.0,0.0,0.0,0.0,0.0,0.0,0.0,0.0,0.0,0.0,0.0,0.0,0.0,0.0,0.0,0.0,0.0,0.0,0.0,0.0,0.0,0.0,0.0,0.0,0.0,0.0,0.0,0.0,0.0,0.0,0.0,0.0,0.0,0.0,0.0,0.0,0.0,0.0,0.0,0.0,0.0,0.0,0.0,0.0,0.0,0.0,0.0,0.0,0.0,0.0,0.0,0.0,0.0,0.0,0.0,0.0,0.0,0.0,0.0,0.0,0.0,0.0,0.0,0.0,0.0,0.0,0.0,0.0,0.0,0.0,0.0,0.0,0.0,0.0,0.0,0.0,0.0,0.0,0.0,0.0,0.0,0.0,0.0,0.0,0.0,0.0,0.0,0.0,0.0,0.0,0.0,0.0,0.0,0.0,0.0,0.0,0.0,0.0,0.0,0.0,0.0,0.0,0.0,0.0,0.0,0.0,0.0,0.0,0.0,0.0,0.0,0.0,0.0,0.0,0.0,0.0,0.0,0.0,0.0,0.0,0.0,0.0,0.0,0.0,0.0,0.0,0.0,0.0,0.0,0.0,0.0,0.0,0.0,0.0,0.0,0.0,0.0,0.0,0.0,0.0,0.0,0.0,0.0,0.0,0.0,0.0,0.0,0.0,0.0,0.0,0.0,0.0,0.0,0.0,0.0,0.0,0.0,0.0,0.0,0.0,0.0,0.0,0.0,0.0,0.0,0.0,0.0,0.0,0.0,0.0,0.0,0.0,0.0,0.0,0.0,0.0,0.0,0.0,0.0,0.0,0.0,0.0,0.0,0.0,0.0,0.0,0.0,0.0,0.0,0.0,0.0,0.0,0.0,0.0,0.0,0.0,0.0,0.0,0.0,0.0,0.0,0.0,0.0,0.0,0.0,0.0,0.0,0.0,0.0,0.0,0.0,0.0,0.0,0.0,0.0,0.0,0.0,0.0,0.0,0.0,0.0,0.0,0.0,0.0,0.0,0.0,0.0,0.0,0.0,0.0,0.0,0.0,0.0,0.0,0.0,0.0,0.0,0.0,0.0,0.0,1.5332,0.0,0.0,0.0,0.0,0.0,0.0,0.0,0.0,0.0,0.0,0.0,0.0,0.0,0.0,0.0,0.0,0.0,0.0,0.0,0.0,0.0,0.0,0.0,0.0,0.0,0.0,0.0,0.0,0.0,0.0,0.0,0.0,0.0,0.0,0.0,0.0,0.0,0.0,0.0,0.0,0.0,0.0,0.0,0.0,0.0,0.0,0.0,0.0,0.0,0.0,0.0,0.0,0.0,0.0,0.0,0.0,0.0,0.0,0.0,0.0,0.0,0.0,0.0,0.0,0.0,0.0,0.0,0.0,0.0,0.0,0.0,0.0,0.0,0.0,0.0,0.0,0.0,0.0,0.0,0.0,0.0,0.0,0.0,0.0,0.0,0.0,0.0,0.0,0.0,0.0,0.0,0.0,0.0,0.0,0.0,0.0,0.0,0.0,0.0,0.0,0.0,0.0,0.0,0.0,0.0,0.0,0.0,0.0,0.0,0.0,1.541,1.541,1.541,1.541,1.541,0.0,0.0,0.0,0.0,0.0,0.0,0.0,0.0,0.0,0.0,0.0,0.0,0.0,0.0,0.0,0.0,0.0,0.0,0.0,0.0,0.0,0.0,0.0,0.0,0.0,0.0,0.0,0.0,0.0,0.0,0.0,0.0,0.0,0.0,0.0,0.0,0.0,0.0,0.0,0.0,0.0,0.0,0.0,0.0,0.0,0.0,0.0,0.0,0.0,0.0,0.0,0.0,0.0,0.0,0.0,0.0,0.0,0.0,0.0,0.0,0.0,0.0,0.0,0.0,0.0,0.0,0.0,0.0,0.0,0.0,0.0,0.0,0.0,0.0,0.0,0.0,0.0,0.0,0.0,0.0,0.0,0.0,0.0,0.0,0.0,0.0,0.0,0.0,0.0,0.0,0.0,0.0,0.0,0.0,0.0,0.0,0.0,0.0,0.0,0.0,0.0,0.0,0.0,0.0,0.0,0.0,0.0,0.0,0.0,0.0,0.0,0.0,1.5703,1.5703,1.5703,0.0,0.0,0.0,0.0,0.0,0.0,0.0,0.0,0.0,0.0,0.0,0.0,0.0,0.0,0.0,0.0,0.0,0.0,0.0,0.0,0.0,0.0,0.0,0.0,0.0,0.0,0.0,0.0,0.0,0.0,0.0,0.0,0.0,0.0,0.0,0.0,0.0,0.0,0.0,0.0,0.0,0.0,0.0,0.0,0.0,0.0,0.0,0.0,0.0,0.0,0.0,0.0,0.0,0.0,0.0,0.0,0.0,0.0,0.0,0.0,0.0,0.0,0.0,0.0,0.0,0.0,0.0,0.0,0.0,0.0,0.0,0.0,0.0,0.0,0.0,0.0,0.0,0.0,0.0,0.0,0.0,0.0,0.0,0.0,0.0,0.0,0.0,0.0,0.0,0.0,0.0,0.0,0.0,0.0,0.0,0.0,0.0,0.0,0.0,0.0,0.0,0.0,0.0,0.0,0.0,0.0,0.0,0.0,0.0,0.0,1.5801,1.6519,1.6602,0.0,1.6558,0.0,0.0,0.0,0.0,0.0,0.0,0.0,0.0,0.0,0.0,0.0,0.0,0.0,0.0,0.0,0.0,0.0,0.0,0.0,0.0,0.0,0.0,0.0,0.0,0.0,0.0,0.0,0.0,0.0,0.0,0.0,0.0,0.0,0.0,0.0,0.0,0.0,0.0,0.0,0.0,0.0,0.0,0.0,0.0,0.0,0.0,0.0,0.0,0.0,0.0,0.0,0.0,0.0,0.0,0.0,0.0,0.0,0.0,0.0,0.0,0.0,0.0,0.0,0.0,0.0,0.0,0.0,0.0,0.0,0.0,0.0,0.0,0.0,0.0,0.0,0.0,0.0,0.0,0.0,0.0,0.0,0.0,0.0,0.0,0.0,0.0,0.0,0.0,0.0,0.0,0.0,0.0,0.0,0.0,0.0,0.0,0.0,0.0,0.0,0.0,0.0,0.0,0.0,0.0,0.0,0.0,0.0,0.0,0.0,0.0,0.0,1.6655,1.6655,1.6655,0.0,0.0,0.0,0.0,0.0,0.0,0.0,0.0,0.0,0.0,0.0,0.0,0.0,0.0,0.0,0.0,0.0,0.0,0.0,0.0,0.0,0.0,0.0,0.0,0.0,0.0,0.0,0.0,0.0,0.0,0.0,0.0,0.0,0.0,0.0,0.0,0.0,0.0,0.0,0.0,0.0,0.0,0.0,0.0,0.0,0.0,0.0,0.0,0.0,0.0,0.0,0.0,0.0,0.0,0.0,0.0,0.0,0.0,0.0,0.0,0.0,0.0,0.0,0.0,0.0,0.0,0.0,0.0,0.0,0.0,0.0,0.0,0.0,0.0,0.0,0.0,0.0,0.0,0.0,0.0,0.0,0.0,0.0,0.0,0.0,0.0,0.0,0.0,0.0,0.0,0.0,0.0,0.0,0.0,0.0,0.0,0.0,0.0,0.0,0.0,0.0,0.0,0.0,0.0,0.0,0.0,0.0,0.0,0.0,0.0,1.6523,0.0,1.707,1.7025,1.6908,1.6675,0.0,0.0,0.0,0.0,0.0,0.0,0.0,0.0,0.0,0.0,0.0,0.0,0.0,0.0,0.0,0.0,0.0,0.0,0.0,0.0,0.0,0.0,0.0,0.0,0.0,0.0,0.0,0.0,0.0,0.0,0.0,0.0,0.0,0.0,0.0,0.0,0.0,0.0,0.0,0.0,0.0,0.0,0.0,0.0,0.0,0.0,0.0,0.0,0.0,0.0,0.0,0.0,0.0,0.0,0.0,0.0,0.0,0.0,0.0,0.0,0.0,0.0,0.0,0.0,0.0,0.0,0.0,0.0,0.0,0.0,0.0,0.0,0.0,0.0,0.0,0.0,0.0,0.0,0.0,0.0,0.0,0.0,0.0,0.0,0.0,0.0,0.0,0.0,0.0,0.0,0.0,0.0,0.0,0.0,0.0,0.0,0.0,0.0,0.0,0.0,0.0,0.0,0.0,0.0,0.0,0.0,0.0,0.0,0.0,1.7109,1.7129,1.793,1.7949,1.7559,0.0,0.0,0.0,0.0,0.0,0.0,0.0,0.0,0.0,0.0,0.0,0.0,0.0,0.0,0.0,0.0,0.0,0.0,0.0,0.0,0.0,0.0,0.0,0.0,0.0,0.0,0.0,0.0,0.0,0.0,0.0,0.0,0.0,0.0,0.0,0.0,0.0,0.0,0.0,0.0,0.0,0.0,0.0,0.0,0.0,0.0,0.0,0.0,0.0,0.0,0.0,0.0,0.0,0.0,0.0,0.0,0.0,0.0,0.0,0.0,0.0,0.0,0.0,0.0,0.0,0.0,0.0,0.0,0.0,0.0,0.0,0.0,0.0,0.0,0.0,0.0,0.0,0.0,0.0,0.0,0.0,0.0,0.0,0.0,0.0,0.0,0.0,0.0,0.0,0.0,0.0,0.0,0.0,0.0,0.0,0.0,0.0,0.0,0.0,0.0,0.0,0.0,0.0,0.0,0.0,0.0,0.0,0.0,0.0,1.6309,1.6602,1.7422,1.873,1.7773,1.7168,0.0,0.0,0.0,0.0,0.0,0.0,0.0,0.0,0.0,0.0,0.0,0.0,0.0,0.0,0.0,0.0,0.0,0.0,0.0,0.0,0.0,0.0,0.0,0.0,0.0,0.0,0.0,0.0,0.0,0.0,0.0,0.0,0.0,0.0,0.0,0.0,0.0,0.0,0.0,0.0,0.0,0.0,0.0,0.0,0.0,0.0,0.0,0.0,0.0,0.0,0.0,0.0,0.0,0.0,0.0,0.0,0.0,0.0,0.0,0.0,0.0,0.0,0.0,0.0,0.0,0.0,0.0,0.0,0.0,0.0,0.0,0.0,0.0,0.0,0.0,0.0,0.0,0.0,0.0,0.0,0.0,0.0,0.0,0.0,0.0,0.0,0.0,0.0,0.0,0.0,0.0,0.0,0.0,0.0,0.0,0.0,0.0,0.0,0.0,0.0,0.0,0.0,0.0,0.0,0.0,0.0,0.0,0.0,0.0,1.625,0.0,1.7988,0.0,1.7754,1.7012,0.0,0.0,0.0,0.0,0.0,0.0,0.0,0.0,0.0,0.0,0.0,0.0,0.0,0.0,0.0,0.0,0.0,0.0,0.0,0.0,0.0,0.0,0.0,0.0,0.0,0.0,0.0,0.0,0.0,0.0,0.0,0.0,0.0,0.0,0.0,0.0,0.0,0.0,0.0,0.0,0.0,0.0,0.0,0.0,0.0,0.0,0.0,0.0,0.0,0.0,0.0,0.0,0.0,0.0,0.0,0.0,0.0,0.0,0.0,0.0,0.0,0.0,0.0,0.0,0.0,0.0,0.0,0.0,0.0,0.0,0.0,0.0,0.0,0.0,0.0,0.0,0.0,0.0,0.0,0.0,0.0,0.0,0.0,0.0,0.0,0.0,0.0,0.0,0.0,0.0,0.0,0.0,0.0,0.0,0.0,0.0,0.0,0.0,0.0,0.0,0.0,0.0,0.0,0.0,0.0,0.0,0.0,0.0,1.6289,1.791,1.8769,1.8848,1.8086,1.7988,1.7187,0.0,0.0,0.0,0.0,0.0,0.0,0.0,0.0,0.0,0.0,0.0,0.0,0.0,0.0,0.0,0.0,0.0,0.0,0.0,0.0,0.0,0.0,0.0,0.0,0.0,0.0,0.0,0.0,0.0,0.0,0.0,0.0,0.0,0.0,0.0,0.0,0.0,0.0,0.0,0.0,0.0,0.0,0.0,0.0,0.0,0.0,0.0,0.0,0.0,0.0,0.0,0.0,0.0,0.0,0.0,0.0,0.0,0.0,0.0,0.0,0.0,0.0,0.0,0.0,0.0,0.0,0.0,0.0,0.0,0.0,0.0,0.0,0.0,0.0,0.0,0.0,0.0,0.0,0.0,0.0,0.0,0.0,0.0,0.0,0.0,0.0,0.0,0.0,0.0,0.0,0.0,0.0,0.0,0.0,0.0,0.0,0.0,0.0,0.0,0.0,0.0,0.0,0.0,0.0,0.0,0.0,0.0,0.0,0.0,1.7148,1.8262,1.9141,1.9687,1.8047,1.7285,0.0,0.0,0.0,0.0,0.0,0.0,0.0,0.0,0.0,0.0,0.0,0.0,0.0,0.0,0.0,0.0,0.0,0.0,0.0,0.0,0.0,0.0,0.0,0.0,0.0,0.0,0.0,0.0,0.0,0.0,0.0,0.0,0.0,0.0,0.0,0.0,0.0,0.0,0.0,0.0,0.0,0.0,0.0,0.0,0.0,0.0,0.0,0.0,0.0,0.0,0.0,0.0,0.0,0.0,0.0,0.0,0.0,0.0,0.0,0.0,0.0,0.0,0.0,0.0,0.0,0.0,0.0,0.0,0.0,0.0,0.0,0.0,0.0,0.0,0.0,0.0,0.0,0.0,0.0,0.0,0.0,0.0,0.0,0.0,0.0,0.0,0.0,0.0,0.0,0.0,0.0,0.0,0.0,0.0,0.0,0.0,0.0,0.0,0.0,0.0,0.0,0.0,0.0,0.0,0.0,0.0,0.0,0.0,0.0,1.8242,1.9414,2.0234,2.0624,1.8691,1.7687,1.7871,0.0,0.0,0.0,0.0,0.0,0.0,0.0,0.0,0.0,0.0,0.0,0.0,0.0,0.0,0.0,0.0,0.0,0.0,0.0,0.0,0.0,0.0,0.0,0.0,0.0,0.0,0.0,0.0,0.0,0.0,0.0,0.0,0.0,0.0,0.0,0.0,0.0,0.0,0.0,0.0,0.0,0.0,0.0,0.0,0.0,0.0,0.0,0.0,0.0,0.0,0.0,0.0,0.0,0.0,0.0,0.0,0.0,0.0,0.0,0.0,0.0,0.0,0.0,0.0,0.0,0.0,0.0,0.0,0.0,0.0,0.0,0.0,0.0,0.0,0.0,0.0,0.0,0.0,0.0,0.0,0.0,0.0,0.0,0.0,0.0,0.0,0.0,0.0,0.0,0.0,0.0,0.0,0.0,0.0,0.0,0.0,0.0,0.0,0.0,0.0,0.0,0.0,0.0,0.0,0.0,0.0,0.0,0.0,2.0625,2.1953,2.2051,2.082,1.9824,1.8555,0.0,0.0,0.0,0.0,0.0,0.0,0.0,0.0,0.0,0.0,0.0,0.0,0.0,0.0,0.0,0.0,0.0,0.0,0.0,0.0,0.0,0.0,0.0,0.0,0.0,0.0,0.0,0.0,0.0,0.0,0.0,0.0,0.0,0.0,0.0,0.0,0.0,0.0,0.0,0.0,0.0,0.0,0.0,0.0,0.0,0.0,0.0,0.0,0.0,0.0,0.0,0.0,0.0,0.0,0.0,0.0,0.0,0.0,0.0,0.0,0.0,0.0,0.0,0.0,0.0,0.0,0.0,0.0,0.0,0.0,0.0,0.0,0.0,0.0,0.0,0.0,0.0,0.0,0.0,0.0,0.0,0.0,0.0,0.0,0.0,0.0,0.0,0.0,0.0,0.0,0.0,0.0,0.0,0.0,0.0,0.0,0.0,0.0,0.0,0.0,0.0,0.0,0.0,0.0,0.0,0.0,0.0,0.0,0.0,2.1582,2.3418,2.3945,2.2949,2.0879,1.9551,0.0,0.0,0.0,0.0,0.0,0.0,0.0,0.0,0.0,0.0,0.0,0.0,0.0,0.0,0.0,0.0,0.0,0.0,0.0,0.0,0.0,0.0,0.0,0.0,0.0,0.0,0.0,0.0,0.0,0.0,0.0,0.0,0.0,0.0,0.0,0.0,0.0,0.0,0.0,0.0,0.0,0.0,0.0,0.0,0.0,0.0,0.0,0.0,0.0,0.0,0.0,0.0,0.0,0.0,0.0,0.0,0.0,0.0,0.0,0.0,0.0,0.0,0.0,0.0,0.0,0.0,0.0,0.0,0.0,0.0,0.0,0.0,0.0,0.0,0.0,0.0,0.0,0.0,0.0,0.0,0.0,0.0,0.0,0.0,0.0,0.0,0.0,0.0,0.0,0.0,0.0,0.0,0.0,0.0,0.0,0.0,0.0,0.0,0.0,0.0,0.0,0.0,0.0,0.0,0.0,0.0,0.0,0.0,2.1445,2.2676,2.4434,2.5019,2.4336,2.2344,2.084,0.0,0.0,0.0,0.0,0.0,0.0,0.0,0.0,0.0,0.0,0.0,0.0,0.0,0.0,0.0,0.0,0.0,0.0,0.0,0.0,0.0,0.0,0.0,0.0,0.0,0.0,0.0,0.0,0.0,0.0,0.0,0.0,0.0,0.0,0.0,0.0,0.0,0.0,0.0,0.0,0.0,0.0,0.0,0.0,0.0,0.0,0.0,0.0,0.0,0.0,0.0,0.0,0.0,0.0,0.0,0.0,0.0,0.0,0.0,0.0,0.0,0.0,0.0,0.0,0.0,0.0,0.0,0.0,0.0,0.0,0.0,0.0,0.0,0.0,0.0,0.0,0.0,0.0,0.0,0.0,0.0,0.0,0.0,0.0,0.0,0.0,0.0,0.0,0.0,0.0,0.0,0.0,0.0,0.0,0.0,0.0,0.0,0.0,0.0,0.0,0.0,0.0,0.0,0.0,0.0,0.0,0.0,0.0,2.2207,2.375,2.5059,2.5547,2.5117,2.3867,2.2168,0.0,0.0,0.0,0.0,0.0,0.0,0.0,0.0,0.0,0.0,0.0,0.0,0.0,0.0,0.0,0.0,0.0,0.0,0.0,0.0,0.0,0.0,0.0,0.0,0.0,0.0,0.0,0.0,0.0,0.0,0.0,0.0,0.0,0.0,0.0,0.0,0.0,0.0,0.0,0.0,0.0,0.0,0.0,0.0,0.0,0.0,0.0,0.0,0.0,0.0,0.0,0.0,0.0,0.0,0.0,0.0,0.0,0.0,0.0,0.0,0.0,0.0,0.0,0.0,0.0,0.0,0.0,0.0,0.0,0.0,0.0,0.0,0.0,0.0,0.0,0.0,0.0,0.0,0.0,0.0,0.0,0.0,0.0,0.0,0.0,0.0,0.0,0.0,0.0,0.0,0.0,0.0,0.0,0.0,0.0,0.0,0.0,0.0,0.0,0.0,0.0,0.0,0.0,0.0,0.0,0.0,0.0,0.0,2.3066,2.3789,2.5059,2.5684,2.5586,2.4004,2.2285,0.0,0.0,0.0,0.0,0.0,0.0,0.0,0.0,0.0,0.0,0.0,0.0,0.0,0.0,0.0,0.0,0.0,0.0,0.0,0.0,0.0,0.0,0.0,0.0,0.0,0.0,0.0,0.0,0.0,0.0,0.0,0.0,0.0,0.0,0.0,0.0,0.0,0.0,0.0,0.0,0.0,0.0,0.0,0.0,0.0,0.0,0.0,0.0,1.8164,0.0,0.0,0.0,0.0,0.0,0.0,0.0,0.0,0.0,0.0,0.0,0.0,0.0,0.0,0.0,0.0,0.0,0.0,0.0,0.0,0.0,0.0,0.0,0.0,0.0,0.0,0.0,0.0,0.0,0.0,0.0,0.0,0.0,0.0,0.0,0.0,0.0,0.0,0.0,0.0,0.0,0.0,0.0,0.0,0.0,0.0,0.0,0.0,0.0,0.0,0.0,0.0,0.0,0.0,0.0,0.0,0.0,0.0,0.0,2.3555,2.4375,2.5273,2.5723,2.5703,2.4629,2.3144,0.0,0.0,0.0,0.0,0.0,0.0,0.0,0.0,0.0,0.0,0.0,0.0,0.0,0.0,0.0,0.0,0.0,0.0,0.0,0.0,0.0,0.0,0.0,0.0,0.0,0.0,0.0,0.0,0.0,0.0,0.0,0.0,0.0,0.0,0.0,0.0,0.0,0.0,0.0,0.0,0.0,0.0,0.0,0.0,0.0,0.0,0.0,0.0,0.0,0.0,0.0,0.0,0.0,0.0,0.0,0.0,0.0,0.0,0.0,0.0,0.0,0.0,0.0,0.0,0.0,0.0,0.0,0.0,0.0,0.0,0.0,0.0,0.0,0.0,0.0,0.0,0.0,0.0,0.0,0.0,0.0,0.0,0.0,0.0,0.0,0.0,0.0,0.0,0.0,0.0,0.0,0.0,0.0,0.0,0.0,0.0,0.0,0.0,0.0,0.0,0.0,0.0,0.0,0.0,0.0,0.0,0.0,2.2207,2.3809,2.5117,2.5547,2.5723,2.5723,2.5371,2.4141,2.1973,0.0,0.0,0.0,0.0,0.0,0.0,0.0,0.0,0.0,0.0,0.0,0.0,0.0,0.0,0.0,0.0,0.0,0.0,0.0,0.0,0.0,0.0,0.0,0.0,0.0,0.0,0.0,0.0,0.0,0.0,0.0,0.0,0.0,0.0,0.0,0.0,0.0,0.0,1.7187,1.8594,0.0,0.0,0.0,0.0,0.0,0.0,0.0,0.0,2.0675,0.0,0.0,0.0,0.0,0.0,0.0,0.0,0.0,0.0,0.0,0.0,0.0,0.0,0.0,0.0,0.0,0.0,0.0,0.0,0.0,0.0,0.0,0.0,0.0,0.0,0.0,0.0,0.0,0.0,0.0,0.0,0.0,0.0,0.0,0.0,0.0,0.0,0.0,0.0,0.0,0.0,0.0,0.0,0.0,0.0,0.0,0.0,0.0,0.0,0.0,0.0,0.0,0.0,0.0,0.0,0.0,2.2559,2.2969,2.3945,2.5566,2.5703,2.5723,2.5723,2.5664,2.4453,2.2012,0.0,0.0,0.0,0.0,0.0,0.0,0.0,0.0,0.0,0.0,0.0,0.0,0.0,0.0,0.0,0.0,0.0,0.0,0.0,0.0,0.0,0.0,0.0,0.0,0.0,0.0,0.0,0.0,0.0,0.0,0.0,0.0,0.0,0.0,0.0,0.0,0.0,0.0,0.0,2.0273,2.0957,0.0,0.0,0.0,0.0,0.0,0.0,0.0,0.0,2.2513,0.0,0.0,0.0,0.0,0.0,0.0,0.0,0.0,0.0,0.0,0.0,0.0,0.0,0.0,0.0,0.0,0.0,0.0,0.0,0.0,0.0,0.0,0.0,0.0,0.0,0.0,0.0,0.0,0.0,0.0,0.0,0.0,0.0,0.0,0.0,0.0,0.0,0.0,0.0,0.0,0.0,0.0,0.0,0.0,0.0,0.0,0.0,0.0,0.0,0.0,0.0,0.0,0.0,0.0,0.0,2.207,2.3242,2.4434,2.5684,2.5723,2.5723,2.5703,2.4883,2.3613,0.0,0.0,0.0,0.0,0.0,0.0,0.0,0.0,0.0,0.0,0.0,0.0,0.0,0.0,0.0,0.0,0.0,0.0,0.0,0.0,0.0,0.0,0.0,0.0,0.0,0.0,0.0,0.0,0.0,0.0,0.0,0.0,0.0,0.0,0.0,0.0,0.0,0.0,0.0,0.0,2.1016,2.166,2.1875,0.0,0.0,0.0,0.0,0.0,0.0,2.2745,2.3123,0.0,0.0,0.0,0.0,0.0,0.0,0.0,0.0,0.0,0.0,0.0,0.0,0.0,0.0,0.0,0.0,0.0,0.0,0.0,0.0,0.0,0.0,0.0,0.0,0.0,0.0,0.0,0.0,0.0,0.0,0.0,0.0,0.0,0.0,0.0,0.0,0.0,0.0,0.0,0.0,0.0,0.0,0.0,0.0,0.0,0.0,0.0,0.0,0.0,0.0,0.0,0.0,0.0,0.0,0.0,2.1367,2.3301,2.4766,2.5684,2.5723,2.5723,2.5703,2.4316,2.2988,0.0,0.0,0.0,0.0,0.0,0.0,0.0,0.0,0.0,0.0,0.0,0.0,0.0,0.0,0.0,0.0,0.0,0.0,0.0,0.0,0.0,0.0,0.0,0.0,0.0,0.0,0.0,0.0,0.0,0.0,0.0,0.0,0.0,0.0,0.0,0.0,0.0,0.0,0.0,0.0,0.0,2.2461,2.2617,2.2422,0.0,0.0,0.0,0.0,2.3906,2.4223,0.0,0.0,0.0,0.0,0.0,0.0,0.0,0.0,0.0,0.0,0.0,0.0,0.0,0.0,0.0,0.0,0.0,0.0,0.0,0.0,0.0,0.0,0.0,0.0,0.0,0.0,0.0,0.0,0.0,0.0,0.0,0.0,0.0,0.0,0.0,0.0,0.0,0.0,0.0,0.0,0.0,0.0,0.0,0.0,0.0,0.0,0.0,0.0,0.0,0.0,0.0,0.0,0.0,0.0,0.0,0.0,2.1758,2.3164,2.4473,2.5664,2.5723,2.5723,2.5723,2.5156,2.373,0.0,0.0,0.0,0.0,0.0,0.0,0.0,0.0,0.0,0.0,0.0,0.0,0.0,0.0,0.0,0.0,0.0,0.0,0.0,0.0,0.0,0.0,0.0,0.0,0.0,0.0,0.0,0.0,0.0,0.0,0.0,0.0,0.0,0.0,0.0,0.0,0.0,0.0,0.0,0.0,0.0,2.3867,2.3184,2.3359,2.3555,0.0,0.0,2.5419,2.5883,2.8068,0.0,0.0,0.0,0.0,0.0,0.0,0.0,0.0,0.0,0.0,0.0,0.0,0.0,0.0,0.0,0.0,0.0,0.0,0.0,0.0,0.0,0.0,0.0,0.0,0.0,0.0,0.0,0.0,0.0,0.0,0.0,0.0,0.0,0.0,0.0,0.0,0.0,0.0,0.0,0.0,0.0,0.0,0.0,0.0,0.0,0.0,0.0,0.0,0.0,0.0,0.0,0.0,0.0,0.0,0.0,2.0195,2.1875,2.3613,2.4902,2.5703,2.5723,2.5723,2.5723,2.4355,2.2871,0.0,0.0,0.0,0.0,0.0,0.0,0.0,0.0,0.0,0.0,0.0,0.0,0.0,0.0,0.0,0.0,0.0,0.0,0.0,0.0,0.0,0.0,0.0,0.0,0.0,0.0,0.0,0.0,0.0,0.0,0.0,0.0,0.0,0.0,0.0,0.0,0.0,0.0,0.0,0.0,0.0,0.0,2.3887,2.4238,0.0,0.0,0.0,2.7536,2.8991,0.0,0.0,0.0,0.0,0.0,0.0,0.0,0.0,0.0,0.0,0.0,0.0,0.0,0.0,0.0,0.0,0.0,0.0,0.0,0.0,0.0,0.0,0.0,0.0,0.0,0.0,0.0,0.0,0.0,0.0,0.0,0.0,0.0,0.0,0.0,0.0,0.0,0.0,0.0,0.0,0.0,0.0,0.0,0.0,0.0,0.0,0.0,0.0,0.0,0.0,0.0,0.0,0.0,0.0,0.0,0.0,0.0,2.1569,2.3971,2.5391,2.5723,2.5723,2.5723,2.5703,2.3945,0.0,0.0,0.0,0.0,0.0,0.0,0.0,0.0,0.0,0.0,0.0,0.0,0.0,0.0,0.0,0.0,0.0,0.0,0.0,0.0,0.0,0.0,0.0,0.0,0.0,0.0,0.0,1.5547,0.0,0.0,0.0,0.0,0.0,0.0,0.0,0.0,0.0,0.0,0.0,0.0,0.0,0.0,2.4512,2.4707,2.5312,2.6304,0.0,0.0,2.9427,3.1612,3.2298,3.1952,0.0,0.0,0.0,0.0,0.0,0.0,0.0,0.0,0.0,0.0,0.0,0.0,0.0,0.0,0.0,0.0,0.0,0.0,0.0,0.0,0.0,0.0,0.0,0.0,0.0,0.0,0.0,0.0,0.0,0.0,0.0,0.0,0.0,0.0,0.0,0.0,0.0,0.0,0.0,0.0,0.0,0.0,0.0,0.0,0.0,0.0,0.0,0.0,0.0,0.0,0.0,0.0,0.0,0.0,0.0,2.0837,2.3929,2.5703,2.5742,2.5723,2.5723,2.5723,2.4805,2.3144,0.0,0.0,0.0,0.0,0.0,0.0,0.0,0.0,0.0,0.0,0.0,0.0,0.0,0.0,0.0,0.0,0.0,0.0,0.0,0.0,0.0,0.0,0.0,0.0,0.0,0.0,0.0,0.0,0.0,0.0,0.0,0.0,0.0,0.0,0.0,0.0,0.0,0.0,0.0,0.0,0.0,2.6074,2.5703,2.6699,2.8221,0.0,0.0,3.1422,3.3268,3.4911,3.4936,3.1813,0.0,0.0,0.0,0.0,0.0,0.0,0.0,0.0,0.0,0.0,0.0,0.0,0.0,0.0,0.0,0.0,0.0,0.0,0.0,0.0,0.0,0.0,0.0,0.0,0.0,0.0,0.0,0.0,0.0,0.0,0.0,0.0,0.0,0.0,0.0,0.0,0.0,0.0,0.0,0.0,0.0,0.0,0.0,0.0,0.0,0.0,0.0,0.0,0.0,0.0,0.0,0.0,0.0,2.0598,2.0642,2.422,2.6014,2.5739,2.5995,2.6016,2.5742,2.5137,2.373,0.0,0.0,0.0,0.0,0.0,0.0,0.0,0.0,0.0,0.0,0.0,0.0,0.0,0.0,0.0,0.0,0.0,0.0,0.0,0.0,0.0,0.0,0.0,0.0,0.0,0.0,0.0,0.0,1.6777,1.6973,1.7227,0.0,0.0,0.0,0.0,0.0,0.0,0.0,0.0,0.0,0.0,2.6602,2.7226,2.7969,0.0,0.0,3.253,3.3646,3.6015,3.6347,3.5579,3.3294,3.219,0.0,0.0,0.0,0.0,0.0,0.0,0.0,0.0,0.0,0.0,0.0,0.0,0.0,0.0,0.0,0.0,0.0,0.0,0.0,0.0,0.0,0.0,0.0,0.0,0.0,0.0,0.0,0.0,0.0,0.0,0.0,0.0,0.0,0.0,0.0,0.0,0.0,0.0,0.0,0.0,0.0,0.0,0.0,0.0,0.0,0.0,0.0,0.0,0.0,0.0,0.0,0.0,2.0951,2.1588,2.4639,2.6131,2.5971,2.6131,2.6113,2.5918,2.5371,2.4199,0.0,0.0,0.0,0.0,0.0,0.0,0.0,0.0,0.0,0.0,0.0,0.0,0.0,0.0,0.0,0.0,0.0,0.0,0.0,0.0,0.0,0.0,0.0,0.0,0.0,0.0,0.0,0.0,1.7305,1.7671,1.8355,0.0,0.0,0.0,0.0,0.0,0.0,0.0,0.0,0.0,0.0,2.8799,2.9864,3.0396,3.1569,3.4139,3.4383,3.5184,3.7643,3.7362,3.6307,3.4675,0.0,0.0,0.0,0.0,0.0,0.0,0.0,0.0,0.0,0.0,0.0,0.0,0.0,0.0,0.0,0.0,0.0,0.0,0.0,0.0,0.0,0.0,0.0,0.0,0.0,0.0,0.0,1.543,0.0,0.0,1.5371,0.0,0.0,0.0,0.0,0.0,0.0,0.0,0.0,0.0,0.0,0.0,0.0,0.0,0.0,0.0,0.0,0.0,0.0,0.0,0.0,0.0,0.0,2.1727,2.3934,2.5149,2.5996,2.6526,2.5996,2.5977,2.6348,2.5527,2.4453,2.3144,0.0,0.0,0.0,0.0,0.0,0.0,0.0,0.0,0.0,0.0,0.0,0.0,0.0,0.0,0.0,0.0,0.0,0.0,0.0,0.0,0.0,0.0,0.0,0.0,0.0,0.0,1.6797,1.7148,1.7889,0.0,0.0,0.0,0.0,0.0,0.0,0.0,0.0,0.0,0.0,3.1174,3.3263,3.3802,3.419,3.5114,3.7121,3.6169,3.5885,3.7792,3.8015,3.7412,0.0,0.0,0.0,0.0,0.0,0.0,0.0,0.0,0.0,0.0,0.0,0.0,0.0,0.0,0.0,0.0,0.0,0.0,0.0,0.0,0.0,0.0,0.0,0.0,0.0,0.0,0.0,1.7035,1.5559,0.0,0.0,0.0,0.0,0.0,0.0,0.0,0.0,0.0,0.0,0.0,2.125,2.1953,0.0,0.0,0.0,0.0,0.0,0.0,0.0,0.0,0.0,0.0,0.0,0.0,2.2271,2.3959,2.5702,2.6797,2.7065,2.6523,2.6367,2.6777,2.5957,2.4766,2.3184,0.0,0.0,0.0,0.0,0.0,0.0,0.0,0.0,0.0,0.0,0.0,0.0,0.0,0.0,0.0,0.0,0.0,0.0,0.0,0.0,0.0,0.0,0.0,0.0,0.0,1.7266,0.0,0.0,0.0,0.0,0.0,0.0,0.0,0.0,0.0,0.0,0.0,2.8381,3.0049,3.2317,3.4155,3.5218,3.5533,3.6246,0.0,0.0,0.0,0.0,0.0,0.0,0.0,0.0,0.0,0.0,0.0,0.0,0.0,0.0,3.9521,3.4776,3.3445,3.3068,3.3043,0.0,0.0,0.0,0.0,0.0,0.0,0.0,0.0,0.0,0.0,0.0,0.0,0.0,0.0,1.882,0.0,1.8414,0.0,0.0,0.0,0.0,0.0,0.0,0.0,0.0,2.2637,2.3379,2.3262,2.4082,2.3984,0.0,2.3164,2.2129,0.0,0.0,0.0,0.0,0.0,0.0,0.0,0.0,2.2891,2.4585,2.6152,2.7207,2.7454,2.6816,2.6602,2.6992,2.6328,2.5371,2.4082,2.3223,2.1973,0.0,0.0,0.0,0.0,0.0,0.0,0.0,0.0,0.0,0.0,0.0,0.0,0.0,0.0,0.0,0.0,0.0,0.0,0.0,0.0,0.0,0.0,0.0,1.7988,0.0,0.0,0.0,0.0,0.0,0.0,0.0,0.0,0.0,2.6949,2.9363,3.1951,3.3652,3.5497,3.7002,3.8067,0.0,0.0,0.0,0.0,0.0,0.0,0.0,3.9923,4.045,4.0249,4.0124,4.0501,4.2208,4.3438,4.3062,0.0,0.0,3.8467,3.7312,3.7061,3.7061,3.7186,3.7412,3.7764,3.799,3.8241,0.0,0.0,0.0,0.0,0.0,0.0,0.0,0.0,2.0801,2.086,0.0,2.0684,0.0,0.0,0.0,0.0,0.0,2.1543,0.0,0.0,2.5156,2.6172,2.584,2.6602,2.6816,2.6484,2.6797,2.5918,2.3867,2.1426,0.0,0.0,0.0,0.0,0.0,0.0,2.3613,2.5625,2.6543,2.7226,2.7598,2.6797,2.6562,2.6953,2.6641,2.623,2.5762,2.4941,2.3711,2.2051,2.0723,0.0,0.0,0.0,0.0,0.0,0.0,0.0,0.0,0.0,0.0,0.0,0.0,0.0,0.0,0.0,0.0,0.0,0.0,0.0,0.0,1.8184,0.0,0.0,0.0,0.0,0.0,0.0,0.0,0.0,0.0,0.0,3.2476,3.4775,3.7204,3.9005,0.0,0.0,0.0,0.0,4.1404,4.1372,4.1455,4.148,4.148,4.2283,4.276,4.2308,0.0,0.0,4.2459,4.3614,4.4342,4.3313,4.4041,4.4669,4.4543,4.3388,4.276,4.276,4.2258,4.2158,4.2208,4.2308,4.2735,2.459,0.0,0.0,0.0,0.0,2.3125,2.373,2.4727,2.4727,2.4524,2.4161,2.3315,0.0,0.0,0.0,0.0,0.0,0.0,2.3926,2.4844,2.5918,2.6641,2.7109,2.7363,2.7559,2.7754,2.7871,2.7598,2.6973,2.5957,2.3516,1.9824,0.0,0.0,0.0,0.0,2.4648,2.5293,2.6426,2.707,2.7187,2.6367,2.6133,2.6562,2.7051,2.709,2.666,2.6406,2.5625,2.4199,2.2637,0.0,0.0,0.0,0.0,0.0,0.0,0.0,0.0,0.0,0.0,0.0,0.0,0.0,0.0,0.0,0.0,0.0,0.0,0.0,1.9062,1.9394,2.0215,0.0,0.0,0.0,0.0,0.0,0.0,0.0,0.0,0.0,3.9128,3.8766,3.8851,0.0,0.0,4.2108,4.266,4.261,4.2785,4.3589,4.3689,0.0,4.3689,4.3288,4.3187,4.3815,4.4518,4.502,4.5095,4.5497,4.5723,4.5397,4.5598,4.5824,4.5723,4.4593,4.3639,4.3539,4.3438,4.3463,4.384,4.4066,4.4166,2.8164,2.6504,2.5234,2.498,2.543,2.5449,2.5996,2.6875,2.6719,2.6448,2.6209,2.5441,2.5513,2.6081,2.3304,0.0,0.0,0.0,2.5332,2.6269,2.6875,2.7422,2.791,2.8135,2.8535,2.8789,2.8937,2.8839,2.8535,2.8281,2.6328,2.2832,0.0,0.0,2.2676,2.459,2.5918,2.6582,2.7207,2.7598,2.7754,2.6777,2.6367,2.6641,2.6973,2.7187,2.7266,2.7266,2.6836,2.5879,2.4531,2.2852,0.0,0.0,0.0,0.0,0.0,0.0,0.0,0.0,0.0,0.0,0.0,1.8457,1.6836,0.0,0.0,0.0,1.8809,2.0039,2.1562,2.2012,0.0,0.0,0.0,0.0,0.0,0.0,0.0,3.5534,3.9077,4.1781,4.2961,4.2312,4.1907,4.211,4.2673,4.3338,4.389,0.0,4.3865,4.4518,4.4819,4.497,4.4945,4.4593,4.4518,4.5171,4.5573,4.5899,4.6225,4.6326,4.6326,4.6326,4.6326,4.6326,4.6326,4.5472,4.4794,4.4794,4.4794,4.492,4.5246,4.5296,4.5296,3.1328,3.0742,2.8398,2.7383,2.7266,2.7226,2.7422,2.7734,2.7344,2.7129,2.709,2.707,2.7043,2.6873,2.5317,0.0,2.5898,2.6309,2.6699,2.7148,2.7969,2.8359,2.8437,2.9069,2.9458,2.9668,2.9951,2.9754,2.9101,2.9082,2.8437,2.7207,2.6016,2.5566,2.5859,2.6348,2.7344,2.8828,2.8516,2.8496,2.8789,2.7676,2.7051,2.7012,2.6641,2.6797,2.7578,2.7617,2.7441,2.7051,2.625,2.4687,2.2324,0.0,0.0,0.0,0.0,0.0,0.0,0.0,0.0,0.0,0.0,0.0,0.0,0.0,0.0,0.0,2.2012,0.0,2.4512,2.5391,0.0,0.0,0.0,2.8495,3.1443,3.4098,3.6587,3.9282,0.0,0.0,4.4644,4.5196,4.5547,4.5547,4.5045,4.4895,4.5422,4.4995,4.4719,4.4819,4.5221,4.5547,4.5573,4.5874,4.6125,4.62,4.6326,4.6301,4.6301,4.6326,4.6326,4.6326,4.6326,4.6326,4.6326,4.6225,4.6301,4.6225,4.625,4.6276,4.6225,4.6225,4.62,3.1758,3.1348,3.1055,3.0371,2.9414,2.9101,2.8828,2.8613,2.8516,2.8251,2.793,2.7663,2.729,2.6962,2.6584,2.6699,2.7207,2.7324,2.7578,2.8008,2.8535,2.8945,2.9277,2.9785,3.0215,3.0566,3.0701,3.0547,3.043,3.043,2.9922,2.8984,2.8652,2.7891,2.6797,2.7773,2.8359,2.8437,2.8652,2.8516,2.7969,2.7656,2.7363,2.7012,2.6914,2.6953,2.7168,2.7168,2.7285,2.748,2.6699,2.5801,2.4844,2.2246,0.0,0.0,0.0,0.0,0.0,0.0,0.0,0.0,0.0,2.25,1.9375,0.0,2.373,0.0,2.4199,2.5371,2.6309,2.6894,0.0,0.0,3.0156,3.0878,3.3248,3.4876,3.6589,3.8874,4.1422,4.3625,4.5128,4.5773,4.6125,4.61,4.5648,4.5321,4.5472,4.5372,4.5447,4.5799,4.5999,4.6125,4.61,4.6225,4.6326,4.6326,4.6326,4.6326,4.6326,4.6326,4.6326,4.6326,4.6326,4.6326,4.6326,4.6326,4.6326,4.6326,4.6326,4.6326,4.6326,4.6326,4.6326,3.2578,3.2363,3.2422,3.2012,3.1309,3.0703,3.0195,2.9785,2.957,2.9141,2.8643,2.8447,2.8114,2.7598,2.7578,2.7715,2.793,2.7949,2.8066,2.832,2.8926,2.9336,2.959,3.0215,3.0644,3.0898,3.0898,3.0898,3.0898,3.0898,3.0644,3.0156,3.0156,2.9687,2.8789,2.9062,2.9277,2.9434,2.9473,2.9082,2.8262,2.8047,2.7734,2.7324,2.7109,2.6934,2.6738,2.6914,2.7031,2.709,2.692,2.6369,2.5449,2.4812,2.3431,0.0,0.0,0.0,0.0,0.0,0.0,0.0,0.0,0.0,0.0,0.0,2.5527,2.5254,2.6934,2.8379,2.9238,3.0039,3.1172,3.2773,3.2715,3.35,3.5489,3.6411,3.7902,4.0747,4.231,4.3916,4.561,4.6125,4.6326,4.6301,4.605,4.5849,4.5849,4.5849,4.5974,4.625,4.6326,4.6326,4.6326,4.6326,4.6326,4.6326,4.6326,4.6326,4.6326,4.6326,4.6326,4.6326,4.6326,4.6326,4.6326,4.6326,4.6326,4.6326,4.6326,4.6326,4.6326,4.6326,4.6326,3.3418,3.3379,3.3027,3.2871,3.2812,3.207,3.1465,3.0937,3.041,2.9809,2.925,2.9309,2.8957,2.8457,2.8457,2.8457,2.8457,2.8516,2.8535,2.8594,2.9414,2.9824,2.9863,3.0664,3.1035,3.1055,3.1055,3.1152,3.1386,3.1113,3.1074,3.1307,3.1015,3.0898,3.0859,3.0117,3.0117,3.0859,3.0488,2.9902,2.9101,2.873,2.8281,2.7773,2.7324,2.6875,2.6426,2.6738,2.6797,2.6504,2.7062,2.6884,2.5624,2.7096,2.6584,0.0,2.2598,0.0,0.0,0.0,0.0,0.0,0.0,0.0,0.0,2.6953,2.7344,2.7637,2.9922,3.166,3.2344,3.3457,3.4316,3.4726,3.4785,3.5599,3.7425,3.7618,3.9174,4.2911,4.3333,4.4103,4.5914,4.6326,4.6326,4.6301,4.6301,4.625,4.6301,4.6276,4.6276,4.6326,4.6326,4.6326,4.6326,4.6326,4.6326,4.6326,4.6326,4.6326,4.6326,4.6326,4.6326,4.6326,4.6326,4.6326,4.6326,4.6326,4.6326,4.6326,4.6326,4.6326,4.6326,4.6326,4.6326,3.3418,3.3418,3.334,3.3301,3.3281,3.3125,3.2422,3.1348,3.0547,2.9961,2.9551,2.9492,2.9414,2.9336,2.9336,2.9336,2.9355,2.9687,2.9824,2.9883,3.0742,3.1152,3.1172,3.1382,3.1735,3.1914,3.1614,3.2296,3.372,3.2117,3.2076,3.3298,3.1716,3.0898,3.0879,0.0,0.0,0.0,3.0801,3.0508,2.998,2.9883,2.9297,2.8203,2.7773,0.0,2.6445,2.6465,2.6621,2.6894,2.7369,0.0,0.0,0.0,0.0,0.0,0.0,0.0,0.0,0.0,0.0,0.0,2.8476,2.8184,2.7578,2.998,3.1484,3.1269,3.2891,3.3906,3.373,3.4219,3.4766,3.5195,3.5254,3.5563,3.6226,3.642,3.7739,4.1158,4.1693,4.2832,4.5793,4.6326,4.6326,4.6326,4.6326,4.6326,4.6326,4.6326,4.6326,4.6326,4.6326,4.6326,4.6326,4.6326,4.6326,4.6326,4.6326,4.6326,4.6326,4.6326,4.6326,4.6326,4.6326,4.6326,4.6326,4.6326,4.6326,4.6326,4.6326,4.6326,4.6326,4.6326,4.6326,3.3428,3.3418,3.3418,3.3418,0.0,3.3418,3.3066,3.2402,3.1777,3.0996,3.0234,3.0234,2.998,2.957,2.957,2.957,2.959,3.0,3.0195,3.0254,3.1113,3.1523,3.1523,3.1793,3.2007,3.2289,3.4101,3.4756,3.456,3.4307,3.455,3.5337,3.4104,3.3434,3.3434,3.2424,3.1652,3.0898,3.0898,3.0781,3.0547,3.0312,2.9805,2.8965,2.8516,0.0,0.0,0.0,0.0,0.0,0.0,0.0,0.0,0.0,0.0,2.7369,2.709,2.7051,2.7285,2.8125,2.918,3.043,3.1113,3.1016,2.998,3.1855,3.3105,3.3144,3.4297,3.4961,3.4766,3.5098,3.5449,3.5664,3.5703,3.6051,3.7018,3.6539,3.7688,4.1415,4.1693,4.2454,4.5793,4.6326,4.6326,4.6326,4.6326,4.6326,4.6326,4.6326,4.6326,4.6326,4.6326,4.6326,4.6326,4.6326,4.6326,4.6326,4.6326,4.6326,4.6326,4.6326,4.6326,4.6326,4.6326,4.6326,4.6326,4.6326,4.6326,4.6326,4.6326,4.6326,4.6326,4.6326,4.6326,3.3572,3.3535,3.3535,3.3476,3.3418,3.3418,3.3418,3.3398,0.0,0.0,0.0,3.1035,3.0586,2.9922,2.9844,2.9805,2.9844,3.0312,3.0547,3.0586,3.1445,3.1855,3.1875,3.225,3.2548,3.2993,3.6503,3.7288,3.5617,3.6556,3.72,3.7383,3.6613,3.6117,3.5668,3.4054,3.2498,3.1015,3.0898,3.0898,3.0879,3.0527,3.0117,2.9687,2.9258,2.8672,2.793,2.7891,2.7559,2.6875,2.7459,2.7835,2.8074,2.89,2.9459,2.9721,3.0156,3.043,3.0449,3.0918,3.1445,3.1934,3.293,3.3203,3.2441,3.3242,3.3906,3.4277,3.5039,3.5508,3.5508,3.5801,3.6035,3.6035,3.6035,3.6539,3.7822,3.7193,3.8221,4.2178,4.2328,4.2832,4.5793,4.6326,4.6326,4.6326,4.6326,4.6326,4.6326,4.6326,4.6326,4.6326,4.6326,4.6326,4.6326,4.6326,4.6326,4.6326,4.6326,4.6326,4.6326,4.6326,4.6326,4.6326,4.6326,4.6326,4.6326,4.6326,4.6326,4.6326,4.6326,4.6326,4.6326,4.6326,4.6326,3.4167,3.3965,3.3984,3.3769,3.3418,3.3418,3.3418,3.3379,3.2988,3.25,3.1973,3.1582,3.1367,3.123,3.0879,3.0703,3.0762,3.1523,3.1894,3.1934,3.2773,3.3144,3.3125,3.3164,3.3902,3.5373,3.7298,3.8726,3.95,3.8296,3.8206,3.9188,3.7679,3.5976,3.4346,3.3916,3.2806,3.1015,3.0898,3.0898,3.0898,3.084,3.0586,3.0117,2.9687,2.9258,2.8769,2.873,2.8691,2.8574,2.9055,2.9309,2.9297,2.978,3.0074,3.0137,3.0879,3.1328,3.1348,3.207,3.2871,3.3633,3.3887,3.3769,3.334,3.4394,3.5137,3.5234,3.5644,3.5937,3.5937,3.5976,3.6152,3.6152,3.6016,3.6152,3.6674,3.7575,3.9125,4.1437,4.2706,4.3979,4.5793,4.6326,4.6326,4.6326,4.6326,4.6326,4.6326,4.6326,4.6326,4.6326,4.6326,4.6326,4.6326,4.6326,4.6326,4.6326,4.6326,4.6326,4.6326,4.6326,4.6326,4.6326,4.6326,4.6326,4.6326,4.6326,4.6326,4.6326,4.6326,4.6326,4.6326,4.6326,4.6326,3.4975,3.4434,3.4414,3.4297,3.4101,3.3867,3.3769,3.373,3.332,3.291,3.248,3.2051,3.1738,3.1484,3.1074,3.1016,3.1269,3.1875,3.2305,3.2559,3.3144,3.3418,3.3379,3.3406,3.3797,3.4716,3.8874,4.0294,3.9405,4.0124,4.0967,4.1506,4.041,3.8718,3.6771,3.5839,3.4602,3.2921,3.1562,3.0898,3.0898,3.0898,3.111,3.1767,3.134,3.1014,3.0791,3.0567,3.0218,2.959,2.9805,3.0137,3.0605,3.0801,3.1016,3.1269,3.1855,3.2207,3.2207,3.3008,3.3652,3.4062,3.4531,3.508,3.5875,3.5547,3.5488,3.5703,3.5918,3.6035,3.6016,3.6789,3.7441,3.7441,3.8221,3.8861,3.8861,3.9497,4.0666,4.2328,4.3208,4.4374,4.6059,4.6326,4.6326,4.6326,4.6326,4.6326,4.6326,4.6326,4.6326,4.6326,4.6326,4.6326,4.6326,4.6326,4.6326,4.6326,4.6326,4.6326,4.6326,4.6326,4.6326,4.6326,4.6326,4.6326,4.6326,4.6326,4.6326,4.6326,4.6326,4.6326,4.6326,4.6326,4.6326,3.5599,3.4863,3.4863,3.4805,3.4668,3.4355,3.418,3.4043,3.3711,3.334,3.291,3.25,3.2109,3.1777,3.1367,3.1367,3.1699,3.2109,3.248,3.2812,3.3223,3.3418,3.334,3.343,3.3819,3.4923,3.959,4.099,3.9756,4.1785,4.2986,4.2936,4.2534,4.1373,3.9324,3.8065,3.6511,3.4517,3.2626,3.1505,3.1172,3.1505,3.2281,3.3257,3.3465,3.3386,3.3364,3.3155,3.2358,3.1257,3.1182,3.15,3.2177,3.2316,3.2655,3.3357,3.3394,3.357,3.3709,3.4306,3.4784,3.4983,3.5619,3.6567,3.7791,3.7328,3.6809,3.7132,3.6924,3.6789,3.7307,3.8353,3.9256,3.9256,4.0408,4.0924,4.1181,4.1565,4.2201,4.3482,4.3979,4.489,4.5914,4.6326,4.6326,4.6326,4.6326,4.6326,4.6326,4.6326,4.6326,4.6326,4.6326,4.6326,4.6326,4.6326,4.6326,4.6326,4.6326,4.6326,4.6326,4.6326,4.6326,4.6326,4.6326,4.6326,4.6326,4.6326,4.6326,4.6326,4.6326,4.6326,4.6326,4.6326,4.6326,3.5723,3.5351,3.5332,3.5078,3.4746,3.4668,3.4434,3.4121,3.4023,3.3769,3.332,3.291,3.2695,3.2474,3.2187,3.2051,3.2129,3.2539,3.2754,3.2851,3.3223,3.3418,3.3446,3.3336,3.4924,3.7405,3.8551,4.0306,4.2125,4.2737,4.2986,4.2986,4.2911,4.1917,4.017,3.976,3.8022,3.456,3.424,3.353,3.2293,3.3411,3.4198,3.4316,3.5742,3.6521,3.6409,3.6476,3.5654,3.4232,3.4094,3.4156,3.4185,3.4658,3.5487,3.6854,3.6097,3.5809,3.6206,3.6248,3.6665,3.7415,3.7582,3.7984,3.8735,3.9823,4.06,4.0537,3.9256,3.8993,4.0537,4.0795,4.0924,4.0924,4.1309,4.1181,4.1565,4.258,4.3583,4.3606,4.5013,4.618,4.618,4.6326,4.6326,4.6326,4.6376,4.6376,4.6326,4.6376,4.6351,4.6326,4.6326,4.6326,4.6326,4.6326,4.6326,4.6326,4.6326,4.6326,4.6326,4.6326,4.6326,4.6326,4.6326,4.6326,4.6326,4.6326,4.6326,4.6326,4.6326,4.6326,4.6326,4.6326,4.6326,3.5918,3.5762,3.5762,3.5664,3.5469,3.5215,3.5019,3.4824,3.4297,3.3797,3.3417,3.3194,3.3047,3.2956,3.2505,3.2305,3.2539,3.2715,3.293,3.327,3.4302,3.4383,3.3426,3.3335,3.4568,3.7035,3.9635,4.1208,4.1687,4.2513,4.2986,4.2986,4.2986,4.2637,4.1692,4.0877,3.9567,3.8202,3.7148,3.6318,3.5678,3.4952,3.4891,3.5801,3.7292,3.8218,3.8195,3.8218,3.72,3.5155,3.579,3.6037,3.5339,3.6372,3.7198,3.7836,3.778,3.7767,3.8087,3.851,3.9012,3.9406,3.9689,4.0338,4.1392,4.1437,4.1947,4.3482,4.1693,4.0537,4.1181,4.2074,4.2706,4.2832,4.3606,4.4127,4.4251,4.4767,4.5257,4.5281,4.5793,4.6326,4.6326,4.6326,4.6326,4.6376,4.6552,4.6677,4.6426,4.6577,4.6627,4.6401,4.6326,4.6326,4.6326,4.6326,4.6326,4.6326,4.6326,4.6326,4.6326,4.6326,4.6326,4.6326,4.6326,4.6326,4.6326,4.6326,4.6326,4.6326,4.6326,4.6326,4.6326,4.6326,4.6326,3.6035,3.6035,3.6035,3.6035,3.5996,3.5703,3.5488,3.5332,3.4707,3.4037,3.3489,3.3603,3.3583,3.3289,3.2715,3.2695,3.2949,3.2969,3.3125,3.3524,3.4612,3.4736,3.4013,3.3577,3.4749,3.7449,4.1105,4.2411,4.1444,4.2375,4.2986,4.2986,4.2986,4.2986,4.2849,4.1785,4.1076,4.0453,3.9405,3.8698,3.8111,3.692,3.6684,3.7839,3.9338,4.0144,4.0144,4.0144,3.9165,3.6837,3.7803,3.8078,3.7199,3.8335,3.9209,3.9368,4.0048,4.0445,4.022,4.0783,4.124,4.1399,4.1765,4.2454,4.3208,4.2958,4.3755,4.5525,4.4003,4.258,4.273,4.3731,4.4374,4.4497,4.5646,4.6326,4.618,4.6326,4.618,4.6326,4.618,4.6326,4.6326,4.6326,4.6351,4.6577,4.6878,4.7129,4.6853,4.7079,4.7154,4.6627,4.6552,4.6476,4.6351,4.6326,4.6326,4.6326,4.6326,4.6326,4.6326,4.6326,4.6326,4.6326,4.6326,4.6326,4.6326,4.6326,4.6326,4.6326,4.6326,4.6326,4.6326,4.6326,4.6326,3.6035,3.6035,3.6035,3.6035,3.6016,3.5976,3.5762,3.543,3.5312,3.4564,3.3612,3.3882,3.3836,3.3425,3.333,3.3359,3.3379,3.3359,3.3379,3.3418,3.365,3.4383,3.5539,3.4207,3.5883,3.9873,4.188,4.296,4.2762,4.2986,4.2986,4.2986,4.2986,4.2986,4.2986,4.2849,4.215,4.0822,4.0592,3.9896,3.8698,3.957,4.0219,4.0449,4.1914,4.2588,4.2724,4.2749,4.1938,4.0313,4.029,4.0429,4.0408,4.0951,4.1567,4.2114,4.3468,4.3831,4.2999,4.28,4.3037,4.344,4.3559,4.3606,4.3979,4.489,4.5793,4.6301,4.5939,4.5671,4.5671,4.5671,4.5914,4.5939,4.618,4.6326,4.6326,4.6326,4.6326,4.6326,4.6326,4.6326,4.6326,4.6326,4.6552,4.6878,4.7104,4.7255,4.7631,4.7807,4.7657,4.728,4.7054,4.6928,4.6476,4.6326,4.6326,4.6326,4.6326,4.6326,4.6326,4.6326,4.6326,4.6326,4.6326,4.6326,4.6326,4.6326,4.6326,4.6326,4.6326,4.6326,4.6326,4.6326,4.6326,3.6035,3.6035,3.6035,3.6035,3.6035,3.6035,3.5918,3.5781,3.5508,3.5293,3.5078,3.4668,3.4128,3.3392,3.3739,3.3691,3.3437,3.3418,3.3418,3.3544,3.4507,3.5211,3.5928,3.8194,3.9615,4.0639,4.2233,4.2962,4.3011,4.2986,4.2986,4.2986,4.2986,4.2986,4.2986,4.2986,4.2625,4.2263,4.215,4.1785,4.1305,4.1899,4.2125,4.215,4.2737,4.2986,4.2986,4.2986,4.2263,4.0707,4.1558,4.1818,4.1348,4.2555,4.3555,4.3777,4.4618,4.501,4.4734,4.4935,4.5182,4.5379,4.5403,4.5281,4.5403,4.5914,4.6326,4.6326,4.6326,4.6326,4.6326,4.6326,4.6326,4.6326,4.6326,4.6326,4.6326,4.6326,4.6326,4.6326,4.6326,4.6326,4.6351,4.6326,4.6527,4.7029,4.7431,4.7707,4.7908,4.8184,4.8259,4.7782,4.7631,4.7556,4.7405,4.6677,4.6326,4.6326,4.6326,4.6351,4.6376,4.6451,4.6476,4.6451,4.6426,4.6451,4.6502,4.6426,4.6401,4.6326,4.6326,4.6326,4.6326,4.6326,4.6326,3.6035,3.6035,3.6035,3.6035,3.6016,3.6674,3.6789,3.6904,3.7136,3.6821,3.6037,3.583,3.5811,3.5739,3.5389,3.4999,3.4532,3.3808,3.3418,3.3544,3.5088,3.589,3.6673,4.0101,4.1537,4.1085,4.2312,4.2986,4.2986,4.2986,4.2986,4.2986,4.2986,4.2986,4.2986,4.2986,4.2986,4.2986,4.2986,4.2986,4.2986,4.2986,4.2986,4.2986,4.2986,4.2986,4.2986,4.2986,4.2513,4.1672,4.2524,4.3084,4.2939,4.4085,4.4995,4.5171,4.5522,4.5748,4.5773,4.61,4.6301,4.6326,4.6301,4.6326,4.6326,4.6326,4.6326,4.6326,4.6326,4.6326,4.6326,4.6326,4.6326,4.6326,4.6326,4.6326,4.6326,4.6326,4.6326,4.6326,4.6326,4.6376,4.6527,4.6577,4.6954,4.7556,4.7983,4.8209,4.846,4.8736,4.8736,4.8083,4.7883,4.7732,4.7531,4.6928,4.6928,4.6954,4.6903,4.6778,4.6702,4.6728,4.6677,4.6627,4.6627,4.6677,4.6652,4.6577,4.6502,4.6401,4.6326,4.6326,4.6326,4.6326,4.6376,3.6035,3.6016,3.6016,3.6152,3.6539,3.7955,3.8618,3.8861,4.0256,3.9087,3.6963,3.7384,3.8916,3.9973,3.821,3.7297,3.6559,3.4972,3.3915,3.3788,3.5211,3.6265,3.6894,3.9281,4.0976,4.1588,4.2559,4.3062,4.3137,4.3162,4.3162,4.3062,4.3137,4.3212,4.3037,4.3162,4.3087,4.3112,4.3162,4.3112,4.3011,4.3112,4.3162,4.3112,4.3112,4.3137,4.3087,4.3062,4.3062,4.2975,4.3539,4.4317,4.5053,4.5447,4.5698,4.6075,4.6276,4.6276,4.6276,4.6301,4.6326,4.6326,4.6326,4.6326,4.6326,4.6326,4.6326,4.6326,4.6326,4.6326,4.6326,4.6326,4.6326,4.6326,4.6326,4.6326,4.6326,4.6326,4.6326,4.6376,4.6401,4.6577,4.6954,4.7129,4.7506,4.8284,4.8636,4.8786,4.9113,4.9339,4.9038,4.8259,4.8008,4.8033,4.7606,4.7205,4.7531,4.7757,4.7682,4.7606,4.7481,4.7456,4.7305,4.723,4.7305,4.733,4.7179,4.7079,4.6853,4.6728,4.6552,4.6476,4.6527,4.6577,4.6527,3.6035,3.6152,3.7307,3.7842,3.7955,3.9627,4.0408,4.0408,4.1052,4.0555,3.9779,4.0037,4.0573,4.0845,4.0018,3.876,3.7424,3.7484,3.6645,3.5051,3.614,3.742,3.8817,4.0676,4.2256,4.3339,4.3961,4.4091,4.4091,4.4091,4.4116,4.4116,4.4091,4.4116,4.4066,4.4091,4.3951,4.3762,4.3951,4.3951,4.3762,4.3951,4.4091,4.4116,4.4116,4.4116,4.4091,4.374,4.3564,4.3564,4.4066,4.4719,4.5372,4.5849,4.6125,4.6276,4.6326,4.6326,4.6326,4.6326,4.6326,4.6326,4.6326,4.6326,4.6326,4.6326,4.6326,4.6326,4.6326,4.6326,4.6326,4.6326,4.6326,4.6326,4.6326,4.6326,4.6376,4.6351,4.6502,4.6803,4.6878,4.7129,4.7506,4.7657,4.7983,4.8636,4.8812,4.8937,4.9038,4.9364,4.9138,4.8184,4.8259,4.8309,4.7983,4.7908,4.8234,4.8385,4.836,4.8284,4.8209,4.8134,4.7958,4.7883,4.7958,4.7883,4.7732,4.7581,4.738,4.723,4.7179,4.7079,4.6954,4.6954,4.6979,3.6403,3.7038,3.8088,3.8993,3.9758,4.1437,4.2074,4.2201,4.2832,4.3098,4.2962,4.242,4.2477,4.2762,4.2108,4.0909,3.9863,4.0842,3.9841,3.7503,3.7678,3.8543,3.9427,4.1475,4.319,4.4386,4.4618,4.4618,4.4618,4.4618,4.4618,4.4618,4.4618,4.4593,4.4618,4.4618,4.4427,4.4211,4.4402,4.4618,4.4477,4.4593,4.4618,4.4618,4.4618,4.4618,4.4593,4.4468,4.4317,4.4242,4.4644,4.5196,4.5748,4.6125,4.6326,4.6326,4.6326,4.6326,4.6326,4.6326,4.6326,4.6326,4.6326,4.6326,4.6326,4.6326,4.6326,4.6326,4.6326,4.6326,4.6326,4.6326,4.6326,4.6326,4.6326,4.6401,4.6552,4.6627,4.6853,4.7255,4.7405,4.7682,4.8058,4.8234,4.846,4.8937,4.9088,4.8937,4.8912,4.9063,4.856,4.8159,4.8058,4.8159,4.8385,4.8611,4.8937,4.9012,4.8987,4.8887,4.8812,4.8812,4.8711,4.8611,4.8636,4.841,4.8234,4.8234,4.8109,4.7983,4.7732,4.7581,4.7456,4.7556,4.7581,3.7059,3.8465,3.8729,3.9888,4.1437,4.3083,4.3855,4.4103,4.5403,4.5944,4.5723,4.4467,4.4639,4.5475,4.4347,4.3488,4.3683,4.3588,4.2544,4.095,4.0352,3.9855,3.9914,4.2233,4.3915,4.4686,4.4844,4.4819,4.4895,4.4895,4.4719,4.4844,4.4895,4.4744,4.4895,4.4744,4.4678,4.4511,4.4653,4.5011,4.5229,4.4986,4.4794,4.4819,4.4844,4.4844,4.4945,4.5246,4.5246,4.4869,4.5271,4.5748,4.6175,4.6326,4.6326,4.6326,4.6326,4.6326,4.6326,4.6326,4.6326,4.6326,4.6326,4.6326,4.6326,4.6326,4.6326,4.6326,4.6326,4.6326,4.6326,4.6326,4.6326,4.6376,4.6451,4.6627,4.7029,4.7129,4.7405,4.7832,4.7983,4.8184,4.8711,4.8812,4.9063,4.9364,4.9515,4.9264,4.8962,4.8786,4.8284,4.8083,4.8008,4.8234,4.851,4.8611,4.8962,4.9289,4.9314,4.9289,4.9238,4.9264,4.9289,4.9213,4.9113,4.8887,4.8812,4.8786,4.8586,4.8259,4.8083,4.7983,4.8033,4.8159,4.8184,3.7059,3.8729,4.0018,4.1565,4.3208,4.489,4.555,4.5671,4.6059,4.628,4.6113,4.5867,4.577,4.6138,4.577,4.5013,4.4374,4.5013,4.3879,4.1774,4.2349,4.3251,4.401,4.4817,4.5494,4.5824,4.5748,4.5874,4.5874,4.5773,4.5799,4.5874,4.5773,4.5824,4.5874,4.5799,4.5849,4.5704,4.5824,4.5849,4.5874,4.5849,4.5874,4.5874,4.5824,4.5824,4.5849,4.5999,4.605,4.5899,4.5999,4.615,4.6301,4.6326,4.6326,4.6326,4.6326,4.6326,4.6326,4.6326,4.6326,4.6326,4.6326,4.6326,4.6326,4.6326,4.6326,4.6326,4.6326,4.6326,4.6326,4.6326,4.6476,4.6853,4.6903,4.7004,4.7205,4.7481,4.7908,4.841,4.8535,4.8812,4.9163,4.9339,4.9389,4.954,4.9565,4.9414,4.9012,4.8987,4.8711,4.8309,4.8209,4.8435,4.8636,4.8711,4.8962,4.9414,4.9515,4.949,4.9464,4.9464,4.9515,4.9515,4.9389,4.9213,4.9314,4.9364,4.8987,4.8586,4.8761,4.8812,4.8761,4.8812,4.8812,3.7441,3.9779,4.0795,4.258,4.4767,4.5939,4.6326,4.6326,4.6326,4.6326,4.6326,4.6326,4.6326,4.6326,4.6301,4.5793,4.5013,4.5793,4.5135,4.4003,4.435,4.4866,4.5281,4.5793,4.6326,4.6326,4.6326,4.6301,4.6276,4.6326,4.6326,4.6276,4.6326,4.6326,4.625,4.6326,4.6326,4.6301,4.6326,4.6326,4.6326,4.6326,4.6301,4.6301,4.6326,4.6326,4.6301,4.6301,4.6326,4.6301,4.6301,4.6326,4.6326,4.6326,4.6326,4.6326,4.6326,4.6326,4.6326,4.6326,4.6326,4.6326,4.6326,4.6326,4.6326,4.6326,4.6326,4.6326,4.6326,4.6326,4.6326,4.6326,4.6577,4.7004,4.733,4.7556,4.7782,4.8109,4.851,4.8912,4.9138,4.9213,4.9565,4.959,4.959,4.959,4.959,4.9289,4.8937,4.9138,4.9113,4.8586,4.8435,4.8661,4.8862,4.8962,4.9088,4.9515,4.959,4.959,4.959,4.959,4.959,4.959,4.959,4.9461,4.9332,4.9436,4.9414,4.9264,4.9515,4.949,4.9339,4.9213,4.9238,3.8088,4.1181,4.1181,4.3232,4.5914,4.6301,4.6326,4.6326,4.6326,4.6326,4.6326,4.6326,4.6326,4.6326,4.6326,4.6301,4.618,4.618,4.618,4.5914,4.5914,4.555,4.4767,4.5793,4.6301,4.6326,4.6326,4.6326,4.6326,4.6326,4.6326,4.6326,4.6326,4.6326,4.6326,4.6326,4.6326,4.6326,4.6326,4.6326,4.6326,4.6326,4.6326,4.6326,4.6326,4.6326,4.6326,4.6326,4.6326,4.6326,4.6326,4.6326,4.6326,4.6326,4.6326,4.6326,4.6326,4.6326,4.6326,4.6326,4.6326,4.6326,4.6326,4.6326,4.6326,4.6326,4.6326,4.6326,4.6326,4.6351,4.6476,4.6426,4.6803,4.7355,4.7807,4.8234,4.8686,4.8862,4.9063,4.949,4.959,4.959,4.959,4.959,4.959,4.959,4.959,4.9414,4.9163,4.9213,4.9038,4.8636,4.8661,4.8862,4.9088,4.9264,4.9389,4.959,4.959,4.959,4.959,4.959,4.959,4.959,4.959,4.9307,4.8763,4.8893,4.9411,4.9282,4.8998,4.9307,4.9565,4.9464,4.9439,3.8088,4.1181,4.1181,4.3232,4.6059,4.6326,4.6326,4.6326,4.6326,4.6326,4.6326,4.6326,4.6326,4.6326,4.6326,4.6326,4.6326,4.6326,4.6326,4.6326,4.6326,4.618,4.5671,4.618,4.6301,4.6326,4.6326,4.6326,4.6326,4.6326,4.6326,4.6326,4.6326,4.6326,4.6326,4.6326,4.6326,4.6326,4.6326,4.6326,4.6326,4.6326,4.6326,4.6326,4.6326,4.6326,4.6326,4.6326,4.6326,4.6326,4.6326,4.6326,4.6326,4.6326,4.6326,4.6326,4.6326,4.6326,4.6326,4.6326,4.6326,4.6326,4.6326,4.6326,4.6326,4.6326,4.6326,4.6326,4.6326,4.6527,4.6878,4.6954,4.7405,4.8058,4.8435,4.8761,4.9264,4.9389,4.9464,4.954,4.959,4.959,4.959,4.959,4.959,4.959,4.9565,4.954,4.9439,4.9339,4.9138,4.8862,4.9012,4.9213,4.9264,4.9414,4.949,4.959,4.959,4.959,4.959,4.959,4.959,4.959,4.959,4.9177,4.8763,4.8893,4.9436,4.9023,4.8738,4.9177,4.959,4.959,4.959,3.8088,4.1181,4.1181,4.3232,4.6059,4.6326,4.6326,4.6326,4.6326,4.6326,4.6326,4.6326,4.6326,4.6326,4.6326,4.6326,4.6326,4.6326,4.6326,4.6326,4.6326,4.6326,4.6326,4.6326,4.6326,4.6326,4.6326,4.6326,4.6326,4.6326,4.6326,4.6326,4.6326,4.6326,4.6326,4.6326,4.6326,4.6326,4.6326,4.6326,4.6326,4.6326,4.6326,4.6326,4.6326,4.6326,4.6326,4.6326,4.6326,4.6326,4.6326,4.6326,4.6326,4.6326,4.6326,4.6326,4.6326,4.6326,4.6326,4.6326,4.6326,4.6326,4.6326,4.6326,4.6326,4.6326,4.6326,4.6376,4.6577,4.6928,4.7431,4.7506,4.7983,4.851,4.8786,4.9012,4.9464,4.959,4.959,4.959,4.959,4.959,4.959,4.959,4.959,4.959,4.959,4.9565,4.9565,4.949,4.9515,4.9389,4.9464,4.954,4.954,4.9565,4.954,4.959,4.959,4.959,4.959,4.959,4.959,4.959,4.959,4.9461,4.9177,4.9307,4.9461,4.9177,4.9177,4.9461,4.9332,4.8893,4.9047,3.8486,4.1565,4.1565,4.3357,4.6059,4.6326,4.6326,4.6326,4.6326,4.6326,4.6326,4.6326,4.6326,4.6326,4.6326,4.6326,4.6326,4.6326,4.6326,4.6326,4.6326,4.6326,4.6326,4.6326,4.6326,4.6326,4.6326,4.6326,4.6326,4.6326,4.6326,4.6326,4.6326,4.6326,4.6326,4.6326,4.6326,4.6326,4.6326,4.6326,4.6326,4.6326,4.6326,4.6326,4.6326,4.6326,4.6326,4.6326,4.6326,4.6326,4.6326,4.6326,4.6326,4.6326,4.6326,4.6326,4.6326,4.6326,4.6326,4.6326,4.6326,4.6326,4.6326,4.6326,4.6326,4.6451,4.6527,4.6652,4.6928,4.7208,4.7558,4.7908,4.8058,4.838,4.8657,4.9113,4.9439,4.959,4.959,4.959,4.959,4.959,4.959,4.959,4.959,4.959,4.959,4.959,4.959,4.959,4.959,4.959,4.959,4.959,4.959,4.959,4.959,4.959,4.959,4.959,4.9461,4.8763,4.8763,4.9461,4.959,4.9307,4.9177,4.9177,4.9307,4.9307,4.9307,4.9307,4.8763,4.806,4.8477,4.0148,4.3333,4.3333,4.4497,4.618,4.6326,4.6326,4.6326,4.6326,4.6326,4.6326,4.6326,4.6326,4.6326,4.6326,4.6326,4.6326,4.6326,4.6326,4.6326,4.6326,4.6326,4.6326,4.6326,4.6326,4.6326,4.6326,4.6326,4.6326,4.6326,4.6326,4.6326,4.6326,4.6326,4.6326,4.6326,4.6326,4.6326,4.6326,4.6326,4.6326,4.6326,4.6326,4.6326,4.6326,4.6326,4.6326,4.6326,4.6326,4.6326,4.6326,4.6326,4.6326,4.6326,4.6326,4.6326,4.6326,4.6326,4.6326,4.6326,4.6326,4.6326,4.6376,4.6376,4.6476,4.6753,4.6856,4.6934,4.7258,4.7482,4.6415,4.7671,4.8046,4.8003,4.8565,4.9439,4.9565,4.959,4.959,4.959,4.959,4.959,4.959,4.959,4.959,4.959,4.959,4.959,4.959,4.959,4.959,4.959,4.959,4.959,4.959,4.959,4.959,4.959,4.959,4.959,4.9177,4.7929,4.7773,4.9047,4.9177,4.8608,4.8738,4.8893,4.8502,4.8084,4.8502,4.9047,4.8191,4.7353,4.7929,4.1415,4.3606,4.3731,4.4743,4.618,4.6326,4.6326,4.6326,4.6326,4.6326,4.6326,4.6326,4.6326,4.6326,4.6326,4.6326,4.6326,4.6326,4.6326,4.6326,4.6326,4.6326,4.6326,4.6326,4.6326,4.6326,4.6326,4.6326,4.6326,4.6326,4.6326,4.6326,4.6326,4.6326,4.6326,4.6326,4.6326,4.6326,4.6326,4.6326,4.6326,4.6326,4.6326,4.6326,4.6326,4.6326,4.6326,4.6326,4.6326,4.6326,4.6326,4.6326,4.6326,4.6326,4.6326,4.6326,4.6326,4.6326,4.6326,4.6326,4.6426,4.6728,4.6728,4.6878,4.7104,4.7282,4.7259,4.703,4.7858,4.7774,4.6658,4.8059,4.8645,4.8664,4.9047,4.9461,4.959,4.959,4.959,4.959,4.959,4.959,4.959,4.959,4.959,4.959,4.959,4.959,4.959,4.959,4.959,4.959,4.959,4.959,4.959,4.959,4.959,4.959,4.959,4.959,4.9307,4.8191,4.8477,4.9307,4.9023,4.7641,4.8191,4.8347,4.7665,4.7269,4.8216,4.8763,4.7509,4.6955,4.7245,4.2706,4.4227,4.4251,4.5013,4.618,4.6326,4.6326,4.6326,4.6326,4.6326,4.6326,4.6326,4.6326,4.6326,4.6326,4.6326,4.6326,4.6326,4.6326,4.6326,4.6326,4.6326,4.6326,4.6326,4.6326,4.6326,4.6326,4.6326,4.6326,4.6326,4.6326,4.6326,4.6326,4.6326,4.6326,4.6326,4.6326,4.6326,4.6326,4.6326,4.6326,4.6326,4.6326,4.6326,4.6326,4.6326,4.6326,4.6326,4.6326,4.6326,4.6326,4.6326,4.6326,4.6326,4.6326,4.6326,4.6326,4.6351,4.6476,4.6527,4.6778,4.723,4.728,4.7506,4.7757,4.7833,4.778,4.7175,4.7863,4.8244,4.7209,4.8036,4.8738,4.8763,4.8763,4.9177,4.9461,4.959,4.959,4.959,4.959,4.959,4.959,4.959,4.959,4.959,4.959,4.959,4.959,4.959,4.959,4.959,4.959,4.959,4.959,4.959,4.959,4.959,4.959,4.959,4.9332,4.8893,4.8893,4.8216,4.7245,4.6154,4.7088,4.7904,4.7509,4.7665,4.8632,4.7797,4.5434,4.4891,4.5344,4.4374,4.5939,4.5939,4.618,4.6326,4.6326,4.6326,4.6326,4.6326,4.6326,4.6326,4.6326,4.6326,4.6326,4.6326,4.6326,4.6326,4.6326,4.6326,4.6326,4.6326,4.6326,4.6326,4.6326,4.6326,4.6326,4.6326,4.6326,4.6326,4.6326,4.6326,4.6326,4.6326,4.6326,4.6326,4.6326,4.6326,4.6326,4.6326,4.6326,4.6326,4.6326,4.6326,4.6326,4.6326,4.6326,4.6326,4.6326,4.6326,4.6326,4.6326,4.6326,4.6326,4.6326,4.6326,4.6326,4.6351,4.6502,4.6878,4.7004,4.7255,4.7707,4.7807,4.7857,4.8134,4.8485,4.8632,4.9286,4.9311,4.8069,4.6642,4.6931,4.7221,4.7509,4.7773,4.8477,4.9177,4.959,4.959,4.959,4.959,4.959,4.959,4.959,4.959,4.959,4.959,4.959,4.959,4.959,4.959,4.959,4.959,4.959,4.959,4.959,4.959,4.959,4.959,4.9461,4.8763,4.806,4.6556,4.5862,4.505,4.548,4.6846,4.7377,4.7401,4.7112,4.6979,4.4914,4.243,4.2709,4.368,4.5671,4.6301,4.6326,4.6326,4.6326,4.6326,4.6326,4.6326,4.6326,4.6326,4.6326,4.6326,4.6326,4.6326,4.6326,4.6326,4.6326,4.6326,4.6326,4.6326,4.6326,4.6326,4.6326,4.6326,4.6326,4.6326,4.6326,4.6326,4.6326,4.6326,4.6326,4.6326,4.6326,4.6326,4.6326,4.6326,4.6326,4.6326,4.6326,4.6326,4.6326,4.6326,4.6326,4.6326,4.6326,4.6326,4.6326,4.6326,4.6326,4.6326,4.6326,4.6326,4.6401,4.6577,4.6778,4.6803,4.7079,4.7205,4.7179,4.7431,4.7857,4.8234,4.841,4.856,4.8812,4.9038,4.8182,4.6532,4.7509,4.6822,4.5298,4.5704,4.6532,4.6931,4.7509,4.8347,4.9177,4.9307,4.959,4.959,4.959,4.9461,4.9461,4.959,4.959,4.959,4.959,4.959,4.959,4.959,4.959,4.959,4.959,4.959,4.959,4.959,4.9461,4.9461,4.9461,4.9047,4.7929,4.6955,4.5592,4.4778,4.4505,4.5209,4.6579,4.6288,4.575,4.5186,4.4778,4.2988,4.1467,4.1467,4.2031,4.6326,4.6326,4.6326,4.6326,4.6326,4.6326,4.6326,4.6326,4.6326,4.6326,4.6326,4.6326,4.6326,4.6326,4.6326,4.6326,4.6326,4.6326,4.6326,4.6326,4.6326,4.6326,4.6326,4.6326,4.6326,4.6326,4.6326,4.6326,4.6326,4.6326,4.6326,4.6326,4.6326,4.6326,4.6326,4.6326,4.6326,4.6326,4.6326,4.6326,4.6326,4.6326,4.6326,4.6326,4.6326,4.6326,4.6326,4.6326,4.6326,4.6326,4.6326,4.6376,4.6602,4.6903,4.7179,4.7355,4.7732,4.7933,4.7857,4.7983,4.841,4.8761,4.8987,4.9113,4.9414,4.9461,4.9047,4.6556,4.7112,4.613,4.4755,4.5996,4.6689,4.7641,4.8191,4.8893,4.9307,4.9177,4.9177,4.9332,4.9307,4.9177,4.9177,4.9461,4.959,4.959,4.959,4.959,4.959,4.959,4.959,4.959,4.9461,4.9461,4.9461,4.9461,4.9461,4.9047,4.8918,4.8084,4.6689,4.5862,4.4914,4.4231,4.3542,4.301,4.2988,4.3542,4.3956,4.3404,4.2988,4.2171,4.1205,4.1063,4.0494,4.6326,4.6326,4.6326,4.6326,4.6326,4.6326,4.6326,4.6326,4.6326,4.6326,4.6326,4.6326,4.6326,4.6326,4.6326,4.6326,4.6326,4.6326,4.6326,4.6326,4.6326,4.6326,4.6326,4.6326,4.6326,4.6326,4.6326,4.6326,4.6326,4.6326,4.6326,4.6326,4.6326,4.6326,4.6326,4.6326,4.6326,4.6326,4.6326,4.6326,4.6326,4.6326,4.6326,4.6326,4.6326,4.6326,4.6326,4.6326,4.6326,4.6326,4.6326,4.6577,4.6878,4.7179,4.7456,4.7908,4.8385,4.8586,4.8611,4.8636,4.8962,4.9339,4.9515,4.9464,4.959,4.959,4.9177,4.8347,4.7797,4.8084,4.7509,4.7929,4.6689,4.7377,4.7509,4.806,4.8347,4.8322,4.8347,4.8893,4.9177,4.9047,4.9177,4.9461,4.959,4.959,4.959,4.959,4.959,4.959,4.959,4.959,4.9461,4.9332,4.9307,4.9023,4.7929,4.7245,4.6979,4.6019,4.4641,4.3956,4.368,4.243,4.1488,4.0514,3.9962,4.1347,4.2031,4.1608,4.1205,4.0657,4.0105,3.9674,3.9405,4.6326,4.6326,4.6326,4.6326,4.6326,4.6326,4.6326,4.6326,4.6326,4.6326,4.6326,4.6326,4.6326,4.6326,4.6326,4.6326,4.6326,4.6326,4.6326,4.6326,4.6326,4.6326,4.6326,4.6326,4.6326,4.6326,4.6326,4.6326,4.6326,4.6326,4.6326,4.6326,4.6326,4.6326,4.6326,4.6326,4.6326,4.6326,4.6326,4.6326,4.6326,4.6326,4.6326,4.6326,4.6326,4.6326,4.6326,4.6326,4.6326,4.6326,4.6351,4.6728,4.7205,4.7506,4.7908,4.8385,4.8937,4.9188,4.9238,4.9238,4.9389,4.949,4.959,4.959,4.959,4.959,4.8893,4.806,4.6979,4.6713,4.6019,4.4641,4.3796,4.5592,4.6822,4.7509,4.7773,4.7773,4.8347,4.9177,4.9307,4.9307,4.9461,4.959,4.959,4.959,4.959,4.959,4.959,4.9307,4.9177,4.8632,4.8347,4.7929,4.7929,4.7112,4.6154,4.5592,4.5186,4.3956,4.2849,4.2452,4.189,4.0657,3.9818,3.9405,3.9405,3.9962,4.0228,4.0085,3.9818,3.9405,3.8846,3.8574,3.8574,4.6326,4.6326,4.6326,4.6326,4.6326,4.6326,4.6326,4.6326,4.6326,4.6326,4.6326,4.6326,4.6326,4.6326,4.6326,4.6326,4.6326,4.6326,4.6326,4.6326,4.6326,4.6326,4.6326,4.6326,4.6326,4.6326,4.6326,4.6326,4.6326,4.6326,4.6326,4.6326,4.6326,4.6326,4.6326,4.6326,4.6326,4.6326,4.6326,4.6326,4.6326,4.6326,4.6326,4.6326,4.6326,4.6326,4.6401,4.6476,4.6627,4.6677,4.6803,4.7129,4.7556,4.7983,4.846,4.8937,4.9339,4.959,4.959,4.959,4.959,4.959,4.959,4.959,4.959,4.9177,4.7929,4.7088,4.5457,4.4116,4.4116,4.3956,4.4208,4.6264,4.7665,4.8347,4.8191,4.8191,4.8763,4.9332,4.9177,4.8632,4.9461,4.959,4.9461,4.959,4.959,4.959,4.9461,4.9023,4.8347,4.7665,4.6979,4.6422,4.5996,4.5457,4.4778,4.3542,4.2988,4.215,4.1347,4.0921,4.0514,3.9694,3.8991,3.872,3.8846,3.9405,3.9136,3.8865,3.872,3.8865,3.872,3.8574,3.8574,4.6326,4.6326,4.6326,4.6326,4.6326,4.6326,4.6326,4.6326,4.6326,4.6326,4.6326,4.6326,4.6326,4.6326,4.6326,4.6326,4.6326,4.6326,4.6326,4.6326,4.6326,4.6326,4.6326,4.6326,4.6326,4.6326,4.6301,4.6301,4.6059,4.5793,4.5939,4.618,4.6059,4.6326,4.6326,4.6326,4.6326,4.6326,4.6326,4.6326,4.6326,4.6326,4.6326,4.6326,4.6326,4.6326,4.6527,4.6778,4.6979,4.7129,4.7431,4.7857,4.841,4.8535,4.8912,4.9439,4.954,4.959,4.959,4.959,4.959,4.959,4.959,4.9461,4.9152,4.8191,4.6955,4.613,4.505,4.4231,4.4641,4.5027,4.5298,4.613,4.7509,4.8313,4.805,4.8805,4.9271,4.9711,4.8445,4.7509,4.8763,4.959,4.9461,4.9461,4.959,4.9461,4.9177,4.8608,4.7773,4.6955,4.6154,4.5457,4.4914,4.4368,4.3542,4.2171,4.1063,4.0514,3.9962,3.955,3.9136,3.8574,3.8574,3.8574,3.8574,3.872,3.8574,3.8574,3.8574,3.872,3.8574,3.8574,3.8574,4.6326,4.6326,4.6326,4.6326,4.6326,4.6326,4.6326,4.6326,4.6326,4.6326,4.6326,4.6326,4.6326,4.6326,4.6326,4.6326,4.6326,4.6326,4.6326,4.6326,4.6326,4.6326,4.6326,4.623,4.6205,4.6326,4.618,4.5574,4.4497,4.489,4.4767,4.4743,4.5914,4.6301,4.6326,4.6326,4.6326,4.6326,4.6326,4.6326,4.6326,4.6326,4.6351,4.6351,4.6376,4.6552,4.6853,4.7154,4.738,4.7631,4.7958,4.8284,4.8711,4.8837,4.9063,4.9464,4.959,4.959,4.959,4.959,4.959,4.959,4.959,4.9047,4.7904,4.7353,4.6264,4.5209,4.4276,4.3725,4.4368,4.3149,4.3288,4.4368,4.5661,4.6705,4.7226,4.8861,4.9906,5.0087,4.9306,4.8698,4.9277,4.9382,4.9357,4.9147,4.9172,4.8526,4.806,4.7641,4.7088,4.6422,4.5727,4.4778,4.3956,4.287,4.2031,4.0921,3.9962,3.9261,3.872,3.872,3.8574,3.8574,3.8574,3.8574,3.8574,3.8574,3.8574,3.8574,3.8574,3.8574,3.8574,3.8574,3.8574,4.6326,4.6326,4.6326,4.6326,4.6326,4.6326,4.6326,4.6326,4.6326,4.6326,4.6326,4.6326,4.6326,4.6326,4.6326,4.6326,4.6326,4.6326,4.6326,4.6326,4.6326,4.5793,4.5574,4.5795,4.5233,4.5429,4.5747,4.5429,4.4003,4.4374,4.4767,4.5281,4.5671,4.618,4.6326,4.6326,4.6326,4.6326,4.6326,4.6326,4.6376,4.6476,4.6627,4.6702,4.6828,4.7054,4.7355,4.7606,4.7832,4.8134,4.841,4.8636,4.8937,4.9113,4.9238,4.949,4.959,4.959,4.959,4.959,4.959,4.959,4.959,4.8632,4.7088,4.613,4.5321,4.4413,4.3419,4.2808,4.2569,4.1313,4.3425,4.468,4.6148,4.7359,4.845,5.0116,5.0281,5.0463,5.0106,4.9651,4.9041,4.9302,4.9122,4.896,4.8641,4.7943,4.716,4.676,4.6311,4.5592,4.4641,4.3404,4.2171,4.0942,4.0249,3.9694,3.9261,3.8991,3.9136,3.9405,3.8991,3.8574,3.8574,3.8574,3.8574,3.8574,3.8574,3.8574,3.8574,3.8574,3.8574,3.8574,3.8574,4.6326,4.6326,4.6326,4.6326,4.6326,4.6326,4.6326,4.6326,4.6326,4.6326,4.6326,4.6326,4.6326,4.6326,4.6326,4.6326,4.6326,4.6326,4.6326,4.6326,4.6326,4.5403,4.4988,4.5011,4.447,4.3796,4.3796,4.4326,4.3683,4.3606,4.4497,4.5135,4.5135,4.5403,4.5403,4.5939,4.6059,4.6326,4.6451,4.6476,4.6577,4.6903,4.7104,4.723,4.7456,4.7707,4.8008,4.8284,4.8586,4.8887,4.9213,4.9439,4.9565,4.959,4.959,4.959,4.959,4.959,4.959,4.959,4.9177,4.9177,4.9461,4.8477,4.7003,4.5549,4.496,4.4013,4.3067,4.1524,4.0358,4.2992,4.5512,4.7075,4.8636,4.9731,5.0687,5.1064,5.073,5.0423,4.9992,4.9356,4.8206,4.8109,4.9221,4.845,4.8234,4.798,4.7218,4.6253,4.5642,4.4641,4.3542,4.1749,4.08,4.1063,4.0657,4.0779,3.9962,3.953,3.9818,4.0085,3.9818,3.9405,3.8846,3.8574,3.8574,3.8574,3.8574,3.8574,3.8574,3.8574,3.8574,3.8574,3.8574,4.6326,4.6326,4.6326,4.6326,4.6326,4.6326,4.6326,4.6326,4.6326,4.6326,4.6326,4.6326,4.6326,4.6326,4.6326,4.6326,4.6326,4.6326,4.6326,4.6326,4.6301,4.5939,4.5134,4.4036,4.3695,4.362,4.3474,4.2778,4.1752,4.182,4.0386,3.9235,4.3083,4.3606,4.4127,4.5159,4.5842,4.6451,4.6677,4.6828,4.7029,4.7405,4.7606,4.7782,4.7933,4.8184,4.8535,4.8686,4.8962,4.9339,4.949,4.959,4.959,4.959,4.959,4.959,4.959,4.959,4.959,4.959,4.9202,4.8657,4.8942,4.7533,4.6248,4.5644,4.5393,4.4397,4.4189,4.3573,4.3248,4.5025,4.6507,4.7258,4.8725,4.981,5.0752,5.1098,5.074,5.032,4.9731,4.8827,4.7545,4.8445,4.9296,4.8306,4.7868,4.793,4.7495,4.6664,4.5711,4.4823,4.4368,4.3127,4.3266,4.368,4.2709,4.189,4.1063,4.0636,4.0921,4.0921,4.0657,3.9962,3.9136,3.872,3.8574,3.8574,3.8574,3.8574,3.8574,3.8574,3.8574,3.8574,3.8574,4.6326,4.6326,4.6326,4.6326,4.6326,4.6326,4.6326,4.6326,4.6326,4.6326,4.6326,4.6326,4.6326,4.6326,4.6326,4.6326,4.6326,4.6326,4.6326,4.6326,4.618,4.5037,4.3938,4.3445,4.266,4.2497,4.1857,4.1152,4.0386,4.0148,3.9125,3.9103,4.1797,4.2201,4.3028,4.4591,4.5896,4.6509,4.6954,4.7205,4.7556,4.7958,4.8159,4.8284,4.8385,4.8761,4.8987,4.9063,4.9289,4.954,4.959,4.959,4.959,4.959,4.959,4.959,4.959,4.959,4.959,4.959,4.9017,4.8723,4.9215,4.8282,4.7393,4.688,4.6196,4.5551,4.6424,4.7,4.6927,4.6854,4.6803,4.6894,4.8122,4.9364,5.0065,5.0791,5.0474,5.0011,4.929,4.8318,4.8269,4.9215,4.975,4.9096,4.9107,4.9583,4.8865,4.7566,4.6681,4.575,4.5727,4.5434,4.5592,4.505,4.4231,4.3266,4.287,4.2452,4.2312,4.1467,4.0779,3.9962,3.9136,3.8846,3.8574,3.8574,3.8574,3.8574,3.8574,3.8574,3.8574,3.8574,3.8574,4.6326,4.6326,4.6326,4.6326,4.6326,4.6326,4.6326,4.6326,4.6326,4.6326,4.6326,4.6326,4.6326,4.6326,4.6326,4.6326,4.6326,4.6326,4.6326,4.618,4.5793,4.4645,4.3789,4.3799,4.1942,3.9469,3.8765,4.0342,3.9736,3.9627,4.0148,4.1052,4.1309,4.1738,4.2915,4.3599,4.487,4.6537,4.6861,4.7134,4.7933,4.846,4.8837,4.8912,4.9188,4.954,4.954,4.9565,4.959,4.959,4.959,4.959,4.959,4.959,4.959,4.959,4.959,4.959,4.959,4.959,4.9916,5.0012,5.0287,4.9327,4.8435,4.7946,4.7258,4.6401,4.695,4.6721,4.6546,4.7235,4.747,4.778,4.8707,4.9769,5.0567,5.0683,5.0205,4.9697,4.9179,4.8281,4.8112,4.9067,5.0262,4.9878,4.9903,5.0439,4.9983,4.8645,4.7508,4.6689,4.7088,4.6822,4.5434,4.505,4.505,4.4641,4.4094,4.3703,4.3266,4.2031,4.0779,4.0105,3.955,3.8846,3.8574,3.8574,3.8574,3.8574,3.8574,3.8574,3.8574,3.8594,3.8574,4.6326,4.6326,4.6326,4.6326,4.6326,4.6326,4.6326,4.6326,4.6326,4.6326,4.6326,4.6326,4.6326,4.6326,4.6326,4.6326,4.6326,4.6326,4.6326,4.5793,4.5281,4.4251,4.2637,4.1934,4.0581,4.0386,4.0212,3.9866,3.9758,3.9649,3.991,4.0924,4.0946,4.1164,4.2146,4.2571,4.3669,4.603,4.6303,4.689,4.8128,4.891,4.9414,4.9414,4.959,4.959,4.959,4.959,4.959,4.959,4.959,4.959,4.959,4.959,4.959,4.959,4.959,4.959,4.959,4.964,4.9891,5.0243,5.0231,4.9523,4.8956,4.8858,4.8263,4.7417,4.691,4.6625,4.6703,4.7545,4.8049,4.865,4.9224,5.0127,5.0857,5.0263,4.9695,4.9445,4.8932,4.8754,4.8426,4.906,5.0132,5.0473,5.0323,5.0413,5.0287,4.9364,4.8279,4.7797,4.8502,4.806,4.6264,4.5727,4.6019,4.5457,4.4778,4.4505,4.4094,4.2171,4.0371,4.0371,3.9962,3.9136,3.8574,3.8574,3.8574,3.8574,3.8574,3.8574,3.8613,3.8633,3.8594,4.6326,4.6326,4.6326,4.6326,4.6326,4.6326,4.6326,4.6326,4.6326,4.6326,4.6326,4.6326,4.6326,4.6326,4.6326,4.6326,4.6326,4.6326,4.6326,4.5914,4.5013,4.3855,4.2292,4.0312,3.9194,3.8954,3.8429,3.8075,3.8972,3.8221,3.8088,3.9125,3.9167,3.9623,4.045,4.1087,4.2549,4.5302,4.5262,4.6177,4.7767,4.8558,4.9461,4.959,4.959,4.959,4.959,4.959,4.959,4.959,4.959,4.959,4.959,4.959,4.959,4.959,4.959,4.959,4.959,4.9665,4.9841,5.0243,5.0745,5.0221,5.0357,5.0239,4.9176,4.8474,5.0002,4.9866,4.9131,4.9677,4.865,4.8506,4.9081,4.9819,4.9558,4.8897,4.892,4.9197,4.9358,4.9988,4.9889,5.0171,5.1089,5.1214,5.1071,5.0444,5.0243,4.9992,4.9041,4.8477,4.9177,4.8632,4.6822,4.6822,4.7533,4.6689,4.5186,4.4231,4.301,4.1347,3.9962,3.9734,3.959,3.8991,3.8574,3.8574,3.8574,3.8574,3.8574,3.8574,3.8613,3.8545,3.8495,4.6326,4.6326,4.6326,4.6326,4.6326,4.6326,4.6326,4.6326,4.6326,4.6326,4.6326,4.6326,4.6326,4.6326,4.6326,4.6326,4.6326,4.6326,4.6326,4.5671,4.5281,4.3083,4.1069,3.9369,3.8055,3.6978,3.6479,3.6749,3.7307,3.7059,3.7059,3.6559,3.6813,3.7496,3.8854,3.9857,4.1272,4.3462,4.4437,4.4914,4.6341,4.7726,4.842,4.8893,4.9307,4.9307,4.9461,4.959,4.959,4.959,4.959,4.959,4.959,4.959,4.959,4.959,4.959,4.959,4.959,4.9615,4.9941,5.0368,5.0946,5.1205,5.1297,5.1019,5.0095,5.0098,5.1485,5.1279,5.0551,5.0127,4.8938,4.8938,4.9368,4.9866,4.918,4.8568,4.9153,4.9571,5.0084,5.0955,5.1189,5.1448,5.1448,5.1624,5.1348,5.077,5.0243,4.9941,4.9382,4.9047,4.9332,4.8477,4.7088,4.7353,4.7929,4.5885,4.4231,4.3288,4.2074,4.0412,3.934,3.9129,3.8711,3.8633,3.8594,3.8574,3.8574,3.8574,3.8574,3.8594,3.836,3.8329,3.8284,4.6326,4.6326,4.6326,4.6326,4.6326,4.6326,4.6326,4.6326,4.6326,4.6326,4.6326,4.6326,4.6326,4.6326,4.6326,4.6301,4.6301,4.618,4.5135,4.4251,4.3357,4.1309,3.9344,3.8096,3.6729,3.6132,3.6152,3.6809,3.6924,3.7575,3.8597,3.9387,3.8502,3.8697,3.9151,3.9626,3.9798,4.1924,4.3426,4.4068,4.5096,4.6019,4.6043,4.6689,4.7377,4.8347,4.9047,4.959,4.959,4.959,4.959,4.959,4.959,4.959,4.959,4.959,4.959,4.959,4.959,4.959,4.9891,5.0268,5.0688,5.0861,5.1272,5.1817,5.0756,4.9677,5.0103,4.865,4.8072,4.865,4.8217,4.9819,5.0857,5.101,5.0807,5.0807,5.1181,5.1097,5.1073,5.154,5.18,5.1674,5.1272,5.1247,5.087,5.0318,4.9526,4.9456,4.9615,4.9461,4.9332,4.8477,4.7221,4.7221,4.7221,4.505,4.3053,4.1799,4.074,3.9525,3.873,3.8867,3.8769,3.8652,3.8613,3.8574,3.8574,3.8574,3.8574,3.8594,3.8233,3.7519,3.7033]}]]